     2.11           OBSERVATION DATA    G (GPS)             RINEX VERSION / TYPE
teqc 2010Oct21 OPUS Account 20111025 17:40:09UTC            PGM / RUN BY / DATE
H 1521                                                      MARKER NAME
1127                                                        MARKER NUMBER
CSMIDDLETON NGS                                             OBSERVER / AGENCY
0220287165 TRIMBLE 5700 NP 2.32 / SP 2.32                   REC # / TYPE / VERS
11909788 TRM41249.00 NONE                                   ANT # / TYPE
  -738802.9780 -5466248.6333  3191848.6179                  APPROX POSITION XYZ
        1.9990        0.0000        0.0000                  ANTENNA: DELTA H/E/N
     1     1                                                WAVELENGTH FACT L1/2
     5    L1    L2    C1    P1    P2                        # / TYPES OF OBSERV
  2011     7    25     0     0    0.0000000     GPS         TIME OF FIRST OBS
                                                            END OF HEADER
 11  7 25  0  0  0.0000000  0  8G02G17G04G27G10G20G28G09
 335956520.01647 261831688.27744  22886023.4064                   22886020.4654
 278828410.15247 217315609.59445  21367624.9774                   21367622.1914
 302373420.11747 235680893.55146  20169111.8444                   20169109.5274
 319883075.07847 249679083.35544  22635780.0784                   22635778.1524
 352885162.69945 275029343.04342  24175113.9924                   24175116.9844
 339351473.86846 264591960.29242  24204910.9064                   24204909.6844
 257035822.19547 201153856.06645  21740649.8054                   21740647.2464
 334770403.97347 261020179.25044  22485579.7114                   22485578.4384
 11  7 25  0  0 30.0000000  0  8G02G17G04G27G10G20G28G09
 335757838.29347 261676871.45344  22848215.3054                   22848212.1604
 278745248.36747 217250808.19145  21351800.4304                   21351797.0554
 302231844.54347 235570574.93846  20142170.8134                   20142168.3444
 319748569.81647 249574274.06344  22610184.5004                   22610183.2504
 352679256.85245 274868897.21142  24135930.9224                   24135935.5394
 339261137.40646 264521568.25843  24187720.6334                   24187718.9304
 256965628.87147 201099159.94945  21727293.1804                   21727289.9574
 334615381.90647 260899382.86344  22456080.3674                   22456077.9804
 11  7 25  0  1  0.0000000  0  8G02G17G04G27G10G20G28G09
 335559571.76247 261522378.11744  22810486.5004                   22810483.4494
 278662358.15647 217186218.40646  21336026.7504                   21336023.9224
 302091004.05947 235460829.12946  20115370.1804                   20115367.8984
 319614714.96547 249469971.56644  22584713.1254                   22584711.5474
 352473478.96145 274708550.87142  24096773.2504                   24096777.0234
 339171468.78546 264451696.66042  24170657.4384                   24170655.7234
 256895964.68047 201044876.14845  21714036.4384                   21714032.7624
 334461132.87547 260779188.79744  22426727.1484                   22426725.1884
 11  7 25  0  1 30.0000000  0  8G02G17G04G27G10G20G28G09
 335361721.55147 261368209.22344  22772836.9774                   22772833.8714
 278579738.41447 217121839.39146  21320304.0784                   21320301.8204
 301950898.34847 235351655.86746  20088708.6724                   20088706.0904
 319481510.18847 249366175.62544  22559364.9224                   22559363.2544
 352267831.25045                  24057640.0234
 339082467.45346 264382344.96142  24153720.2034                   24153719.1954
 256826829.57447 200991004.59845  21700880.0634                   21700877.4694
 334307657.93047 260659597.95744  22397522.1804                   22397520.4454
 11  7 25  0  2  0.0000000  0  8G02G17G04G27G10G20G28G09
 335164282.89847 261214361.00844  22735265.3594                   22735262.1684
 278497382.23047 217057665.73845  21304632.6884                   21304630.0354
 301811521.43847 235243050.47746  20062186.4924                   20062183.8204
 319348949.73847 249262881.79344  22534139.5314                   22534137.0354
 352062310.46945 274575040.24652  24018531.0474                   24018531.0124
 338994126.66446 264313507.98442  24136909.5314                   24136908.7934
 256758217.68447 200937540.75845  21687823.6804                   21687820.9924
 334154951.55547 260540606.01244  22368462.9224                   22368461.1134
 11  7 25  0  2 30.0000000  0  8G02G17G04G27G10G20G28G09
 334967266.28147 261060841.64144  22697774.2424                   22697771.7734
 278415297.62147 216993703.70345  21289012.2734                   21289009.2304
 301672882.36747 235135020.05546  20035804.2114                   20035801.6804
 319217042.79347 249160097.18444  22509038.3754                   22509036.7274
 351856928.21145 274415002.28142  23979447.2194                   23979449.2854
 338906455.12146 264245192.55142  24120226.9844                   24120225.0824
 256690137.82847 200884491.49645  21674868.4534                   21674866.0594
 334003024.22747 260422221.10244  22339551.6564                   22339550.0554
 11  7 25  0  3  0.0000000  0  8G02G17G04G27G10G20G28G09
 334770676.18447 260907654.64144  22660364.1484                   22660361.7384
 278333487.24247 216929955.35245  21273444.7114                   21273441.8634
 301534984.69148 235027567.34846  20009563.0864                   20009560.7114
 319085792.95747 249057824.60944  22484062.3284                   22484060.7194
 351651690.60245 274255077.12142  23940391.5394                   23940393.6954
 338819456.27746 264177401.26642  24103671.3134                   24103670.1024
 256622594.11747 200831860.00045  21662015.3674                   21662012.7734
 333851880.39847 260304446.73044  22310789.7504                   22310787.9734
 11  7 25  0  3 30.0000000  0  8G02G17G04G27G10G20G28G09
 334574511.39147 260754799.03944  22623035.5164                   22623032.5554
 278251947.79347 216866418.12545  21257928.4064                   21257925.4614
 301397825.84447 234920690.34046  19983462.4614                   19983460.1254
 318955197.63347 248956062.03944  22459210.4924                   22459209.2504
 351446597.84445 274095264.73442  23901364.6254                   23901365.6174
 338733126.64546 264110131.43442  24087242.6024                   24087242.7114
 256555583.22347 200779643.70345  21649263.6644                   21649261.1174
 333701518.19947 260187281.43044  22282176.9304                   22282175.7854
 11  7 25  0  4  0.0000000  0  8G02G17G04G27G10G20G28G09
 334378770.77347 260602273.96544  22585787.2274                   22585783.8714
 278170676.12547 216803089.55945  21242462.3524                   21242459.7624
 301261403.09448 234814386.92646  19957502.1094                   19957499.5514
 318825254.78147 248854807.89544  22434483.8984                   22434482.0634
 351241650.13746 273935565.41842  23862362.7034                   23862365.6414
 338647463.72346 264043381.10243  24070943.0234                   24070940.6174
 256489103.11347 200727841.01245  21636613.3834                   21636610.0084
 333551936.14847 260070724.01644  22253712.7894                   22253711.4614
 11  7 25  0  4 30.0000000  0  8G02G17G04G27G10G20G28G09
 334183457.90247 260450082.18844  22548620.5234                   22548617.0084
 278089673.71547 216739970.80545  21227048.4454                   21227045.5164
 301125718.71548 234708658.86746  19931682.1724                   19931679.9654
 318695966.71947 248754063.97344  22409880.7894                   22409879.2274
 351036852.51246 273775983.04742  23823392.6644                   23823393.8054
 338562469.08646 263977151.52342  24054767.9384                   24054766.7304
 256423155.98847 200676453.61345  21624063.8134                   21624061.3404
 333403137.42247 259954776.98444  22225397.3834                   22225395.8634
 11  7 25  0  5  0.0000000  0  8G02G17G04G27G10G20G28G09
 333988570.72347 260298222.12944  22511534.6724                   22511531.4064
 278008936.62947 216677058.79745  21211684.5784                   21211681.9964
 300990769.66048 234603503.78546  19906001.9304                   19905999.6024
 318567330.12547 248653827.70344  22385402.1254                   22385400.0554
 350832204.69546 273616517.41043  23784450.0164                   23784450.0434
 338478139.15646 263911439.93442  24038720.1724                   24038719.7034
 256357738.97747 200625479.30945  21611615.4614                   21611612.5434
 333255119.89847 259839438.70344  22197230.0084                   22197229.1024
 11  7 25  0  5 30.0000000  0  8G02G17G04G27G10G20G28G09
 333794114.10947 260146697.57044  22474530.4694                   22474527.0824
 277928467.48847 216614355.55145  21196371.8914                   21196368.4774
 300856559.00448 234498924.08246  19880462.3914                   19880460.6414
 318439348.55547 248554101.83244  22361048.0634                   22361046.2544
 350627712.56646 273457173.03543  23745535.7274                   23745536.6724
 338394476.81346 263846248.53942  24022800.6024                   24022798.8364
 256292855.02747 200574920.36345  21599268.7274                   21599265.0354
 333107887.85247 259724712.46944  22169212.5394                   22169211.7894
 11  7 25  0  6  0.0000000  0  8G02G17G04G27G10G20G28G09
 333600083.03947 259995504.59444  22437607.4534                   22437603.9414
 277848259.36347 216551855.72745  21181108.5234                   21181105.9064
 300723080.64548 234394914.98846  19855062.2664                   19855060.0354
 318312015.65647 248454881.41844  22336817.2274                   22336815.7304
 350423372.55546 273297947.22343  23706650.8364                   23706651.2704
 338311475.18446 263781571.96143  24007006.1804                   24007005.1724
 256228498.45747 200524772.37145  21587021.9844                   21587018.7464
 332961435.89147 259610594.09044  22141344.5394                   22141342.3484
 11  7 25  0  6 30.0000000  0  8G02G17G04G27G10G20G28G09
 333406471.16047 259844638.25445  22400764.3834                   22400761.3324
 277768304.08647 216489552.89545  21165893.6804                   21165890.8594
 300590326.82848 234291470.49646  19829799.6804                   19829798.0044
 318185324.09847 248356160.73044  22312708.3054                   22312707.2344
 350219180.13746 273138836.37543  23667794.7504                   23667794.4964
 338229126.44946 263717404.12143  23991334.7344                   23991334.1604
 256164661.45747 200475029.22345  21574874.5164                   21574871.3554
 332815757.28147 259497078.33644  22113621.9534                   22113620.9264
 11  7 25  0  7  0.0000000  0  8G02G17G04G27G10G20G28G09
 334788711.98847 260921709.12144  22663795.7664                   22663792.9454
 279264029.21947 217655052.98045  21450520.9304                   21450518.2114
 302033727.41848 235416198.24646  20104470.3594                   20104467.9614
 319634703.81647 249485547.55144  22588516.4614                   22588514.3014
 351590570.77046 274207452.64543  23928759.9064                   23928761.0354
 339722858.45746 264881351.12543  24275582.7344                   24275581.9964
 257676772.07447 201653297.21145  21862619.2814                   21862616.8094
 334246283.20747 260611773.86344  22385842.6954                   22385841.0354
 11  7 25  0  7 30.0000000  0  8G02G17G04G27G10G20G28G09
 334595957.63347 260771510.98844  22627115.4534                   22627112.1724
 279184592.38747 217593154.14845  21435404.2584                   21435401.4494
 301902437.30148 235313894.28546  20079486.9694                   20079484.2974
 319509310.09447 249387838.16844  22564654.6174                   22564653.0634
 351386697.13346 274048590.18042  23889964.2424                   23889965.0124
 339641828.80146 264818211.14842  24260162.9694                   24260162.4454
 257613989.64547 201604375.82045  21850672.2894                   21850669.3874
 334102168.74247 260499476.91844  22358417.3444                   22358416.5824
 11  7 25  0  8  0.0000000  0  8G02G17G04G27G10G20G28G09
 334403634.72347 260621649.04744  22590518.0704                   22590514.6564
 279105414.71547 217531457.25045  21420337.1564                   21420334.4614
 301771879.60548 235212161.04346  20054642.3444                   20054640.0004
 319384566.19947 249290635.13744  22540917.0314                   22540915.3324
 351182988.25446 273889856.14142  23851200.0864                   23851200.0744
 339561458.89145 264755585.19142  24244869.1644                   24244868.1764
 257551735.49647 201555866.06645  21838825.9304                   21838823.2464
 333958838.55547 260387791.05144  22331143.3594                   22331142.0474
 11  7 25  0  8 30.0000000  0  8G02G17G04G27G10G20G28G09
 334211742.31347 260472122.57044  22554001.8914                   22553998.7304
 279026493.39147 217469960.09845  21405318.8444                   21405316.1484
 301642052.07048 235110996.74246  20029936.7424                   20029934.6684
 319260469.87947 249193936.71545  22517302.0704                   22517300.2544
 350979444.36346 273731250.75042  23812466.5004                   23812466.9224
 339481746.02346 264693471.34842  24229701.5704                   24229700.1334
 257490007.18847 201507766.05145  21827078.8524                   21827076.2854
 333816290.98447 260276715.03944  22304017.3284                   22304015.8874
 11  7 25  0  9  0.0000000  0  8G02G17G04G27G10G20G28G09
 334020278.10947 260322929.76645  22517567.4694                   22517564.5394
 278947823.91847 217408659.19145  21390349.1644                   21390346.3404
 301512950.77748 235010398.35246  20005369.8054                   20005367.2344
 319137017.45747 249097740.02344  22493810.0164                   22493808.1684
 350776064.69546 273572773.17642  23773765.0474                   23773765.2894
 339402685.54345 264631865.73442  24214655.9924                   24214655.2464
 257428801.10947 201460072.98044  21815432.0704                   21815429.2704
 333674523.36346 260166246.75444  22277040.2274                   22277038.6174
 11  7 25  0  9 30.0000000  0  8G02G17G04G27G10G20G28G09
 333829237.10247 260174066.72344  22481213.3674                   22481210.4694
 278869399.73447 217347549.43445  21375425.6804                   21375422.5594
 301384569.18448 234910360.77046  19980939.5394                   19980937.1804
 319014202.76647 249002040.23844  22470438.7734                   22470437.5044
 350572845.54746 273414420.77342  23735093.7584                   23735093.8524
 339324270.85245 264570763.35942  24199733.2034                   24199733.5394
 257368110.96147 201412781.90645  21803882.4534                   21803880.4804
 333533530.05147 260056381.84444  22250209.8834                   22250208.1564
 11  7 25  0 10  0.0000000  0  8G02G17G04G27G10G20G28G09
 333638619.54747 260025533.63745  22444940.7504                   22444937.0164
 278791219.12547 217286629.48045  21360547.4534                   21360545.5204
 301256905.96948 234810882.94946  19956645.8204                   19956643.2854
 318892024.58247 248906836.45344  22447189.3524                   22447187.6604
 350369789.30146 273256195.26242  23696452.7584                   23696453.1294
 339246500.07445 264510162.75842  24184933.9384                   24184934.5744
 257307935.41047 201365891.84045  21792432.1484                   21792428.8484
 333393310.96547 259947120.22744  22223526.3444                   22223525.2074
 11  7 25  0 10 30.0000000  0  8G02G17G04G27G10G20G28G09
 333448423.72347 259877329.18845  22408747.3444                   22408743.8954
 278713278.21147 217225896.30145  21345716.2974                   21345713.2464
 301129958.14148 234711962.58246  19932488.9614                   19932486.2464
 318770480.01647 248812126.39544  22424060.0634                   22424058.1414
 350166896.25046 273098096.97743  23657844.5474                   23657843.8914
 339169370.00045 264450061.39542  24170257.7344                   24170257.2074
 257248271.98447 201319400.83645  21781078.1024                   21781075.2814
 333253863.60547 259838459.95344  22196990.6804                   22196989.4614
 11  7 25  0 11  0.0000000  0  8G02G17G04G27G10G20G28G09
 333258645.89147 259729450.44544  22372633.9924                   22372629.7584
 278635571.75047 217165345.82445  21330929.3444                   21330926.7194
 301003720.27048 234613595.41846  19908466.5394                   19908464.2074
 318649563.83247 248717905.97344  22401050.3834                   22401049.2704
 349964163.83246 272940123.80143  23619263.9304                   23619264.9264
 339092874.85245 264390454.76642  24155701.7664                   24155700.1414
 257189115.30547 201273304.68445  21769820.8914                   21769819.0704
 333115183.59447 259730397.62144  22170601.1804                   22170600.1954
 11  7 25  0 11 30.0000000  0  8G02G17G04G27G10G20G28G09
 333069288.44547 259581899.25845  22336600.3594                   22336596.4494
 278558100.34847 217104978.50045  21316187.1644                   21316184.2854
 300878193.31348 234515782.22346  19884579.5944                   19884576.7934
 318529277.10547 248624176.03944  22378160.9144                   22378159.8164
 349761596.32446 272782279.15643  23580717.9224                   23580717.9414
 339017015.02045 264331343.26242  24141264.2504                   24141264.7774
 257130466.50447 201227604.28145  21758660.5704                   21758658.1604
 332977272.61347 259622934.51644  22144357.2894                   22144355.8444
 11  7 25  0 12  0.0000000  0  8G02G17G04G27G10G20G28G09
 332880356.55147 259434679.68444  22300647.2034                   22300644.3634
 278480867.48047 217044797.04345  21301490.2504                   21301487.2584
 300753380.93848 234418525.83646  19860828.3754                   19860826.2544
 318409623.89547 248530939.75444  22355391.3204                   22355389.8484
 349559200.52046 272624568.24243  23542202.8134                   23542203.3874
 338941793.95345 264272729.38742  24126950.9144                   24126951.3834
 257072329.58647 201182302.74645  21747598.1804                   21747595.1994
 332840135.51647 259516074.45744  22118260.9304                   22118259.5474
 11  7 25  0 12 30.0000000  0  8G02G17G04G27G10G20G28G09
 332691841.61347 259287785.02045  22264774.1334                   22264771.0554
 278403862.57447 216984793.23045  21286836.4844                   21286833.7854
 300629272.70348 234321818.13346  19837211.3444                   19837208.8634
 318290594.00847 248438189.19145  22332740.7894                   22332739.6604
 349356969.18046 272466985.53543  23503719.1254                   23503719.9734
 338867200.77046 264214604.77743  24112757.1414                   24112756.2584
 257014694.68447 201137392.41045  21736630.2584                   21736627.7584
 332703762.85246 259409810.07844  22092310.2814                   22092309.1604
 11  7 25  0 13  0.0000000  0  8G02G17G04G27G10G20G28G09
 332503743.05947 259141214.81345  22228980.0704                   22228976.9734
 278327083.32847 216924965.25045  21272226.4694                   21272223.5474
 300505866.87148 234225657.75846  19813728.0234                   19813725.7464
 318172185.57847 248345922.85544  22310208.0864                   22310207.3524
 349154904.14146 272309532.37543  23465267.7664                   23465267.9844
 338793233.50445 264156967.91842  24098680.3914                   24098680.2344
 256957559.98047 201092871.82844  21725758.3364                   21725755.5204
 332568153.42247 259304140.42244  22066505.1644                   22066502.6334
 11  7 25  0 13 30.0000000  0  8G02G17G04G27G10G20G28G09
 332316066.37147 258994973.30545  22193266.2274                   22193263.3014
 278250533.32447 216865315.91045  21257658.5474                   21257656.2584
 300383166.76247 234130047.28946  19790378.7344                   19790376.3054
 318054402.47347 248254143.80144  22287795.1174                   22287793.3444
 348953012.07846 272152214.02743  23426848.4384                   23426848.7194
 338719895.10946 264099821.05143  24084726.7974                   24084724.3754
 256900929.16847 201048743.90245  21714981.8134                   21714978.8984
 332433311.68847 259199068.96944  22040845.1414                   22040843.7234
 11  7 25  0 14  0.0000000  0  8G02G17G04G27G10G20G28G09
 332128803.15247 258849053.98045  22157631.7504                   22157627.5944
 278174202.76247 216805837.55145  21243133.8284                   21243131.1804
 300261162.73848 234034979.22346  19767162.4064                   19767159.7814
 317937235.02347 248162844.47344  22265498.4694                   22265496.7584
 348751286.71946 271995025.55143  23388461.7344                   23388461.2194
 338647175.51646 264043156.44143  24070888.3204                   24070886.5394
 256844792.72347 201005001.19544  21704298.8914                   21704296.6644
 332299228.97347 259094588.96144  22015330.1174                   22015328.7934
 11  7 25  0 14 30.0000000  0  8G02G17G04G27G10G20G28G09
 333517384.72747 259931065.67645  22421869.4144                   22421866.4804
 279673517.34447 217974134.62545  21528443.5474                   21528441.3324
 301715282.21148 235168059.34446  20043872.5164                   20043869.7154
 319396110.75447 249299630.73444  22543113.8524                   22543112.2894
 350125161.54746 273065577.48843  23649902.1644                   23649901.0864
 340150500.01646 265214578.11743  24356960.0784                   24356959.9104
 258364576.47747 202189248.26244  21993504.7584                   21993501.5554
 333741334.06647 260218307.24644  22289753.4924                   22289752.2504
 11  7 25  0 15  0.0000000  0  8G02G17G04G27G10G20G28G09
 333330967.22347 259785805.35244  22386395.8284                   22386391.7974
 279597638.86747 217915008.53945  21514004.9454                   21514001.9184
 301594683.77348 235074086.55146  20020922.6024                   20020920.6914
 319280188.75447 249209301.89145  22521054.9844                   22521052.8284
 349923793.32046 272908667.28542  23611581.7974                   23611581.6054
 340079030.46546 265158887.53543  24343360.2584                   24343359.5314
 258309443.66847 202146287.61744  21983013.1954                   21983010.1764
 333608785.77347 260115022.87544  22264529.8444                   22264528.7814
 11  7 25  0 15 30.0000000  0  8G02G17G04G27G10G20G28G09
 333144974.95347 259640876.37145  22351002.2894                   22350998.4534
 279521986.61747 217856058.73445  21499608.9384                   21499605.4574
 301474788.35248 234980661.56346  19998107.1174                   19998105.3984
 319164890.14847 249119458.78944  22499114.4064                   22499112.5634
 349722608.95745 272751900.35242  23573296.9224                   23573297.5784
 340008185.50445 265103683.62942  24329879.4144                   24329878.1914
 258254813.28147 202103718.46545  21972617.0784                   21972614.3794
 333477005.96147 260012337.33244  22239453.7734                   22239451.9064
 11  7 25  0 16  0.0000000  0  8G02G17G04G27G10G20G28G09
 332959408.77047 259496279.43445  22315690.3834                   22315686.2194
 279446559.25047 217797284.14845  21485255.1094                   21485252.3444
 301355594.92648 234887783.57046  19975425.9774                   19975422.7504
 319050214.21547 249030100.91045  22477292.1254                   22477290.4574
 349521611.08245 272595278.73042  23535047.8914                   23535049.6214
 339937963.85246 265048965.44942  24316516.6564                   24316515.4414
 258200684.38347 202061540.07845  21962317.4064                   21962314.4224
 333345994.47347 259910250.49244  22214522.9534                   22214521.7934
 11  7 25  0 16 30.0000000  0  8G02G17G04G27G10G20G28G09
 332774260.58247 259352008.19545  22280457.2664                   22280453.9104
 279371347.41047 217738677.50845  21470943.1724                   21470939.7464
 301237093.59047 234795444.87946  19952876.1564                   19952873.4264
 318936151.25847 248941220.66844  22455586.3674                   22455584.4884
 349320793.16846 272438797.38742  23496833.5234                   23496834.2934
 339868355.33646 264994725.01243  24303270.6724                   24303269.2154
 258147047.63347 202019745.18444  21952110.3284                   21952107.1564
 333215742.27747 259808755.28944  22189736.6644                   22189734.7854
 11  7 25  0 17  0.0000000  0  8G02G17G04G27G10G20G28G09
 332589536.93047 259208067.73045  22245305.7504                   22245302.0864
 279296356.05547 217680242.66845  21456672.4454                   21456669.6254
 301119289.09047 234703649.16846  19930458.6954                   19930455.8284
 318822706.13347 248852821.86744  22433998.2974                   22433996.4454
 349120163.39846 272282462.67242  23458655.3834                   23458655.1094
 339799364.37946 264940965.80942  24290141.7584                   24290140.3324
 258093908.27347 201978337.85244  21941997.9694                   21941995.2624
 333086255.13747 259707856.21144  22165095.9614                   22165094.2774
 11  7 25  0 17 30.0000000  0  8G02G17G04G27G10G20G28G09
 332405241.99247 259064461.37145  22210235.6884                   22210232.1334
 279221587.24647 217621981.22745  21442444.9454                   21442441.8364
 301002184.11747 234612398.55146  19908174.3524                   19908171.8554
 318709881.84447 248764906.81644  22412529.0164                   22412527.1914
 348919728.37946 272126279.57843  23420514.0554                   23420513.8714
 339730993.03546 264887689.40243  24277130.7504                   24277130.1414
 258041269.18047 201937320.37944  21931981.1174                   21931978.0204
 332957536.55947 259607556.03144  22140601.9224                   22140600.3204
 11  7 25  0 18  0.0000000  0  7G02G17G04G27G10G28G09
 332221374.87147 258921188.37545  22175247.2194                   22175243.1764
 279147039.00447 217563891.66445  21428258.5554                   21428255.5634
 300885776.01648 234521690.95346  19886022.3364                   19886020.0864
 318597676.04747 248677473.73044  22391176.7814                   22391175.5984
 348719489.33646 271970249.22743  23382409.6024                   23382410.0784
 257989128.02347 201896690.86344  21922059.0004                   21922056.4774
 332829584.78147 259507853.34844  22116253.2974                   22116251.8634
 11  7 25  0 18 30.0000000  0  7G02G17G04G27G10G28G09
 332037936.77747 258778249.66445  22140339.4614                   22140335.9654
 279072711.01647 217505973.73845  21414114.1644                   21414111.3834
 300770064.23848 234431525.93046  19864002.7194                   19864000.4384
 318486088.20347 248590522.13744  22369942.5234                   22369940.8594
 348519449.07446 271814373.79343  23344343.9064                   23344343.5784
 257937484.41047 201856449.07044  21912232.1954                   21912229.0634
 332702399.88347 259408748.21944  22092051.3754                   22092049.6094
 11  7 25  0 19  0.0000000  0  7G02G17G04G27G10G28G09
 331854924.41447 258635642.71945  22105512.7114                   22105509.9534
 278998598.27747 217448223.53545  21400010.8984                   21400008.7384
 300655043.69148 234341899.53146  19842115.4454                   19842112.7114
 318375113.55947 248504048.36744  22348824.7584                   22348823.0124
 348319606.19946 271658652.19943  23306314.3984                   23306314.5314
 257886334.21547 201816591.73444  21902498.0704                   21902495.9844
 332575977.94547 259310237.62544  22067993.8054                   22067991.9844
 11  7 25  0 19 30.0000000  0  7G02G17G04G27G10G28G09
 331672352.23047 258493378.73845  22070771.1804                   22070767.4734
 278924714.23047 217390651.53545  21385951.6644                   21385949.0824
 300540727.39848 234252821.90646  19820361.8834                   19820359.5124
 318264765.34847 248418062.75044  22327826.0314                   22327824.5274
 348119977.39846 271503097.41443  23268325.5634                   23268325.7504
 257835690.38347 201777128.98044  21892860.7344                   21892858.1764
 332450332.69547 259212332.23844  22044084.3754                   22044082.3914
 11  7 25  0 20  0.0000000  0  7G02G17G04G27G10G28G09
 331490230.71947 258351465.95745  22036114.4534                   22036111.3524
 278851067.21147 217333264.23045  21371936.3754                   21371934.0234
 300427123.77048 234164299.59846  19798743.3204                   19798741.1414
 318155052.03147 248332571.84844  22306948.1484                   22306947.4734
 347920574.88746 271347718.93043  23230381.0634                   23230380.8484
 257785561.77347 201738067.68444  21883321.3364                   21883319.5664
 332325473.12547 259115039.08244  22020323.5314                   22020322.3284
 11  7 25  0 20 30.0000000  0  7G02G17G04G27G10G28G09
 331308560.99247 258209905.19945  22001544.0944                   22001540.0594
 278777656.49247 217276061.05545  21357967.3284                   21357964.4534
 300314231.76248 234076331.81646  19777261.1094                   19777258.4574
 318045972.80947 248247575.02744  22286191.8914                   22286189.6214
 347721401.39546 271192518.91843  23192480.6254                   23192479.2894
 257735947.82047 201699407.43444  21873880.7194                   21873877.9734
 332201399.27047 259018358.12544  21996713.8674                   21996711.9104
 11  7 25  0 21  0.0000000  0  7G02G17G04G27G10G28G09
 331127338.06347 258068692.59845  21967058.4064                   21967054.5704
 278704476.18047 217219037.42245  21344041.4224                   21344039.1214
 300202044.82048 233988913.41446  19755913.1644                   19755910.1334
 317937521.71547 248163067.67644  22265553.5864                   22265552.2114
 347522454.36746 271037495.38343  23154620.3134                   23154620.9264
 257686842.27347 201661143.33244  21864536.3594                   21864533.2854
 332078105.32847 258922284.91044  21973251.6804                   21973249.9224
 11  7 25  0 21 30.0000000  0  7G02G17G04G27G10G28G09
 330946554.50847 257927822.37945  21932656.2894                   21932651.9844
 278631517.49247 217162186.49245  21330157.9384                   21330155.0744
 300090554.21947 233902037.62546  19734696.8674                   19734694.1334
 317829690.16047 248079043.07844  22245034.2274                   22245032.0004
 347323728.80145 270882644.38743  23116804.3754                   23116804.6804
 257638237.01647 201623269.07444  21855287.2194                   21855284.1524
 331955583.44547 258826813.31344  21949936.6804                   21949934.5124
 11  7 25  0 22  0.0000000  0  7G02G17G04G27G10G28G09
 332341649.75047 259014909.64845  22198133.5864                   22198130.8444
 280134214.57847 218333119.27745  21616111.5944                   21616109.4924
 301555194.72347 235043315.95746  20013408.4304                   20013405.8364
 319297912.96947 249223112.78944  22524427.2034                   22524426.2504
 348700666.16045 271955582.68442  23378825.6724                   23378826.5554
 259165565.12547 202813394.82844  22145927.9144                   22145924.8094
 333409269.41447 259959555.59844  22226563.5554                   22226562.0274
 11  7 25  0 22 30.0000000  0  7G02G17G04G27G10G28G09
 332161763.71147 258874738.78545  22163902.5084                   22163898.2114
 280061713.26647 218276624.74245  21602315.2274                   21602312.4924
 301445109.04747 234957534.92246  19992459.9224                   19992457.4614
 319191333.50447 249140063.82844  22504146.8364                   22504144.3404
 348502407.17246 271801095.24242  23341100.2034                   23341098.9414
 259117973.87147 202776310.70744  22136870.8594                   22136869.0704
 333288306.06647 259865298.42644  22203545.2584                   22203543.7074
 11  7 25  0 23  0.0000000  0  7G02G17G04G27G10G28G09
 331982322.33247 258734914.39545  22129756.1484                   22129751.9304
 279989434.68447 218220303.77345  21588561.3204                   21588557.8594
 301335719.07447 234872295.98446  19971643.4454                   19971640.8094
 319085373.35547 249057497.44944  22483982.9454                   22483980.8634
 348304380.55146 271646788.89843  23303416.5944                   23303415.2074
 259070883.34847 202739616.75044  22127910.8444                   22127907.1094
 333168116.33647 259771644.07844  22180673.8834                   22180671.8794
 11  7 25  0 23 30.0000000  0  7G02G17G04G27G10G28G09
 331803323.48047 258595434.84045  22095693.5474                   22095690.0314
 279917375.35547 218164153.64845  21574848.6564                   21574845.7304
 301227020.91048 234787596.13746  19950958.9454                   19950956.2154
 318980029.23847 248975411.08644  22463936.4384                   22463934.9924
 348106586.57846 271492663.84043  23265777.9774                   23265776.9614
 259024290.26247 202703310.42244  22119044.3444                   22119041.4924
 333048697.27347 259678590.27044  22157948.7114                   22157947.6134
 11  7 25  0 24  0.0000000  0  7G02G17G04G27G10G28G09
 331624770.49647 258456302.69145  22061716.0944                   22061711.7464
 279845536.61747 218108175.41445  21561178.0554                   21561175.2384
 301119015.78548 234703436.31646  19930406.2034                   19930403.4384
 318875302.51647 248893805.81644  22444007.3754                   22444006.4344
 347909030.15246 271338723.86743  23228183.2734                   23228183.5234
 258978196.22347 202667392.94144  22110273.4534                   22110270.9264
 332930050.76247 259586138.42244  22135371.8444                   22135370.3594
 11  7 25  0 24 30.0000000  0  7G02G17G04G27G10G28G09
 331446662.21947 258317517.06645  22027823.0394                   22027819.8444
 279773916.27347 218052367.35545  21547549.0084                   21547546.6054
 301011700.66847 234619814.16046  19909985.2194                   19909982.6174
 318771190.50847 248812679.54344  22424195.6954                   22424194.0394
 347711712.47246 271184969.97743  23190635.0314                   23190635.5204
 258932598.83247 202631862.47744  22101596.1094                   22101593.5124
 332812174.46547 259494286.73844  22112940.5634                   22112938.6484
 11  7 25  0 25  0.0000000  0  7G02G17G04G27G10G28G09
 331268995.90247 258179075.84045  21994014.3594                   21994010.7344
 279702510.39147 217996726.40245  21533961.1954                   21533958.4144
 300905071.16048 234536726.23446  19889693.9224                   19889691.7934
 318667688.95747 248732028.94944  22404500.5944                   22404498.6214
 347514632.80146 271031401.46143  23153131.9224                   23153131.8914
 258887494.21947 202596716.00044  22093013.0944                   22093010.4804
 332695064.71147 259403032.35244  22090655.3284                   22090653.2424
 11  7 25  0 25 30.0000000  0  7G02G17G04G27G10G28G09
 331091778.54347 258040984.44145  21960291.4774                   21960286.9304
 279631324.67247 217941257.00045  21520414.8444                   21520412.4144
 300799132.30147 234454176.48446  19869534.1254                   19869532.0474
 318564803.20747 248651858.19944  22384921.9454                   22384919.7814
 347317800.36746 270878025.59443  23115676.4384                   23115675.3834
 258842887.38347 202561957.41844  22084523.8674                   22084521.5044
 332578727.36347 259312379.84444  22068517.4694                   22068514.9414
 11  7 25  0 26  0.0000000  0  7G02G17G04G27G10G28G09
 330915001.92647 257903236.48845  21926651.1884                   21926647.4804
 279560349.63747 217885951.78545  21506909.1174                   21506905.8364
 300693873.91047 234372156.97346  19849504.2504                   19849501.9804
 318462523.60247 248572159.74644  22365458.3834                   22365456.8954
 347121209.41046 270724837.93043  23078266.2114                   23078264.9144
 258798769.22747 202527579.58644  22076129.3674                   22076126.3914
 332463153.20747 259222322.04344  22046524.0634                   22046522.5744
 11  7 25  0 26 30.0000000  0  7G02G17G04G27G10G28G09
 330738668.94547 257765834.21145  21893096.2114                   21893092.5864
 279489586.61747 217830811.76245  21493442.9304                   21493439.9734
 300589296.63347 234290668.19946  19829603.8984                   19829601.6484
 318360850.98047 248492934.30144  22346110.8444                   22346109.1054
 346924864.45746 270571841.95743  23040902.6174                   23040902.0744
 258755140.80947 202493583.37544  22067826.7584                   22067824.3134
 332348343.49247 259132859.89844  22024675.7344                   22024675.1134
 11  7 25  0 27  0.0000000  0  7G02G17G04G27G10G28G09
 330562779.62147 257628777.64545  21859625.7114                   21859621.4184
 279419035.06647 217775836.51245  21480017.8364                   21480014.6024
 300485398.66447 234209708.74246  19809832.7424                   19809830.5124
 318259783.68047 248414180.55144  22326878.2814                   22326876.5004
 346728768.00846 270419039.64843  23003586.7344                   23003586.6724
 258712000.59847 202459967.58644  22059617.6094                   22059615.0274
 332234297.07847 259043992.54344  22002973.8984                   22002972.6214
 11  7 25  0 27 30.0000000  0  7G02G17G04G27G10G28G09
 330387331.36747 257492064.77745  21826239.3524                   21826235.3914
 279348690.27747 217721022.39845  21466631.9144                   21466628.9184
 300382175.44947 234129275.09446  19790190.5164                   19790187.5514
 318159317.28947 248335895.00844  22307760.5704                   22307758.6484
 346532919.72346 270266430.68443  22966317.9534                   22966317.5514
 258669344.53947 202426729.04744  22051500.4144                   22051497.7854
 332121009.84447 258955716.76244  21981415.8754                   21981415.0434
 11  7 25  0 28  0.0000000  0  7G02G17G04G27G10G28G09
 330212330.66047 257355700.64145  21792937.3364                   21792933.8914
 279278558.07047 217666373.92645  21453285.7504                   21453283.5474
 300279631.71547 234049370.89546  19770676.9384                   19770674.0124
 318059457.07447 248258081.81344  22288757.5394                   22288756.4184
 346337328.42646 270114021.97743  22929098.2894                   22929097.2234
 258627178.11347 202393872.04344  22043476.3054                   22043473.9924
 332008487.62147 258868037.09044  21960003.7034                   21960002.5704
 11  7 25  0 28 30.0000000  0  7G02G17G04G27G10G28G09
 330037778.55947 257219686.07845  21759721.1334                   21759717.0274
 279208638.09047 217611890.81645  21439980.3134                   21439977.8164
 300177766.44947 233969995.37146  19751292.4454                   19751289.8554
 317960201.89147 248180740.10944  22269869.9144                   22269868.1604
 346141997.00846 269961815.76243  22891927.8754                   22891927.3794
 258585500.69547 202361396.09044  22035545.6804                   22035543.1764
 331896729.83247 258780953.07444  21938737.5864                   21938735.3634
 11  7 25  0 29  0.0000000  0  7G02G17G04G27G10G28G09
 329863669.87947 257084017.00845  21726589.4224                   21726585.3714
 279138924.15247 217557568.24645  21426714.1254                   21426711.5434
 300076572.45747 233891142.92646  19732036.3594                   19732033.7274
 317861545.07846 248103864.67244  22251096.7034                   22251095.0474
 345946922.75046 269809809.90643  22854806.2344                   22854805.5704
 258544305.58647 202329295.97344  22027706.0554                   22027704.1484
 331785730.12947 258694459.78144  21917615.1254                   21917613.4184
 11  7 25  0 29 30.0000000  0  7G02G17G04G27G10G28G09
 331265427.73847 258176295.92245  21993334.8054                   21993331.4494
 280644834.74647 218731005.05545  21713279.8914                   21713276.6724
 301551468.72747 235040412.76646  20012699.0394                   20012697.1174
 319338905.75047 249255054.79344  22532228.6414                   22532227.0124
 347327531.75446 270885609.23043  23117527.2974                   23117527.0984
 260079010.41047 203525169.82044  22319751.1094                   22319748.3554
 333250908.18047 259836156.95744  22196428.8364                   22196427.0474
 11  7 25  0 30  0.0000000  0  7G02G17G04G27G10G28G09
 331092201.28947 258041314.32445  21960370.9454                   21960367.1844
 280575524.73447 218676997.24645  21700090.7274                   21700087.4924
 301451606.54347 234962598.09846  19993695.9534                   19993693.2074
 319241435.64847 249179104.06644  22513680.4924                   22513678.6994
 347132973.84446 270734005.74243  23080503.0864                   23080503.1094
 260038770.93047 203493814.34844  22312093.9534                   22312090.9454
 333141415.44947 259750837.94144  22175593.4924                   22175591.5124
 11  7 25  0 30 30.0000000  0  7G02G17G04G27G10G28G09
 330919425.38347 257906683.80945  21927492.3754                   21927489.4964
 280506424.22747 218623152.68845  21686940.7664                   21686937.9964
 301352416.69947 234885307.32046  19974821.0164                   19974818.3754
 319144565.83646 249103621.09044  22495247.0864                   22495245.3324
 346938687.05546 270582613.51643  23043532.7974                   23043531.5314
 259999016.78547 203462837.05544  22304529.2504                   22304525.9384
 333032683.85547 259666112.00044  22154902.5474                   22154900.4454
 11  7 25  0 31  0.0000000  0  7G02G17G04G27G10G28G09
 330747092.94147 257772398.84845  21894699.1334                   21894695.2974
 280437525.35947 218569465.23845  21673829.6804                   21673827.5274
 301253890.17247 234808533.42246  19956072.0394                   19956069.2384
 319048287.56347 249028599.08244  22476926.3594                   22476923.7974
 346744666.75047 270431428.93044  23006612.2194                   23006610.7774
 259959739.09047 203432231.03544  22297054.7424                   22297051.9104
 332924704.91047 259581972.57044  22134354.1334                   22134353.1994
 11  7 25  0 31 30.0000000  0  7G02G17G04G27G10G28G09
 330575198.49647 257638455.18845  21861988.5864                   21861984.7854
 280368821.82847 218515930.00845  21660755.8914                   21660753.3014
 301156019.82047 234732270.81646  19937447.7664                   19937445.1604
 318952593.81347 248954032.52344  22458715.9694                   22458713.8914
 346550910.01247 270280449.70344  22969740.6724                   22969739.4774
 259920931.38347 203401991.22344  22289669.7344                   22289667.0784
 332817471.96947 259498414.44144  22113948.9384                   22113947.1214
 11  7 25  0 32  0.0000000  0  7G02G17G04G27G10G28G09
 330403744.41047 257504854.64845  21829361.8674                   21829357.6334
 280300314.51247 218462547.66845  21647719.5164                   21647716.7154
 301058805.53947 234656519.44146  19918948.0944                   19918946.1954
 318857484.56647 248879921.46144  22440617.2504                   22440615.7034
 346357421.08246 270129679.18844  22932920.7504                   22932920.0084
 259882594.15647 203372118.02344  22282374.2734                   22282372.2894
 332710985.47747 259415437.96144  22093685.4614                   22093683.0314
 11  7 25  0 32 30.0000000  0  8G02G17G04G27G10G12G28G09
 330232733.82447 257371599.70345  21796820.0944                   21796815.6564
 280232005.24247 218409319.64545  21634721.0314                   21634718.3754
 300962248.01647 234581279.82446  19900574.3754                   19900571.8364
 318762961.12946 248806266.84444  22422629.5004                   22422628.6604
 346164205.10246 269979121.35544  22896153.1884                   22896151.9614
 362288800.30956 282343494.25453  24375286.6254                   24375284.3524
 259844728.56647 203342612.33644  22275168.7034                   22275166.3914
 332605247.05547 259333044.38744  22073564.2734                   22073561.7704
 11  7 25  0 33  0.0000000  0  8G02G17G04G27G10G12G28G09
 330062160.28947 257238685.31345  21764360.1414                   21764356.6844
 280163887.06647 218356240.53945  21621758.0234                   21621755.6484
 300866339.11747 234506545.63346  19882323.3754                   19882321.1484
 318669015.66047 248733062.60244  22404752.5704                   22404751.2344
 345971258.45347 269828773.36344  22859437.3914                   22859435.8484
 362088810.55946 282187658.19543  24337228.7664                   24337227.2504
 259807327.11347 203313468.32844  22268051.7034                   22268048.9534
 332500249.38347 259251228.01644  22053583.7814                   22053581.7464
 11  7 25  0 33 30.0000000  0  8G02G17G04G27G10G12G28G09
 329892022.64547 257106110.59445  21731983.8914                   21731980.5744
 280095957.66447 218303308.52745  21608832.1954                   21608829.2544
 300771075.79747 234432314.49646  19864195.8134                   19864193.0084
 318575645.21147 248660306.41844  22386985.3984                   22386983.7544
 345778582.41446 269678636.28943  22822770.9694                   22822770.2734
 361888926.49246 282031904.46143  24299192.4924                   24299190.5514
 259770387.54347 203284684.21944  22261022.9064                   22261019.9924
 332395989.64847 259169986.66444  22033743.2274                   22033741.7234
 11  7 25  0 34  0.0000000  0  8G02G17G04G27G10G12G28G09
 329722317.99247 256973873.25045  21699690.5164                   21699686.8674
 280028212.74247 218250520.26645  21595940.5474                   21595937.8714
 300676452.75047 234358582.25446  19846189.0004                   19846186.5824
 318482844.86347 248587994.46144  22369326.2114                   22369323.9804
 345586176.23446 269528709.51643  22786157.1174                   22786156.7814
 361689146.13346 281876231.50443  24261175.5084                   24261174.4144
 259733904.96547 203256256.18444  22254080.2814                   22254077.5784
 332292463.05947 259089316.61744  22014042.6644                   22014041.0274
 11  7 25  0 34 30.0000000  0  8G02G17G04G27G10G12G28G09
 329553046.98847 256841973.83245  21667479.3364                   21667475.8634
 279960652.50447 218197875.91045  21583084.6484                   21583081.4064
 300582468.71147 234285347.94946  19828304.8594                   19828301.9184
 318390613.46147 248516125.84844  22351774.5864                   22351772.8914
 345394043.14146 269378995.48043  22749595.8524                   22749595.0234
 361489470.69546 281720640.39143  24223177.8364                   24223177.4024
 259697878.81647 203228183.82844  22247224.5864                   22247221.7664
 332189669.09047 259009217.42644  21994481.9924                   21994480.2734
 11  7 25  0 35  0.0000000  0  8G02G17G04G27G10G12G28G09
 329384201.93047 256710406.30545  21635349.0314                   21635345.1134
 279893268.58647 218145368.93445  21570261.3984                   21570258.5594
 300489113.93447 234212603.96946  19810539.8364                   19810536.8914
 318298941.65646 248444693.27744  22334329.8204                   22334328.3014
 345202177.98446 269229490.24643  22713085.2664                   22713084.4264
 361289893.68446 281565125.87143  24185200.1254                   24185198.7034
 259662299.83247 203200459.93444  22240453.6884                   22240451.9694
 332087598.34847 258929681.75444  21975058.1024                   21975056.5234
 11  7 25  0 35 30.0000000  0  8G02G17G04G27G10G12G28G09
 329215783.06347 256579170.87945  21603299.7894                   21603295.8244
 279826059.78547 218092998.43445  21557472.1564                   21557469.3204
 300396386.40647 234140348.75846  19792894.3674                   19792891.7464
 318207827.63747 248373695.32844  22316991.0314                   22316990.3134
 345010583.37546 269080195.81343  22676625.8984                   22676625.3794
 361090416.10546 281409688.80943  24147240.6254                   24147239.0554
 259627166.59047 203173083.36344  22233768.2114                   22233766.7384
 331986249.45747 258850708.59044  21955771.8284                   21955770.5704
 11  7 25  0 36  0.0000000  0  8G02G17G04G27G10G12G28G09
 329047798.53547 256448273.90245  21571333.6484                   21571329.8834
 279759033.27047 218040769.96145  21544717.2974                   21544714.8794
 300304292.24247 234068587.07846  19775369.1174                   19775366.5274
 318117277.85947 248303137.05144  22299760.0784                   22299758.7704
 344819269.66846 268931120.28543  22640219.8674                   22640219.2154
 360891047.33646 281254336.55143  24109301.9694                   24109300.9144
 259592485.73847 203146059.28944  22227168.8754                   22227166.8714
 331885629.09447 258772303.11744  21936625.3834                   21936623.2344
 11  7 25  0 36 30.0000000  0  8G02G17G04G27G10G12G28G09
 328880244.21547 256317712.15245  21539449.0234                   21539445.1764
 279692184.34847 217988679.88345  21531996.6484                   21531993.8444
 300212825.37947 233997314.19946  19757964.2974                   19757961.1334
 318027286.42247 248233013.85244  22282636.5554                   22282633.8054
 344628235.56646 268782262.59844  22603867.4384                   22603866.2464
 360691784.24646 281099066.62543  24071382.9924                   24071381.6644
 259558251.91447 203119383.52744  22220654.9384                   22220651.7194
 331785731.52347 258694460.84044  21917615.8134                   21917613.4884
 11  7 25  0 37  0.0000000  0  8G02G17G04G27G10G12G28G09
 330288545.42247 257415089.77745  21807440.1884                   21807436.0904
 281200933.93447 219164328.89545  21819102.2584                   21819099.8204
 301697406.24247 235154130.46546  20040469.9614                   20040467.5594
 319513274.11347 249390926.31344  22565409.4924                   22565408.6644
 346012909.43046 269861229.32444  22867362.3674                   22867361.2154
 362068053.89146 282171484.59843  24333278.6484                   24333276.8014
 261099884.51647 204320655.64844  22514017.8204                   22514014.9184
 333261978.42647 259844783.09844  22198534.9774                   22198533.7854
 11  7 25  0 37 30.0000000  0  8G02G17G04G27G10G12G28G09
 330121855.05947 257285201.25045  21775719.3444                   21775715.3094
 281134440.90247 219112516.13745  21806448.8914                   21806446.3204
 301607190.71147 235083832.64546  20023302.8674                   20023300.2854
 319424396.77747 249321671.24244  22548497.1954                   22548495.9384
 345822445.12146 269712815.62944  22831118.0784                   22831116.6844
 361869008.22346 282016384.11743  24295401.3134                   24295400.1564
 261066543.59447 204294675.65644  22507673.8444                   22507670.5514
 333163525.00847 259768066.13744  22179800.6024                   22179799.2034
 11  7 25  0 38  0.0000000  0  8G02G17G04G27G10G12G28G09
 329955602.44147 257155653.81345  21744082.7974                   21744078.9264
 281068130.28947 219060845.52045  21793830.1564                   21793827.4224
 301517603.36347 235014024.32846  20006254.8284                   20006252.1804
 319336079.42647 249252852.49644  22531691.2974                   22531689.3164
 345632275.01247 269564631.16044  22794930.3754                   22794928.7424
 361670078.65246 281861374.10543  24257546.7664                   24257544.4024
 261033652.44947 204269046.14844  22501413.7664                   22501411.7384
 333065797.01647 259691914.45744  22161203.8134                   22161201.6174
 11  7 25  0 38 30.0000000  0  8G02G17G04G27G10G12G28G09
 329789787.48847 257026447.42245  21712529.3364                   21712525.1214
 281002001.43847 219009316.53145  21781246.1414                   21781244.0664
 301428641.90647 234944703.71146  19989325.8834                   19989323.5084
 319248320.14847 249184468.62144  22514990.5394                   22514989.0314
 345442401.59047 269416677.88743  22758799.1484                   22758796.6214
 361471266.12146 281706455.32443  24219714.0704                   24219712.3054
 261001209.68847 204243766.03544  22495240.1954                   22495238.1334
 332968792.63747 259616326.62944  22142744.3834                   22142742.7814
 11  7 25  0 39  0.0000000  0  8G02G17G04G27G10G12G28G09
 329624403.52747 256897576.85245  21681057.8284                   21681053.6214
 280936046.91447 218957923.37145  21768695.7424                   21768693.1454
 301340297.65247 234875864.03546  19972514.5084                   19972511.9804
 319161110.50047 249116513.02744  22498395.3984                   22498394.2074
 345252820.95746 269268952.78143  22722722.0704                   22722720.6724
 361272565.12546 281551623.47743  24181902.7194                   24181901.0004
 260969207.02347 204218828.85544  22489150.6254                   22489147.6914
 332872503.80947 259541296.37144  22124421.2664                   22124419.0864
 11  7 25  0 39 30.0000000  0  8G02G17G04G27G10G12G28G09
 329459451.84847 256769043.12945  21649668.1884                   21649664.6024
 280870266.96947 218906666.27745  21756178.7664                   21756175.7034
 301252569.94547 234807504.78546  19955820.5784                   19955817.7154
 319074449.93447 249048985.29744  22481904.1254                   22481903.2034
 345063537.21946 269121458.98843  22686702.8914                   22686701.4694
 361073978.20346 281396880.53943  24144111.5704                   24144110.5514
 260937644.45747 204194234.59444  22483144.0084                   22483142.1024
 332776930.09047 259466823.37544  22106234.5634                   22106231.7854
 11  7 25  0 40  0.0000000  0  8G02G17G04G27G10G12G28G09
 329294934.34447 256640847.73445  21618361.5784                   21618357.3794
 280804662.66447 218855546.03145  21743694.3674                   21743691.3984
 301165458.25447 234739625.54346  19939243.6094                   19939240.8984
 318988338.16847 248981885.19944  22465517.6564                   22465516.5394
 344874554.16447 268974199.52044  22650740.1884                   22650739.2344
 360875508.11346 281242228.65243  24106343.8984                   24106343.1524
 260906521.80147 204169983.14144  22477221.1724                   22477219.4494
 332682071.37447 259392907.49344  22088183.2814                   22088180.8954
 11  7 25  0 40 30.0000000  0  8G02G17G04G27G10G12G28G09
 329130853.71947 256512992.75045  21587138.1334                   21587133.9924
 280739236.21947 218804564.36745  21731244.1954                   21731240.5434
 301078963.20347 234672226.80546  19922784.5234                   19922781.8404
 318902776.10947 248915213.44545  22449236.0084                   22449234.2464
 344685877.68847 268827178.93444  22614836.7034                   22614835.6024
 360677158.70746 281087670.73843  24068600.1644                   24068598.1724
 260875840.87547 204146075.89144  22471383.6954                   22471381.5124
 332587928.70347 259319549.58244  22070268.3754                   22070266.4264
 11  7 25  0 41  0.0000000  0  8G02G17G04G27G10G12G28G09
 328967206.63347 256385475.57445  21555996.7814                   21555992.9654
 280673983.48847 218753718.08645  21718826.5944                   21718823.6994
 300993079.31648 234605304.30146  19906441.4144                   19906438.9304
 318817758.55147 248848965.96944  22433058.0554                   22433056.5514
 344497506.91046 268680396.57444  22578990.6174                   22578989.5944
 360478928.08646 280933205.43043  24030877.5944                   24030876.4964
 260845596.49247 204122508.80144  22465628.6954                   22465627.3164
 332494496.89147 259246745.56644  22052488.6024                   22052486.4964
 11  7 25  0 41 30.0000000  0  8G02G17G04G27G10G12G28G09
 328803998.01647 256258300.07045  21524939.7424                   21524935.7194
 280608908.59047 218703010.36345  21706443.6954                   21706440.7234
 300907809.14847 234538860.01246  19890214.5004                   19890212.7114
 318733288.36347 248783145.01244  22416983.7274                   22416982.4964
 344309448.97346 268533857.97344  22543204.3984                   22543202.8404
 360280822.10946 280778837.20343  23993179.2584                   23993177.4964
 260815791.82447 204099284.33244  22459956.7894                   22459954.2384
 332401779.29747 259174498.11344  22034844.5864                   22034843.1994
 11  7 25  0 42  0.0000000  0  8G02G17G04G27G10G12G28G09
 328641232.29347 256131469.68445  21493965.6484                   21493961.7274
 280544015.34047 218652444.18445  21694094.4384                   21694092.3164
 300823154.63348 234472895.46146  19874105.7974                   19874103.2854
 318649368.03547 248717752.52344  22401013.5004                   22401012.4414
 344121710.93447 268387568.65644  22507478.7344                   22507477.6024
 360082846.11346 280624570.30143  23955504.3754                   23955503.7344
 260786429.82847 204076404.79344  22454369.8364                   22454367.5234
 332309778.50847 259102809.21544  22017337.4924                   22017335.7734
 11  7 25  0 42 30.0000000  0  8G02G17G04G27G10G12G28G09
 328478900.08247 256004977.07045  21463075.1174                   21463071.3634
 280479294.11347 218602012.05145  21681778.1094                   21681775.9414
 300739104.94148 234407402.20346  19858111.8594                   19858109.1054
 318565986.41847 248652779.78544  22385147.1564                   22385145.9574
 343934286.51246 268241523.72344  22471812.1094                   22471811.7584
 359884992.52746 280470398.77343  23917855.2034                   23917853.7344
 260757499.98047 204053861.99644  22448864.4774                   22448863.0554
 332218483.40247 259031670.18044  21999964.8284                   21999963.4224
 11  7 25  0 43  0.0000000  0  8G02G17G04G27G10G12G28G09
 328317004.66447 255878824.82445  21432267.4774                   21432264.0004
 280414747.09847 218551715.67245  21669495.6724                   21669493.4494
 300655660.39148 234342380.48446  19842232.6804                   19842229.9224
 318483144.55947 248588227.64544  22369382.3444                   22369381.6134
 343747180.96146 268095727.27344  22436208.3284                   22436208.2544
 359687265.51246 280316325.82843  23880229.3444                   23880227.2894
 260729003.82847 204031657.15644  22443441.9064                   22443439.7974
 332127895.07447 258961081.88744  21982726.7814                   21982724.5824
 11  7 25  0 43 30.0000000  0  8G02G17G04G27G10G12G28G09
 328155551.41847 255753017.14145  21401543.8444                   21401539.8914
 280350379.22347 218501558.88345  21657246.9844                   21657244.1254
 300572824.74248 234277833.22346  19826469.3364                   19826466.9414
 318400846.09447 248524098.95744  22353721.8284                   22353720.4304
 343560402.57046 267950185.74644  22400664.9924                   22400664.0124
 359489671.80546 280162356.80143  23842627.6724                   23842626.1804
 260700945.05946 204009793.16444  22438102.0084                   22438099.7934
 332038017.39147 258891047.32844  21965622.8984                   21965621.2154
 11  7 25  0 44  0.0000000  0  8G02G17G04G27G10G12G28G09
 327994530.43047 255627546.27345  21370902.7584                   21370898.1524
 280286180.03147 218451533.52745  21645029.6724                   21645027.5824
 300490585.82048 234213750.95346  19810819.8834                   19810817.3714
 318319079.30947 248460384.52044  22338162.2194                   22338160.8444
 343373944.50047 267804893.80944  22365184.4694                   22365182.1174
 359292203.15646 280008485.16843  23805051.3594                   23805048.8754
 260673312.75046 203988261.42644  22432844.0704                   22432842.3444
 331948838.73847 258821557.46544  21948653.8134                   21948651.5164
 11  7 25  0 44 30.0000000  0  8G02G17G04G27G10G12G28G09
 329409368.82047 256730017.77045  21640136.7584                   21640133.3524
 281797572.75047 219629242.12145  21932638.4144                   21932635.8054
 301984365.74647 235377735.30546  20095076.5474                   20095074.2544
 319813266.44547 249624686.12944  22622496.7344                   22622495.5434
 344763237.03547 268887459.48444  22629556.8444                   22629555.3554
 360670289.24646 281082318.52343  24067292.3134                   24067289.2544
 262221527.55146 205194662.52343  22727459.3134                   22727457.0474
 333435781.66847 259980214.28544  22231609.4694                   22231607.6684
 11  7 25  0 45  0.0000000  0  8G02G17G04G27G10G12G28G09
 329249218.70747 256605225.50045  21609661.9224                   21609658.3054
 281733715.17647 219579482.96145  21920486.9384                   21920483.7584
 301903319.65648 235314582.51246  20079654.1414                   20079651.5744
 319732563.00847 249561800.28944  22607139.7814                   22607138.4144
 344577433.17647 268742677.33244  22594199.9774                   22594198.6254
 360473080.46146 280928649.40643  24029765.0704                   24029762.6954
 262194749.05947 205173796.12144  22722364.2274                   22722361.5204
 333348001.18047 259911813.90244  22214905.2504                   22214903.2854
 11  7 25  0 45 30.0000000  0  8G02G17G04G27G10G12G28G09
 329089503.88347 256480772.42245  21579269.5394                   21579265.0274
 281670027.71947 219529856.35945  21908367.9924                   21908365.0984
 301822866.58248 235251891.80946  20064344.2974                   20064342.1604
 319652388.18847 249499326.35944  22591883.2114                   22591881.4304
 344391960.71947 268598153.41844  22558905.3204                   22558903.5594
 360276003.69946 280775083.16443  23992262.0394                   23992259.6844
 262168395.09447 205153260.47343  22717349.2424                   22717346.9844
 333260916.65247 259843955.82844  22198332.9694                   22198331.5824
 11  7 25  0 46  0.0000000  0  8G02G17G04G27G10G12G28G09
 328930228.34847 256356661.64545  21548959.9774                   21548955.9494
 281606513.81347 219480364.98845  21896280.7734                   21896278.8054
 301743008.15648 235189664.46946  20049147.9454                   20049145.4924
 319572743.91047 249437265.81644  22576727.1334                   22576725.8914
 344206825.80547 268453892.52344  22523674.8674                   22523673.6884
 360079063.85246 280621623.59443  23954785.5944                   23954783.8164
 262142468.05147 205133057.50044  22712414.9144                   22712413.3554
 333174530.28947 259776641.78544  22181894.7344                   22181893.1254
 11  7 25  0 46 30.0000000  0  8G02G17G04G27G10G12G28G09
 328771389.97747 256232891.51245  21518734.0784                   21518730.1684
 281543170.46547 219431006.53545  21884227.6254                   21884224.7624
 301663740.00448 235127897.08246  20034063.6954                   20034061.3054
 319493625.97747 249375615.40644  22561672.0084                   22561670.1884
 344022029.43047 268309895.40644  22488509.7194                   22488508.2074
 359882260.44946 280468270.34043  23917334.8754                   23917333.0204
 262116964.16047 205113184.30943  22707562.1954                   22707559.4884
 333088838.16847 259709868.69544  22165588.3204                   22165585.8404
 11  7 25  0 47  0.0000000  0  8G02G17G04G27G10G12G28G09
 328612990.48047 256109463.36745  21488591.5234                   21488587.7894
 281479999.08647 219381782.09445  21872205.9774                   21872203.5904
 301585061.62948 235066589.26246  20019091.3674                   20019089.3984
 319415034.21147 249314375.02344  22546715.4614                   22546714.7194
 343837575.83647 268166165.41844  22453409.2274                   22453408.0204
 359685596.69946 280315025.94943  23879910.7424                   23879909.2854
 262091883.80947 205093641.09843  22702789.7424                   22702786.9964
 333003840.07047 259643636.39544  22149413.3984                   22149411.8244
 11  7 25  0 47 30.0000000  0  8G02G17G04G27G10G12G28G09
 328455025.85947 255986374.08245  21458531.3674                   21458527.9104
 281416995.32047 219332688.23045  21860217.6094                   21860215.3554
 301506966.95748 235005736.28146  20004231.1024                   20004228.3324
 319336962.71547 249253540.01644  22531859.6884                   22531858.3634
 343653463.58247 268022701.33644  22418372.9534                   22418372.2934
 359489070.11746 280161888.45743  23842513.3134                   23842512.2274
 262067221.12147 205074423.37943  22698096.1564                   22698094.4304
 332919529.68847 259577939.98044  22133369.7974                   22133367.7034
 11  7 25  0 48  0.0000000  0  8G02G17G04G27G10G12G28G09
 328297500.15647 255863626.80545  21428556.1174                   21428551.5044
 281354162.84447 219283727.84845  21848260.8204                   21848258.2194
 301429457.69548 234945339.46146  19989480.9064                   19989478.9804
 319259413.64547 249193112.09444  22517102.3054                   22517101.3444
 343469699.77747 267879508.85544  22383404.1484                   22383403.3054
 359292686.30546 280008862.18043  23805142.2894                   23805141.0124
 262042978.76646 205055533.15243  22693482.8134                   22693480.7584
 332835909.43447 259512781.32444  22117457.5944                   22117455.0314
 11  7 25  0 48 30.0000000  0  8G02G17G04G27G10G12G28G09
 328140415.01247 255741222.83245  21398663.4304                   21398659.5904
 281291502.91047 219234901.91045  21836336.6254                   21836333.8794
 301352533.36748 234885398.43446  19974843.0474                   19974840.9104
 319182386.52747 249133090.92244  22502444.3914                   22502443.3954
 343286288.90247 267736591.33644  22348502.4454                   22348501.5084
 359096448.38546 279855949.56443  23767799.8134                   23767797.9734
 262019157.07846 205036970.71543  22688949.2894                   22688948.2584
 332752978.92247 259448160.15644  22101676.6954                   22101674.5984
 11  7 25  0 49  0.0000000  0  8G02G17G04G27G10G12G28G09
 327983767.35247 255619159.74245  21368854.1954                   21368850.3204
 281229011.83247 219186207.56645  21824445.2814                   21824441.7074
 301276188.45748 234825908.89846  19960314.5944                   19960312.6884
 319105876.28547 249073472.47344  22487885.6884                   22487884.0594
 343103230.39147 267593948.41844  22313667.8984                   22313666.2074
 358900354.76246 279703149.37943  23730485.6254                   23730482.7544
 261995751.17647 205018732.30143  22684495.7114                   22684493.8364
 332670733.11347 259384072.50444  22086025.8754                   22086023.3874
 11  7 25  0 49 30.0000000  0  8G02G17G04G27G10G12G28G09
 327827560.60547 255497440.23845  21339129.2114                   21339125.4774
 281166692.91847 219137647.35945  21812586.1334                   21812583.4804
 301200424.16448 234766871.78946  19945897.7664                   19945894.9144
 319029883.97747 249014257.62944  22473424.1094                   22473423.4734
 342920530.66847 267451585.02744  22278900.7344                   22278900.0004
 358704410.10246 279550465.28543  23693196.6804                   23693195.4884
 261972763.07446 205000819.41443  22680122.6724                   22680119.6454
 332589173.27747 259320519.36744  22070505.3674                   22070503.3484
 11  7 25  0 50  0.0000000  0  8G02G17G04G27G10G12G28G09
 327671793.77347 255376063.52745  21309487.2194                   21309483.6374
 281104544.27047 219089219.83645  21800760.1724                   21800757.3404
 301125237.15248 234708284.52046  19931589.9454                   19931587.6844
 318954406.78547 248955444.15644  22459061.7194                   22459060.8164
 342738191.24647 267309502.43044  22244203.8364                   22244200.7274
 358508615.13346 279397897.84443  23655938.6484                   23655936.5594
 261950189.90646 204983229.87543  22675826.2274                   22675824.4494
 332508296.40647 259257498.40244  22055114.4694                   22055112.5394
 11  7 25  0 50 30.0000000  0  8G02G17G04G27G10G12G28G09
 327516464.04747 255255027.40245  21279929.3524                   21279925.0904
 281042562.98447 219040922.72345  21788965.3204                   21788962.4734
 301050622.46948 234650143.20746  19917390.8914                   19917388.5824
 318879439.73047 248897028.22744  22444795.7344                   22444794.5664
 342556211.90647 267167700.43444  22209573.9064                   22209571.9924
 358312968.50446 279245445.96543  23618708.0004                   23618706.4104
 261928027.53546 204965960.43443  22671608.0634                   22671607.2194
 332428097.28947 259195005.56344  22039853.6414                   22039851.4964
 11  7 25  0 51  0.0000000  0  8G02G17G04G27G10G12G28G09
 327361573.07847 255134333.16445  21250455.2814                   21250451.0044
 280980750.55147 218992757.18445  21777203.0394                   21777200.3014
 300976579.57048 234592447.45346  19903301.6024                   19903298.5474
 318804982.65247 248839009.68444  22430627.6804                   22430626.4104
 342374597.47747 267026182.74244  22175012.5394                   22175011.2854
 358117473.75446 279093112.40243  23581506.9844                   23581504.7934
 261906276.27047 204949011.34044  22667469.5394                   22667468.4734
 332348575.99647 259133040.88744  22024720.9064                   22024718.9884
 11  7 25  0 51 30.0000000  0  8G02G17G04G27G10G12G28G09
 327207119.15247 255013979.50445  21221063.0784                   21221059.3914
 280919105.13347 218944721.78545  21765471.7194                   21765469.1764
 300903104.38347 234535194.06646  19889319.2974                   19889317.0904
 318731031.78146 248781385.59844  22416554.9774                   22416554.2894
 342193348.91047 266884950.15244  22140522.2194                   22140521.0664
 357922130.73446 278940897.07843  23544334.7114                   23544332.4064
 261884932.55946 204932379.81343  22663409.0084                   22663406.2734
 332269728.74247 259071601.43044  22009716.7974                   22009715.0514
 11  7 25  0 52  0.0000000  0  8G02G17G04G27G10G12G28G09
 327053104.74647 254893968.31345  21191755.0314                   21191750.8674
 280857628.61347 218896818.00045  21753773.4694                   21753770.4924
 300830197.29747 234478383.35246  19875445.3674                   19875443.5904
 318657587.25447 248724156.07044  22402578.9924                   22402577.3714
 342012471.84447 266744007.03944  22106102.3054                   22106101.9454
 357726943.76246 278788803.35243  23507191.0944                   23507188.9494
 261863997.45746 204916066.68444  22659424.6564                   22659423.3204
 332191555.54747 259010687.23044  21994841.0864                   21994839.2274
 11  7 25  0 52 30.0000000  0  8G02G17G04G27G10G12G28G09
 328474954.62947 256001903.31645  21462323.8284                   21462319.8014
 282371742.27347 220076646.80545  22041899.6414                   22041897.4774
 302333277.73447 235649614.85946  20161471.9614                   20161470.3674
 320160069.27747 249894921.26644  22688491.6414                   22688491.4654
 343407394.39547 267830959.71544  22371548.2814                   22371546.0394
 359107340.32846 279864437.02743  23769872.8364                   23769870.0664
 263418889.35946 206127670.69943  22955310.6094                   22955308.5984
 333689476.48047 260177898.30944  22279885.5784                   22279884.4064
 11  7 25  0 53  0.0000000  0  8G02G17G04G27G10G12G28G09
 328321817.24247 255882575.53545  21433182.3984                   21433178.5984
 282310600.97347 220029004.22745  22030265.1804                   22030262.2424
 302261497.91847 235593682.53146  20147813.3284                   20147810.4344
 320087629.77047 249838474.85244  22674707.1414                   22674706.0274
 343227266.23047 267690600.15644  22337270.6334                   22337269.5124
 358912467.77746 279712588.28944  23732789.0474                   23732787.5274
 263398764.84046 206111989.21543  22951480.1414                   22951479.6684
 333612643.37547 260118028.31344  22265264.6954                   22265263.0164
 11  7 25  0 53 30.0000000  0  8G02G17G04G27G10G12G28G09
 328169118.35247 255763589.42645  21404125.0944                   21404121.0944
 282249626.72347 219981491.81345  22018662.5554                   22018659.3404
 302190278.23847 235538186.68046  20134260.4384                   20134258.0474
 320015689.56347 249782417.55544  22661017.5234                   22661016.3634
 343047516.88746 267550535.78144  22303064.9144                   22303064.3834
 358717755.35246 279560864.33243  23695736.3834                   23695734.6684
 263379043.01647 206096621.52743  22947728.4614                   22947726.3284
 333536477.25047 260058678.05544  22250771.1884                   22250769.7544
 11  7 25  0 54  0.0000000  0  8G02G17G04G27G10G12G28G09
 328016862.36347 255644948.44145  21375151.7344                   21375147.5984
 282188823.87547 219934112.94145  22007091.3364                   22007088.5984
 302119620.66847 235483128.83646  20120814.5004                   20120812.3404
 319944250.79347 249726750.96944  22647423.1414                   22647421.6414
 342868153.35547 267410772.05944  22268932.5634                   22268931.6954
 358523208.69546 279409269.51644  23658715.5394                   23658713.7034
 263359726.55947 206081569.71543  22944052.0084                   22944050.7424
 333460980.06347 259999849.01244  22236404.6804                   22236402.7734
 11  7 25  0 54 30.0000000  0  8G02G17G04G27G10G12G28G09
 327865047.94947 255526651.53945  21346262.9304                   21346258.8714
 282128190.68047 219886866.30545  21995553.4224                   21995550.3364
 302049521.66847 235428506.23046  20107475.1334                   20107472.8954
 319873310.13346 249671472.53544  22633923.5004                   22633922.1764
 342689177.30947 267271310.25044  22234875.6484                   22234874.2034
 358328828.55546 279257804.48043  23621726.9614                   23621724.9344
 263340812.92646 206066831.77743  22940453.1644                   22940452.1524
 333386148.25447 259941538.46144  22222163.9614                   22222163.0004
 11  7 25  0 55  0.0000000  0  8G02G17G04G27G10G12G28G09
 327713674.83647 255408698.52045  21317457.1254                   21317453.3634
 282067726.75047 219839751.53145  21984047.5314                   21984044.4024
 301979979.02047 235374317.14846  20094241.2894                   20094239.3094
 319802865.32446 249616580.48044  22620517.4384                   22620517.2074
 342510591.63746 267132152.62544  22200892.1174                   22200890.2894
 358134616.62146 279106470.49244  23584768.4224                   23584767.3364
 263322300.48447 206052406.46544  22936930.3834                   22936929.2384
 333311979.57447 259883744.63344  22208050.7814                   22208049.0944
 11  7 25  0 55 30.0000000  0  8G02G17G04G27G10G12G28G09
 327562740.19147 255291087.15645  21288735.0234                   21288730.9884
 282007429.54347 219792766.67245  21972573.8984                   21972570.1484
 301910987.29747 235320557.35546  20081113.4384                   20081110.6294
 319732911.47746 249562070.99644  22607206.7034                   22607205.2894
 342332395.99247 266993298.92644  22166981.9224                   22166980.4224
 357940571.41046 278955266.43044  23547842.8284                   23547841.5594
 263304184.61746 206038290.16843  22933483.0474                   22933481.1804
 333238469.03947 259826463.64144  22194062.3914                   22194060.5864
 11  7 25  0 56  0.0000000  0  8G02G17G04G27G10G12G28G09
 327412247.46947 255173820.14145  21260097.3054                   21260092.9494
 281947301.77747 219745913.85945  21961131.3204                   21961128.5474
 301842547.79748 235267227.87946  20068089.4144                   20068086.9534
 319663449.55946 249507944.82444  22593988.5704                   22593986.7154
 342154596.62547 266854754.02744  22133147.5784                   22133146.6954
 357746698.18846 278804196.37944  23510950.1884                   23510948.9344
 263286466.92646 206024484.14143  22930111.3204                   22930109.8794
 333165617.88347 259769696.43844  22180199.6094                   22180198.0864
 11  7 25  0 56 30.0000000  0  8G02G17G04G27G10G12G28G09
 327262193.85947 255056895.30945  21231543.0394                   21231538.6054
 281887340.86747 219699191.05145  21949721.0634                   21949718.2734
 301774655.68447 235214324.92246  20055170.1254                   20055167.6214
 319594475.06646 249454198.44944  22580862.7664                   22580861.6374
 341977194.16047 266716518.37944  22099389.5394                   22099387.5474
 357552996.51247 278653260.00844  23474090.9224                   23474088.4534
 263269143.48046 206010985.33643  22926814.6564                   22926812.7854
 333093421.20747 259713439.25444  22166460.6094                   22166459.3914
 11  7 25  0 57  0.0000000  0  8G02G17G04G27G10G12G28G09
 327112584.12947 254940316.33645  21203073.0164                   21203068.6214
 281827551.50447 219652601.92645  21938343.3364                   21938341.5474
 301707313.09047 235161850.16046  20042355.2114                   20042352.9574
 319525990.75046 249400834.06344  22567830.8204                   22567829.1174
 341800196.18047 266578597.90244  22065708.0704                   22065705.6484
 357359472.68446 278502462.22744  23437263.7974                   23437262.6644
 263252217.32046 205997796.07043  22923593.7034                   22923592.7934
 333021881.47747 259657693.94944  22152847.2344                   22152845.5204
 11  7 25  0 57 30.0000000  0  8G02G17G04G27G10G12G28G09
 326963415.85247 254824081.36345  21174687.6804                   21174683.4024
 281767931.09447 219606144.44545  21926997.8834                   21926995.9884
 301640515.56647 235109800.13346  20029644.1644                   20029641.6174
 319457992.05147 249347848.03944  22554890.7034                   22554890.1024
 341623603.03147 266440992.91444  22032103.1094                   22032101.9964
 357166126.05546 278351802.51644  23400471.0084                   23400469.6024
 263235684.49646 205984913.31343  22920448.1884                   22920446.2664
 332950993.73447 259602456.68844  22139357.4224                   22139356.2624
 11  7 25  0 58  0.0000000  0  8G02G17G04G27G10G12G28G09
 326814690.28147 254708191.35245  21146385.4144                   21146381.5084
 281708480.76247 219559819.48045  21915685.3674                   21915682.8014
 301574261.85947 235058173.86746  20017036.2584                   20017033.8834
 319390477.85946 249295239.56644  22542043.3594                   22542041.9534
 341447418.71147 266303706.48044  21998575.6724                   21998575.0274
 356972959.76246 278201283.35544  23363712.6174                   23363711.1054
 263219544.36346 205972336.54343  22917376.9844                   22917375.6174
 332880757.04347 259547726.75444  22125991.8754                   22125990.2304
 11  7 25  0 58 30.0000000  0  8G02G17G04G27G10G12G28G09
 326666407.09447 254592646.05145  21118168.2424                   21118164.0004
 281649200.14847 219513626.78145  21904404.1724                   21904401.7854
 301508549.51647 235006969.43446  20004531.7424                   20004529.0594
 319323446.05547 249243006.96544  22529287.8134                   22529286.7504
 341271646.09846 266166740.84444  21965127.1954                   21965125.8444
 356779975.93846 278050906.41043  23326989.1484                   23326987.3094
 263203795.48446 205960064.59443  22914379.6024                   22914378.1134
 332811169.00847 259493502.28544  22112749.6254                   22112748.5594
 11  7 25  0 59  0.0000000  0  8G02G17G04G27G10G12G28G09
 326518565.79747 254477445.08645  21090035.1644                   21090030.9024
 281590089.12547 219467566.19945  21893156.2814                   21893153.0904
 301443376.03947 234956184.90646  19992129.8674                   19992126.9264
 319256893.99647 249191148.21144  22516623.3834                   22516621.9414
 341096287.29747 266030097.67244  21931758.0394                   21931756.1564
 356587176.05146 277900672.79743  23290300.7974                   23290298.4454
 263188435.64846 205948095.85243  22911457.3594                   22911455.3014
 332742226.99647 259439781.17644  22099630.3674                   22099629.3284
 11  7 25  0 59 30.0000000  0  8G02G17G04G27G10G12G28G09
 326371160.43047 254362583.79745  21061984.3364                   21061980.5634
 281531141.11347 219421632.67645  21881938.6804                   21881936.3714
 301378732.98048 234905813.69546  19979828.6484                   19979825.9964
 319190813.48046 249139656.87144  22504048.3284                   22504047.6174
 340921339.60247 265893774.84444  21898466.9384                   21898465.1334
 356394555.46146 277750578.90644  23253646.1094                   23253644.0944
 263173457.39846 205936424.42243  22908606.6564                   22908605.0944
 332673922.43047 259386556.80144  22086632.6564                   22086631.8134
 11  7 25  1  0  0.0000000  0  8G02G17G04G27G10G12G28G09
 326224195.87547 254248066.00045  21034018.0164                   21034013.7544
 281472361.42647 219375830.28945  21870753.9064                   21870750.4024
 301314623.06347 234855857.90646  19967628.5704                   19967626.0434
 319125207.13346 249088535.02044  22491563.7114                   22491563.0554
 340746811.01247 265757778.59444  21865255.1724                   21865253.1564
 356202121.31646 277600630.33243  23217027.1644                   23217024.9494
 263158863.96546 205925052.85943  22905829.5704                   22905828.1214
 332606257.96146 259333831.19544  22073756.3054                   22073755.6294
 11  7 25  1  0 30.0000000  0  8G02G17G04G27G10G12G28G09
 327653097.10247 255361495.56345  21305928.7734                   21305924.8054
 282989171.82447 220557760.44945  22159392.3754                   22159390.2074
 302826465.90647 236033917.27046  20255323.0314                   20255320.6414
 320635495.23046 250265382.86744  22778962.4454                   22778961.5314
 342148129.84847 266849715.39844  22131916.9694                   22131915.2154
 357585302.40246 278678433.85244  23480237.6804                   23480234.8554
 264720074.21146 207141580.28943  23202918.6564                   23202916.2814
 334114653.45747 260509204.28944  22360794.7974                   22360793.2934
 11  7 25  1  1  0.0000000  0  8G02G17G04G27G10G12G28G09
 327507010.72347 255247662.05145  21278130.0004                   21278125.3754
 282930724.95747 220512217.40245  22148270.7344                   22148267.9024
 302763411.49647 235984783.95746  20243324.0554                   20243322.0004
 320570827.66046 250214992.51244  22766656.9534                   22766655.5904
 341974444.27047 266714376.03144  22098866.2894                   22098864.4924
 357393243.68446 278528777.80144  23443689.9534                   23443688.0664
 264706242.34046 207130802.17243  23200286.5314                   23200284.1454
 334048258.73847 260457468.12944  22348160.2734                   22348158.7544
 11  7 25  1  1 30.0000000  0  8G02G17G04G27G10G12G28G09
 327361359.73847 255134167.82045  21250413.6564                   21250408.8594
 282872441.02047 220466801.32845  22137179.7344                   22137177.1334
 302700878.05147 235936056.59846  20231424.6564                   20231422.2584
 320506622.83246 250164962.72344  22754438.9774                   22754438.0234
 341801181.07047 266579365.80544  22065894.4774                   22065892.9104
 357201372.07447 278379267.53944  23407178.8984                   23407175.7704
 264692785.26246 207120316.04743  23197725.5554                   23197723.9734
 333982491.78547 260406221.10244  22335646.1334                   22335644.5664
 11  7 25  1  2  0.0000000  0  8G02G17G04G27G10G12G28G09
 327216142.99247 255021011.94145  21222779.4694                   21222774.9384
 282814318.68047 220421511.14545  22126119.8134                   22126117.0664
 302638862.03947 235887732.44546  20219622.5634                   20219620.3674
 320442877.00046 250115290.60944  22742308.6414                   22742307.2034
 341628341.83247 266444685.92244  22033005.5474                   22033002.7624
 357009688.22747 278229903.62944  23370701.9144                   23370699.9964
 264679699.98446 207110119.69543  23195235.9304                   23195233.4384
 333917348.84446 260355460.34444  22323249.1724                   22323247.3714
 11  7 25  1  2 30.0000000  0  8G02G17G04G27G10G12G28G09
 327071363.86347 254908197.07845  21195229.1804                   21195224.9024
 282756361.68847 220376349.83245  22115090.6484                   22115087.9104
 302577364.40247 235839812.20746  20207920.4384                   20207917.9064
 320379591.57047 250065977.25444  22730265.7114                   22730264.6054
 341455932.68447 266310341.16444  22000196.3984                   22000194.0984
 356818197.88346 278080690.45744  23334262.9774                   23334260.8524
 264666988.41846 207100214.50443  23192816.8284                   23192814.6294
 333852831.14147 260305186.80544  22310971.7194                   22310970.4264
 11  7 25  1  3  0.0000000  0  8G02G17G04G27G10G12G28G09
 326927027.35247 254795727.10945  21167762.4304                   21167758.5234
 282698575.24246 220331321.42645  22104094.0704                   22104091.5824
 302516388.09047 235792298.20346  20196316.8984                   20196314.9574
 320316769.71946 250017025.12944  22718311.2664                   22718310.1684
 341283962.23847 266176338.25444  21967471.7034                   21967469.4104
 356626908.03546 277931633.54744  23297860.4534                   23297858.7544
 264654654.29746 207090603.46143  23190469.3834                   23190467.4654
 333788941.53946 260255402.65244  22298814.3134                   22298812.5784
 11  7 25  1  3 30.0000000  0  8G02G17G04G27G10G12G28G09
 326783130.10247 254683599.41045  21140379.6564                   21140375.2664
 282640956.14547 220286423.41045  22093130.0314                   22093127.3204
 302455927.67648 235745186.19146  20184811.7814                   20184810.1024
 320254405.75847 249968429.80144  22706443.7274                   22706442.6724
 341112429.94947 266042676.80544  21934829.2194                   21934827.8674
 356435817.60246 277782732.01244  23261497.7274                   23261495.4104
 264642692.44146 207081282.50443  23188193.0394                   23188191.9064
 333725674.24247 260206103.45744  22286774.3054                   22286773.7234
 11  7 25  1  4  0.0000000  0  8G02G17G04G27G10G12G28G09
 326639667.91847 254571810.73045  21113080.0474                   21113075.5274
 282583499.96147 220241652.35245  22082196.8834                   22082193.6374
 302395976.55547 235698471.02346  20173403.6174                   20173400.4414
 320192493.41846 249920186.37544  22694662.8754                   22694661.7464
 340941334.52047 265909355.75044  21902271.9614                   21902269.3204
 356244924.64846 277633984.33244  23225171.3754                   23225169.7934
 264631097.23046 207072247.19543  23185986.5164                   23185985.5664
 333663022.25446 260157283.71144  22274852.3594                   22274851.3984
 11  7 25  1  4 30.0000000  0  8G02G17G04G27G10G12G28G09
 326496645.02747 254460364.35946  21085863.5634                   21085859.6094
 282526211.39146 220197011.89845  22071294.4774                   22071292.1524
 302336536.49647 235652154.09846  20162092.6254                   20162090.2774
 320131034.44146 249872296.22344  22682967.0394                   22682966.1454
 340770682.81647 265776380.44144  21869797.2814                   21869795.4494
 356054235.37146 277485395.37144  23188884.3594                   23188882.2234
 264619871.50446 207063499.82044  23183851.1644                   23183849.9884
 333600987.37547 260108944.83244  22263047.9614                   22263045.8524
 11  7 25  1  5  0.0000000  0  8G02G17G04G27G10G12G28G09
 326354058.69147 254349258.14845  21058730.1174                   21058725.5664
 282469087.86347 220152500.07445  22060424.7664                   22060421.5234
 302277602.90247 235606231.81346  20150877.7194                   20150874.9804
 320070024.41846 249824755.91044  22671357.8364                   22671356.6604
 340600475.68847 265643751.55944  21837407.7584                   21837406.1484
 355863749.50446 277336964.86744  23152636.2814                   23152634.3874
 264609010.71546 207055036.82443  23181784.5784                   23181782.7074
 333539565.05147 260061083.25444  22251359.1954                   22251358.1524
 11  7 25  1  5 30.0000000  0  8G02G17G04G27G10G12G28G09
 326211910.95347 254238493.71545  21031680.6024                   21031675.8404
 282412131.32447 220108118.33245  22049586.1484                   22049583.5204
 302219175.08248 235560703.64146  20139759.0704                   20139756.5124
 320009462.85546 249777565.07444  22659832.1484                   22659831.7074
 340430718.05547 265511472.93844  21805103.9694                   21805102.4224
 355673470.92647 277188695.93044  23116427.2584                   23116425.7384
 264598515.14546 207046858.41043  23179787.5394                   23179785.5314
 333478754.29347 260013698.22344  22239787.3754                   22239786.2974
 11  7 25  1  6  0.0000000  0  8G02G17G04G27G10G12G28G09
 326070197.46547 254128067.64145  21004713.1884                   21004708.7154
 282355337.85947 220063863.68845  22038778.8754                   22038775.5904
 302161247.01247 235515564.89146  20128735.8524                   20128733.8164
 319949343.50447 249730718.78144  22648391.6884                   22648391.7274
 340261408.44947 265379543.43844  21772885.5704                   21772883.8754
 355483397.43847 277040586.77344  23080257.3674                   23080256.2464
 264588379.16846 207038960.23843  23177858.3914                   23177856.7894
 333418548.61346 259966784.68444  22228330.6174                   22228329.7274
 11  7 25  1  6 30.0000000  0  8G02G17G04G27G10G12G28G09
 325928918.48847 254017980.15245  20977828.6644                   20977824.4264
 282298708.15647 220019736.65245  22028002.2034                   22027999.1374
 302103816.46147 235470813.81346  20117807.4454                   20117805.0314
 319889664.37546 249684215.54344  22637036.0554                   22637034.7424
 340092550.26247 265247965.66844  21740753.3834                   21740750.8984
 355293531.63347 276892639.42644  23044127.6174                   23044125.3284
 264578601.34846 207031341.12943  23175997.2114                   23175996.5434
 333358945.80146 259920340.89544  22216988.5474                   22216987.2544
 11  7 25  1  7  0.0000000  0  8G02G17G04G27G10G12G28G09
 325788072.81647 253908230.30545  20951026.8524                   20951022.3794
 282242241.27047 219975736.49645  22017256.6724                   22017254.2344
 302046880.12947 235426447.84446  20106972.8284                   20106970.3164
 319830422.23046 249638052.80144  22625762.6334                   22625761.6954
 339924145.21947 265116741.00044  21708705.9774                   21708704.6334
 355103874.73447 276744854.87144  23008036.3134                   23008034.5744
 264569179.14146 207023999.12143  23174205.1644                   23174203.4494
 333299942.40646 259874364.19944  22205760.6644                   22205759.5004
 11  7 25  1  7 30.0000000  0  8G02G17G04G27G10G12G28G09
 325647663.55947 253798820.50845  20924307.3444                   20924303.3404
 282185940.34847 219931865.63745  22006543.3054                   22006540.6414
 301990438.62548 235382467.44146  20096232.1094                   20096230.0784
 319771617.92246 249592231.25444  22614572.5704                   22614571.4144
 339756199.44547 264985874.21944  21676747.2194                   21676745.5824
 354914432.08647 276597237.23444  22971987.7274                   22971984.7424
 264560113.98046 207016935.30143  23172479.3834                   23172478.2274
 333241538.69146 259828854.77344  22194646.6724                   22194646.0984
 11  7 25  1  8  0.0000000  0  8G02G17G04G27G10G12G28G09
 325507686.12947 253689747.20346  20897670.6174                   20897666.7274
 282129801.17647 219888120.84845  21995859.8984                   21995857.4384
 301934485.44948 235338867.54746  20085584.4454                   20085582.3094
 319713244.82046 249546745.69144  22603464.3054                   22603463.2304
 339588711.23447 264855363.96144  21644875.1724                   21644874.2624
 354725201.61347 276449784.97344  22935978.2734                   22935975.6954
 264551399.86346 207010145.04343  23170821.2974                   23170820.1024
 333183727.87146 259783807.37144  22183645.6804                   22183644.2384
 11  7 25  1  8 30.0000000  0  9G02G17G04G27G10G12G28G09G05
 326943570.08247 254808617.83645  21170910.2114                   21170905.7774
 283649250.82847 221072107.58645  22285001.3134                   22284999.0824
 303454445.10247 236523251.69146  20374823.2894                   20374820.9104
 321230727.60546 250729199.79744  22892231.5314
                                  22892230.6994
 340997113.89847 265952820.62144  21912885.4224                   21912883.5984
 356111616.56647 277530108.35944  23199803.7584                   23199801.7734
 266118460.32046 208231231.06643  23469023.2274                   23469021.1214
 334701934.24646 260966825.30544  22472551.1254   22472549.9774   24514337.320
 11  7 25  1  9  0.0000000  0  9G02G17G04G27G10G12G28G09G05
 326804463.44147 254700223.07046  21144439.4064                   21144435.0394
 283593443.45347 221028621.31645  22274382.2664                   22274379.7274
 303399468.88748 236480413.07846  20364361.8054                   20364359.0234
 321173217.69546 250684386.86344  22881287.7584                   22881287.0634
 340830557.19147 265823036.22344  21881190.6484                   21881189.0594
 355922824.01247 277382997.32044  23163877.5864                   23163875.5824
 266110450.69946 208224989.77743  23467498.6564                   23467497.0274
 334645308.99646 260922701.71544  22461775.0474                   22461774.6334
 369966232.63346 288339219.66843  24475661.5004                   24475662.8324
 11  7 25  1  9 30.0000000  0  9G02G17G04G27G10G12G28G09G05
 326665789.11347 254592165.16845  21118050.0864                   21118046.1484
 283537799.15247 220985262.11344  22263793.0634                   22263790.7854
 303344974.70747 236437950.07446  20353991.9694                   20353989.5984
 321116132.80946 250639905.12944  22870424.5784                   22870424.0744
 340664467.89847 265693616.04344  21849585.3284                   21849583.1684
 355734251.04346 277236057.35244  23127993.4694                   23127990.8554
 266102787.94146 208219018.81642  23466040.5234                   23466039.2344
 334589269.43846 260879034.50844  22451111.7034                   22451110.0984
 369763010.75046 288180865.13743  24436990.0784                   24436989.4144
 11  7 25  1 10  0.0000000  0  9G02G17G04G27G10G12G28G09G05
 326527540.78147 254484439.21946  21091742.2034                   21091738.1524
 283482312.04347 220942025.41445  22253234.1884                   22253231.8014
 303290954.03547 236395856.04346  20343712.2344                   20343709.3524
 321059464.44946 250595747.94944  22859641.8674                   22859640.5984
 340498842.25447 265564557.12944  21818067.6564                   21818065.5084
 355545893.49646 277089285.27044  23092150.3834                   23092146.9614
 266095463.58246 208213311.55143  23464648.0944                   23464645.4454
 334533806.81646 260835816.83644  22440557.4924                   22440556.6524
 369559802.13746 288022520.97743  24398320.0004                   24398321.4534
 11  7 25  1 10 30.0000000  0  9G02G17G04G27G10G12G28G09G05
 326389713.13747 254377041.08245  21065514.6884                   21065510.0554
 283426977.19146 220898907.32444  22242704.4924                   22242701.9264
 303237399.41047 236354125.16046  20333520.9614                   20333518.2584
 321003205.28946 250551909.60944  22848936.1334                   22848935.3954
 340333678.25047 265435857.96144  21786638.1174                   21786635.6024
 355357748.84847 276942679.08644  23056347.6564                   23056344.9844
 266088471.30546 208207862.98443  23463316.5864                   23463314.4304
 334478913.46147 260793042.80144  22430111.3834                   22430110.5164
 369356604.41846 287864185.29343  24359653.4064                   24359653.5704
 11  7 25  1 11  0.0000000  0  9G02G17G04G27G10G12G28G09G05
 326252303.12547 254269968.35945  21039366.7504                   21039362.3404
 283371791.88347 220855905.76245  22232203.1564                   22232200.4454
 303184305.43047 236312753.21946  20323417.6334                   20323415.3014
 320947349.90646 250508385.92644  22838306.9064                   22838305.9104
 340168975.87547 265307518.51645  21755295.8364                   21755294.1884
 355169816.19547 276796238.09444  23020584.7664                   23020582.8634
 266081806.48646 208202669.61943  23462048.3754                   23462046.6644
 334424583.86747 260750708.03144  22419773.2814                   22419771.6094
 369153417.05946 287705857.66843  24320987.0944                   24320988.4184
 11  7 25  1 11 30.0000000  0  9G02G17G04G27G10G12G28G09G05
 326115313.56647 254163223.26646  21013298.1484                   21013293.6484
 283316759.62547 220813023.47344  22221730.6334                   22221727.9884
 303131673.14548 236271741.03546  20313401.7504                   20313399.2234
 320891899.19546 250465177.55544  22827755.1884                   22827754.1294
 340004741.21147 265179543.48844  21724043.1564                   21724040.5124
 354982100.76247 276649966.36744  22984864.4924                   22984861.8874
 266075470.52046 208197732.48043  23460842.1954                   23460841.3404
 334370818.22747 260708812.69944  22409542.0394                   22409540.9694
 368950245.43046 287547542.29743  24282324.3284                   24282326.1484
 11  7 25  1 12  0.0000000  0  9G02G17G04G27G10G12G28G09G05
 325978745.06347 254056806.27045  20987309.9924                   20987306.2114
 283261881.37947 220770261.16845  22211287.7664                   22211285.6804
 303079500.73847 236231087.20346  20303473.9304                   20303471.6604
 320836851.75046 250422283.42244  22817279.4694                   22817278.3914
 339840977.54347 265051935.48045  21692879.4384                   21692877.4384
 354794605.85546 276503866.48844  22949185.0234                   22949182.3794
 266069462.32846 208193050.72743  23459698.8674                   23459697.8054
 334317614.73047 260667355.44544  22399417.9454                   22399415.7934
 368747092.72345 287389241.68843  24243665.5554                   24243666.7074
 11  7 25  1 12 30.0000000  0  9G02G17G04G27G10G12G28G09G05
 325842598.11747 253950717.76245  20961402.2814                   20961397.6214
 283207157.75047 220727619.35944  22200874.4614                   22200871.5824
 303027786.39847 236190790.30546  20293633.0864                   20293630.1724
 320782205.66846 250379702.03944  22806881.1804                   22806880.1094
 339677688.64547 264924697.41845  21661807.1884                   21661805.0274
 354607333.88346 276357940.32444  22913547.8524                   22913546.0274
 266063780.89846 208188623.57843  23458618.9924                   23458617.2544
 334264971.03947 260626334.36344  22389399.8444                   22389398.4454
 368543963.00046 287230958.94943  24205011.8204                   24205012.4964
 11  7 25  1 13  0.0000000  0  9G02G17G04G27G10G12G28G09G05
 325706876.06647 253844960.33645  20935574.6724                   20935570.7704
 283152592.85547 220685101.22745  22190491.0944                   22190488.6374
 302976531.36348 236150851.30546  20283879.5784                   20283877.3444
 320727962.23046 250337434.40644  22796559.2194                   22796557.6764
 339514880.57447 264797834.05545  21630825.1724                   21630823.9304
 354420291.14147 276212192.80144  22877954.7344                   22877952.9654
 266058427.98846 208184452.43443  23457599.6174                   23457598.3984
 334212887.99246 260585750.16844  22379489.5004                   22379487.3324
 368340861.64546 287072698.37543  24166363.8834                   24166362.8634
 11  7 25  1 13 30.0000000  0  9G02G17G04G27G10G12G28G09G05
 325571578.73447 253739533.86746  20909828.9384                   20909824.5904
 283098187.05547 220642707.07044  22180137.7814                   22180135.0044
 302925733.60548 236111268.63746  20274212.9454                   20274210.8524
 320674119.34846 250295478.89844  22786312.8594                   22786311.5234
 339352556.43847 264671347.77345  21599936.5084                   21599933.8594
 354233480.26646 276066625.92244  22842406.1564                   22842404.0394
 266053401.82446 208180535.92242  23456643.0394                   23456641.8594
 334161363.39147 260545601.12944  22369683.4144                   22369682.5314
 368137791.18446 286914461.80543  24127719.6024                   24127719.3594
 11  7 25  1 14  0.0000000  0  9G02G17G04G27G10G12G28G09G05
 325436700.99647 253634434.35945  20884161.9694                   20884158.0314
 283043935.71547 220600433.25845  22169814.5394                   22169811.7154
 302875385.74648 236072036.52746  20264632.4694                   20264629.9574
 320620669.46946 250253829.60544  22776142.4144                   22776140.6724
 339190714.18847 264545236.96545  21569139.0314                   21569136.4104
 354046898.14847 275921237.32844  22806900.1414                   22806898.6954
 266048695.75845 208176868.79742  23455746.8054                   23455746.1454
 334110389.36347 260505881.10944  22359983.7034                   22359982.2194
 367934749.55546 286756247.73843  24089082.7734                   24089081.8714
 11  7 25  1 14 30.0000000  0  9G02G17G04G27G10G12G28G09G05
 325302253.76247 253529670.29345  20858578.1094                   20858573.3134
 282989850.12547 220558288.60245  22159522.3524                   22159519.8444
 302825496.33247 236033161.64146  20255138.7034                   20255136.6564
 320567621.48046 250212493.47744  22766046.9064                   22766046.2704
 339029367.45747 264419512.28145  21538435.2814                   21538433.3364
 353860558.34047 275776037.55544  22771441.3754                   22771439.3634
 266044319.51246 208173458.67642  23454915.0554                   23454914.3364
 334059974.08246 260466596.50044  22350389.5234                   22350388.6134
 367731750.59846 286598066.88743  24050452.8284                   24050451.5554
 11  7 25  1 15  0.0000000  0  9G02G17G04G27G10G12G28G09G05
 325168225.29747 253425232.55145  20833073.1724                   20833068.8284
 282935919.11347 220516264.41444  22149258.8134                   22149257.2304
 302776051.70747 235994633.35546  20245729.4224                   20245727.2814
 320514961.47746 250171459.66044  22756025.6644                   22756025.9924
 338868507.58647 264294166.99245  21507824.7664                   21507822.6994
 353674451.83647 275631019.54344  22736025.9534                   22736024.2544
 266040259.77746 208170295.25842  23454143.2114                   23454141.1024
 334010103.44547 260427736.26244  22340899.7734                   22340899.4844
 367528785.37146 286439912.31343  24011829.5634                   24011828.8364
 11  7 25  1 15 30.0000000  0  9G02G17G04G27G10G12G28G09G05
 325034622.45347 253321126.45345  20807649.5864                   20807645.0514
 282882149.71947 220474366.18844  22139026.9924                   22139025.2464
 302727056.33248 235956455.13346  20236405.8984                   20236403.7424
 320462693.77346 250130731.53544  22746080.5474                   22746078.8754
 338708144.36747 264169208.70345  21477308.0084                   21477306.9304
 353488587.66847 275486190.37544  22700657.1094                   22700655.4304
 266036521.19146 208167382.12542  23453431.0314                   23453429.8954
 333960781.24647 260389303.37944  22331514.6804                   22331513.0904
 367325863.35946 286281791.41443  23973214.4224                   23973213.9304
 11  7 25  1 16  0.0000000  0  9G02G17G04G27G10G12G28G09G05
 324901443.81647 253217350.91846  20782306.3674                   20782301.7034
 282828541.33247 220432593.36745  22128826.4614                   22128824.0204
 302678506.81347 235918624.33245  20227167.5084                   20227164.5594
 320410815.00046 250090306.49244  22736207.3054                   22736206.9344
 338548279.75447 264044638.93045  21446887.5234                   21446885.0744
 353302967.37547 275341551.23844  22665335.0784                   22665332.6024
 266033101.14846 208164717.14142  23452780.0864                   23452778.8984
 333912003.84847 260351295.01244  22322232.1644                   22322231.0274
 367122986.26646 286123705.52043  23934608.7894                   23934608.0984
 11  7 25  1 16 30.0000000  0  9G02G17G04G27G10G12G28G09G05
 326344110.91847 254341507.12146  21056836.8754                   21056832.3134
 284350513.62547 221618545.78545  22418448.2734                   22418445.2814
 304205819.85248 237108738.37946  20517805.5784                   20517803.0704
 321934742.08646 251277782.09844  23026201.7974                   23026200.7074
 339964339.43047 265148062.09844  21716354.5314                   21716352.2544
 354693016.81347 276424706.66844  22929853.0234                   22929850.1914
 267605415.66446 209389897.38342  23751982.7584                   23751980.2194
 335439187.34047 261541308.13344  22612845.5704                   22612844.4774
 368495580.94146 287193259.97343  24195804.4144                   24195804.3094
 11  7 25  1 17  0.0000000  0  9G02G17G04G27G10G12G28G09G05
 326211775.82447 254238388.90646  21031654.4384                   21031649.9224
 284297224.48847 221577021.74244  22408307.3594                   22408304.9844
 304158150.86748 237071593.71945  20508734.3204                   20508731.8364
 321883630.34846 251237954.71544  23016475.2194                   23016474.3284
 339805476.16847 265024272.60945  21686124.0784                   21686122.0124
 354507887.24647 276280449.91444  22894623.2344                   22894621.2814
 267602623.67246 209387721.74242  23751450.8054                   23751449.2304
 335391486.59847 261504138.72744  22603768.4844                   22603767.0744
 368292797.59046 287035247.15243  24157215.4144                   24157216.4654
 11  7 25  1 17 30.0000000  0  9G02G17G04G27G10G12G28G09G05
 326079861.90647 254135598.85946  21006552.4774                   21006547.7304
 284244095.29747 221535622.36745  22398197.3134                   22398194.8324
 304110918.23848 237034789.06346  20499746.4694                   20499743.8054
 321832898.03946 251198422.98043  23006821.7894                   23006820.5124
 339647117.55147 264900876.33245  21655989.3444                   21655987.0274
 354323006.26247 276136386.81644  22859442.0164                   22859439.4694
 267600142.54346 209385788.42242  23750978.2584                   23750976.8404
 335344319.63747 261467385.24644  22594793.5314                   22594791.5664
 368090065.03546 286877273.94143  24118635.6884                   24118637.2114
 11  7 25  1 18  0.0000000  0  9G02G17G04G27G10G12G28G09G05
 325948374.30547 254033141.02046  20981530.4694                   20981526.2194
 284191131.44147 221494351.81645  22388118.4064                   22388116.5474
 304064125.12147 236998326.89145  20490841.8754                   20490839.3984
 321782548.06646 251159189.19944  22997240.5944                   22997239.4494
 339489271.33647 264777879.33245  21625952.0314                   21625950.1884
 354138381.68447 275992523.55144  22824309.3444                   22824306.8484
 267597976.16446 209384100.34042  23750566.4144                   23750564.2974
 335297689.10547 261431049.77044  22585919.4224                   22585917.9384
 367887390.98046 286719346.31343  24080068.3984                   24080069.7304
 11  7 25  1 18 30.0000000  0  9G02G17G04G27G10G12G28G09G05
 325817306.55947 253931010.32846  20956589.6724                   20956585.0084
 284138327.54747 221453205.91844  22378070.3984                   22378068.2074
 304017763.16048 236962200.68846  20482018.8054                   20482016.7734
 321732571.98046 251120246.71144  22987730.0704                   22987729.7664
 339331934.43847 264655279.20744  21596011.9384                   21596008.9694
 353954009.65247 275848857.07044  22789224.0864                   22789222.2274
 267596116.37546 209382651.10942  23750212.3204                   23750211.5084
 335251586.05547 261395125.30144  22577146.5234                   22577145.0084
 367684772.09846 286561461.64844  24041511.7274                   24041512.6644
 11  7 25  1 19  0.0000000  0  9G02G17G04G27G10G12G28G09G05
 325686662.11347 253829209.48846  20931728.7734                   20931723.9414
 284085687.30947 221412187.53945  22368053.0554                   22368050.5984
 303971833.64148 236926411.45745  20473278.8444                   20473277.1054
 321682971.10546 251081596.61744  22978292.0474                   22978290.3554
 339175113.42247 264533081.04745  21566169.9064                   21566167.0234
 353769896.47346 275705392.28144  22754188.7584                   22754186.6134
 267594565.39146 209381442.56342  23749915.8834                   23749916.7664
 335206011.30947 261359612.51244  22568473.6724                   22568472.7034
 367482214.70746 286403624.89144  24002966.9384                   24002967.2154
 11  7 25  1 19 30.0000000  0  9G02G17G04G27G10G12G28G09G05
 325556440.46547 253727738.11345  20906947.2274                   20906943.2974
 284033211.11347 221371296.99245  22358067.9924                   22358064.8674
 303926333.81648 236890957.05946  20464621.0164                   20464618.4144
 321633742.87946 251043236.90244  22968924.1094                   22968923.3284
 339018810.54747 264411286.62945  21536426.2974                   21536424.1024
 353586044.34047 275562130.91444  22719202.9694                   22719200.3674
 267593321.32146 209380473.11443  23749681.0394                   23749678.8914
 335160961.88347 261324509.05944  22559901.4304                   22559900.0314
 367279721.64146 286245838.23844  23964433.1174                   23964433.8244
 11  7 25  1 20  0.0000000  0  9G02G17G04G27G10G12G28G09G05
 325426642.77747 253626597.08646  20882248.2114                   20882243.6024
 283980900.58247 221330535.52744  22348112.8984                   22348110.6294
 303881262.92648 236855836.87946  20456044.5234                   20456041.6954
 321584886.16446 251005166.66444  22959627.2274                   22959625.9924
 338863030.04747 264289899.27045  21506782.5084                   21506779.8524
 353402457.23047 275419076.05544  22684267.5554                   22684264.8594
 267592383.20746 209379742.06343  23749501.6644                   23749500.1454
 335116436.25847 261289813.74644  22551427.6254                   22551426.8364
 367077296.92246 286088104.82044  23925912.7894                   23925912.8834
 11  7 25  1 20 30.0000000  0  9G02G17G04G27G10G12G28G09G05
 325297262.58647 253525781.37545  20857627.9144                   20857623.6414
 283928750.33247 221289898.95744  22338189.5634                   22338186.8284
 303836612.52048 236821044.35945  20447547.6644                   20447545.1484
 321536392.46146 250967379.29344  22950398.7344                   22950398.1764
 338707768.46147 264168916.25445  21477237.4304                   21477235.0234
 353219131.54747 275276224.89844  22649381.7664                   22649379.0044
 267591743.31346 209379243.38743  23749379.3754                   23749378.6604
 335072425.28546 261255519.46544  22543053.3754                   22543052.3634
 366874937.37546 285930422.16843  23887404.6644                   23887404.1134
 11  7 25  1 21  0.0000000  0  9G02G17G04G27G10G12G28G09G05
 325168305.18047 253425295.10546  20833088.0084                   20833084.0314
 283876766.42647 221249392.01245  22328297.3204                   22328294.8404
 303792385.78148 236786581.96145  20439131.8364                   20439128.9574
 321488265.20346 250929877.45744  22941240.1334                   22941238.8794
 338553034.34447 264048344.26245  21447792.3134                   21447789.6484
 353036075.10247 275133583.52344  22614546.8204                   22614543.8204
 267591405.58645 209378980.12542  23749314.0554                   23749315.0904
 335028931.77047 261221628.37944  22534776.9774                   22534775.0594
 366672650.98446 285772796.52343  23848910.8674                   23848910.6214
 11  7 25  1 21 30.0000000  0  9G02G17G04G27G10G12G28G09G05
 325039768.87547 253325136.97346  20808628.9384                   20808623.9304
 283824947.29347 221209013.46544  22318436.2974                   22318433.9734
 303748578.60947 236752446.50846  20430795.5784                   20430792.5864
 321440500.16446 250892657.88744  22932151.4224                   22932150.3444
 338398828.81347 263928184.14545  21418447.4844                   21418445.1374
 352853288.93047 274991152.76644  22579763.4614                   22579761.8284
 267591366.84045 209378949.74642  23749307.9534                   23749308.0744
 334985951.09047 261188136.91844  22526597.8674                   22526596.6134
 366470439.10946 285615228.94943  23810431.3364                   23810430.2624
 11  7 25  1 22  0.0000000  0  9G02G17G04G27G10G12G28G09G05
 324911653.06347 253225306.50046  20784248.9304                   20784244.2274
 283773293.27747 221168763.57044  22308606.8834                   22308604.0984
 303705188.52048 236718636.05146  20422538.3594                   20422536.0634
 321393094.37546 250855718.25044  22923129.6414                   22923129.4574
 338245153.87147 263808437.49645  21389204.0004                   21389201.7034
 352670775.25447 274848934.35544  22545033.0084                   22545030.6134
 267591624.535 6                  23749358.227
 334943479.64847 261155042.27344  22518515.0164                   22518514.5164
 366268304.27046 285457721.45743  23771966.8134                   23771965.7624
 11  7 25  1 22 30.0000000  0  9G02G17G04G27G10G12G28G09G05
 324783955.88747 253125802.22746  20759949.0474                   20759944.5664
 283721803.36347 221128641.57444  22298808.1884                   22298805.4494
 303662211.79348 236685147.70346  20414360.4774                   20414357.8094
 321346044.16446 250819055.69544  22914176.9224                   22914176.3524
 338092010.81647 263689105.28545  21360061.7584                   21360059.4494
 352488534.96147 274706928.94944  22510353.1954                   22510351.4574
 267592175.97746 209379392.29342  23749462.4144                   23749458.5824
 334901513.33246 261122341.20344  22510529.5864                   22510529.1954
 366066248.01246 285300275.17643  23733516.4844                   23733516.1844
 11  7 25  1 23  0.0000000  0  9G02G17G04G27G10G12G28G09G05
 324656674.83647 253026622.21946  20735727.9694                   20735723.4804
 283670475.96947 221088646.22345  22289041.3984                   22289039.0084
 303619644.03148 236651978.02046  20406259.7034                   20406257.3754
 321299345.09446 250782666.73844  22905290.5474                   22905289.8204
 337939400.96547 263570188.57045  21331020.8364                   21331019.3444
 352306568.65247 274565137.05144  22475726.2584                   22475723.6644
 267593016.87946 209380047.53543  23749622.5314                   23749620.7384
 334860047.45746 261090030.09844  22502639.4064                   22502638.0314
 365864270.93446 285142890.58244  23695080.7814                   23695081.2384
 11  7 25  1 23 30.0000000  0  9G02G17G04G27G10G12G28G09G05
 324529813.46147 252927769.22746  20711587.3674                   20711582.4494
 283619315.31347 221048780.79744  22279305.6334                   22279303.0234
 303577486.85248 236619128.27346  20398237.6564                   20398235.4144
 321252998.33246 250746552.32043  22896470.9454                   22896469.8834
 337787330.18047 263451691.90245  21302082.7974                   21302081.1334
 352124882.69547 274423563.57844  22441152.5234                   22441150.4614
 267594149.11746 209380929.73043  23749838.3054                   23749836.6484
 334819082.69946 261058109.45344  22494843.3674                   22494842.5634
 365662379.72747 284985572.91844  23656661.8834                   23656662.2854
 11  7 25  1 24  0.0000000  0  9G02G17G04G27G10G12G28G09G05
 324403372.97347 252829244.18446  20687526.2974                   20687521.7424
 283568323.35947 221009046.78944  22269602.6254                   22269600.0904
 303535739.17647 236586597.61746  20390292.9384                   20390290.6484
 321207002.83246 250710711.62543  22887718.5164                   22887717.4774
 337635802.54347 263333618.46945  21273247.5944                   21273245.8794
 351943480.99647 274282211.62944  22406633.0394                   22406630.9454
 267595572.48445 209382038.78142  23750109.1174                   23750107.7934
 334778617.70746 261026578.25044  22487143.4844                   22487142.8244
 365460578.61346 284828325.41444  23618261.1254                   23618260.0704
 11  7 25  1 24 30.0000000  0  9G02G17G04G27G10G12G28G09G05
 324277349.41047 252731044.02746  20663544.9614                   20663540.4264
 283517496.95347 220969441.75444  22259930.1024                   22259927.8164
 303494395.02047 236554381.39845  20382425.6564                   20382423.2304
 321161352.52347 250675139.88344  22879031.1884                   22879030.3794
 337484817.08647 263215967.50045  21244516.8984                   21244514.9574
 351762362.44547 274141080.32445  22372167.2814                   22372165.1134
 267597281.71545 209383370.52742  23750433.7814                   23750433.8284
 334738645.60246 260995431.10244  22479537.2504                   22479536.0984
 365258866.70346 284671147.47743  23579875.8054                   23579875.5124
 11  7 25  1 25  0.0000000  0  9G02G17G04G27G10G12G28G09G05
 325727170.58647 253860774.83646  20939436.5314                   20939431.9304
 285042262.28547 222157570.56644  22550083.1174                   22550081.2734
 305028877.38748 237750081.94146  20674427.9844                   20674425.7114
 322691470.44146 251867439.51643  23170202.7274                   23170202.6414
 338909805.13347 264326347.84845  21515682.6334                   21515680.1294
 353156959.57847 275227779.43044  22637549.9224                   22637547.5434
 269174698.69945 210612526.47342  24050607.1724                   24050606.3404
 336274588.48846 262192269.67644  22771816.5474                   22771816.4654
 366632677.57446 285741649.60543  23841303.0004                   23841302.4884
 11  7 25  1 25 30.0000000  0  9G02G17G04G27G10G12G28G09G05
 325601984.25447 253763227.07046  20915614.7734                   20915610.1214
 284991772.95347 222118228.22744  22540475.5314                   22540473.2384
 304988337.91447 237718492.73845  20666713.5004                   20666711.4774
 322646507.60546 251832403.47744  23161647.1334                   23161646.4184
 338759915.99647 264209551.18445  21487160.0164                   21487157.5274
 352976419.28147 275087098.69544  22603195.0704                   22603192.2544
 269176978.34446 210614302.80942  24051040.6334                   24051039.1024
 336235597.60546 262161887.13344  22764397.7814                   22764397.0234
 366431157.21146 285584620.87543  23802954.6174                   23802954.2384
 11  7 25  1 26  0.0000000  0  9G02G17G04G27G10G12G28G09G05
 325477212.64847 253666002.45746  20891871.5164                   20891867.2584
 284941449.35247 222079015.03144  22530898.8674                   22530896.5664
 304948194.00047 237687211.76245  20659074.3754                   20659072.5004
 322601881.68046 251797629.97343  23153154.9224                   23153154.3094
 338610575.68047 264093182.12945  21458740.8834                   21458738.6954
 352796168.65247 274946643.68444  22568894.3284                   22568891.7774
 269179537.19546 210616296.75042  24051527.7194                   24051526.3834
 336197089.70346 262131880.90244  22757071.0394                   22757069.1914
 366229733.75046 285427667.62943  23764626.0164                   23764624.9574
 11  7 25  1 26 30.0000000  0  9G02G17G04G27G10G12G28G09G05
 325352863.68447 253569107.18045  20868208.5944                   20868203.4884
 284891300.71947 222039938.14844  22521355.7424                   22521354.5004
 304908451.62547 237656243.68445  20651511.5164                   20651509.5664
 322557598.44946 251763123.51243  23144727.4924                   23144726.8364
 338461795.10547 263977249.27045  21430428.9844                   21430426.8954
 352616218.82047 274806423.05544  22534650.3524                   22534648.2734
 269182381.62546 210618513.11342  24052068.5084                   24052068.4924
 336159070.01646 262102255.12944  22749834.9924                   22749834.5394
 366028418.34446 285270798.59843  23726315.6254                   23726315.6054
 11  7 25  1 27  0.0000000  0  9G02G17G04G27G10G12G28G09G05
 325228929.86747 253472535.40646  20844624.4064                   20844620.0944
 284841319.94547 222000992.05944  22511845.2974                   22511842.9804
 304869101.15247 237625580.98445  20644023.8134                   20644021.0204
 322513647.89847 251728876.25443  23136365.0784                   23136364.0664
 338313569.78147 263861749.06645  21402222.9614                   21402220.7034
 352436564.98047 274666433.09845  22500463.9774                   22500461.1484
 269185502.45346 210620944.94142  24052662.4384                   24052662.2974
 336121528.01646 262073001.56344  22742691.4534                   22742690.4224
 365827206.64546 285114010.38743  23688026.5784                   23688026.1724
 11  7 25  1 27 30.0000000  0  9G02G17G04G27G10G12G28G09G05
 325105412.59447 253376288.19146  20821119.7974                   20821115.5664
 284791509.35247 221962178.60244  22502366.6564                   22502364.6214
 304830142.01648 237595223.20345  20636609.7974                   20636607.9694
 322470029.27746 251694887.65243  23128064.5314                   23128064.2034
 338165903.70747 263746684.65245  21374122.2664                   21374120.1294
 352257211.26247 274526676.98845  22466333.7584                   22466331.8204
 269188899.64146 210623592.09442  24053309.7584                   24053308.8874
 336084462.41046 262044119.23844  22735637.9454                   22735637.0944
 365626103.08146 284957306.47043  23649757.9384                   23649757.3094
 11  7 25  1 28  0.0000000  0  9G02G17G04G27G10G12G28G09G05
 324982307.63347 253280362.26646  20797693.7114                   20797689.1134
 284741865.85247 221923495.32044  22492920.1564                   22492917.4414
 304791568.37947 237565165.82445  20629269.3444                   20629267.1484
 322426736.73046 251661153.14543  23119826.1564                   23119825.3094
 338018795.92247 263632055.23845  21346129.2274                   21346126.8594
 352078156.73447 274387154.02744  22432261.0164                   22432258.1214
 269192567.58646 210626450.14542  24054007.0314                   24054006.9804
 336047866.77346 262015603.09444  22728673.9304                   22728672.9614
 365425107.05146 284800686.33243  23611509.6484                   23611509.7934
 11  7 25  1 28 30.0000000  0  8G02G17G04G27G10G12G09G05
 324859612.18847 253184755.45345  20774345.8054                   20774340.9884
 284692387.39547 221884940.68444  22483504.4304                   22483502.1054
 304753375.38747 237535405.05945  20622001.5164                   20621998.9024
 322383765.14546 251627668.73043  23111648.3674                   23111648.4494
 337872246.29747 263517860.77045  21318241.1174                   21318239.4304
 351899401.58247 274247864.34045  22398244.8364                   22398241.7854
 336011735.34446 261987448.69144  22721798.8674                   22721796.9964
 365224219.05946 284644150.37144  23573281.9384                   23573281.7274
 11  7 25  1 29  0.0000000  0  8G02G17G04G27G10G12G09G05
 324737331.60947 253089471.88746  20751076.2504                   20751071.8324
 284643080.77747 221846519.90244  22474122.3754                   22474119.1994
 304715566.59047 237505943.64545  20614807.1024                   20614804.5474
 322341117.62146 251594436.85943  23103533.0864                   23103532.6414
 337726263.37147 263404107.88745  21290461.6724                   21290459.9844
 351720953.90247 274108814.23844  22364287.8204                   22364285.0554
 335976071.12946 261959658.32844  22715012.1884                   22715010.8204
 365023447.81346 284487705.34444  23535076.4534                   23535076.5744
 11  7 25  1 29 30.0000000  0  8G02G17G04G27G10G12G09G05
 324615469.74647 252994514.60946  20727886.9064                   20727882.5004
 284593949.93447 221808236.11344  22464772.3674                   22464770.4024
 304678143.83647 237476783.05945  20607685.7274                   20607683.5044
 322298796.08246 251561458.94544  23095479.7504                   23095479.6724
 337580853.66847 263290801.66045  21262791.2114                   21262789.2934
 351542820.74247 273970009.23845  22330389.8204                   22330387.3054
 335940875.14146 261932232.86344  22708314.3524                   22708312.9774
 364822800.47346 284331356.87144  23496894.4614                   23496894.7074
 11  7 25  1 30  0.0000000  0  8G02G17G04G27G10G12G09G05
 324494023.71547 252899881.36346  20704776.2504                   20704771.6454
 284544993.45347 221770088.17644  22455456.5164                   22455454.1804
 304641102.26247 237447919.50445  20600636.6174                   20600634.4774
 322256795.44546 251528731.14843  23087487.4694                   23087486.9614
 337436017.28547 263177942.18845  21235229.5634                   21235227.8754
 351365002.34047 273831449.50044  22296551.8134                   22296549.6844
 335906141.79746 261905167.87143  22701703.8834                   22701704.0004
 364622277.35946 284175105.19144  23458736.2664                   23458735.7234
 11  7 25  1 30 30.0000000  0  8G02G17G04G27G10G12G09G05
 324372995.39847 252805573.61346  20681745.3594                   20681740.9774
 284496214.22347 221732078.39844  22446174.3594                   22446171.2894
 304604442.05547 237419353.11745  20593660.2664                   20593658.3244
 322215115.45346 251496253.13743  23079556.0234                   23079556.3984
 337291758.88347 263065533.08245  21207778.2194                   21207776.3794
 351187503.34447 273693138.65644  22262775.1724                   22262772.3244
 335871870.62546 261878463.01644  22695183.1334                   22695182.4024
 364421883.87546 284018954.57444  23420601.8134                   23420601.2504
 11  7 25  1 31  0.0000000  0  8G02G17G04G27G10G12G09G05
 324252388.47747 252711594.21946  20658794.7114                   20658790.0004
 284447616.83647 221694210.27744  22436925.6804                   22436924.0434
 304568164.98047 237391085.27345  20586757.4384                   20586755.0824
 322173757.79746 251464026.34843  23071685.6644                   23071685.4064
 337148085.07447 262953579.50045  21180437.6724                   21180435.8984
 351010330.62947 273555082.03544  22229059.6644                   22229057.7074
 335838062.37946 261852118.89544  22688749.5084                   22688748.7424
 364221627.01646 283862910.40243  23382494.8364                   23382493.7234
 11  7 25  1 31 30.0000000  0  8G02G17G04G27G10G12G09G05
 324132196.41847 252617938.09046  20635922.5784                   20635918.2274
 284399195.50447 221656479.35244  22427711.6804                   22427710.0164
 304532262.32847 237363109.17645  20579925.2274                   20579922.8874
 322132713.80546 251432044.00044  23063876.2194                   23063875.7504
 337004992.08647 262842078.52045  21153208.4224                   21153206.1414
 350833480.44547 273417276.75044  22195406.3674                   22195403.7734
 335804707.46946 261826127.99644  22682401.9144                   22682401.0704
 364021503.37946 283706970.03544  23344412.0944                   23344411.7854
 11  7 25  1 32  0.0000000  0  8G02G17G04G27G10G12G09G05
 324012420.27047 252524606.04746  20613129.9844                   20613125.7814
 284350952.60247 221618887.49244  22418532.1024                   22418529.2114
 304496733.68047 237335424.52045  20573164.0474                   20573162.2304
 322091982.33546 251400305.14643  23056125.1954                   23056124.1914
 336862483.97347 262731033.28545  21126089.5704                   21126087.7734
 350656957.14847 273279726.17245  22161815.5084                   22161812.8714
 335771804.58246 261800489.36344  22676141.2194                   22676140.7584
 363821517.69146 283551137.14543  23306355.5004                   23306355.8594
 11  7 25  1 32 30.0000000  0  8G02G17G04G27G10G12G09G05
 323893056.56347 252431595.39546  20590416.0004                   20590411.9344
 284302885.39147 221581432.53544  22409384.1174                   22409382.8204
 304461573.69947 237308027.13745  20566473.8054                   20566471.6804
 322051558.03146 251368805.64843  23048432.6644                   23048432.6954
 336720560.11347 262620443.30545  21099082.5314                   21099080.4574
 350480760.20347 273142429.88345  22128286.1724                   22128283.6024
 335739347.67646 261775198.18044  22669966.3284                   22669963.9924
 363621670.02046 283395411.84043  23268325.8284                   23268325.9654
 11  7 25  1 33  0.0000000  0  8G02G17G04G27G10G12G09G05
 325349531.86347 253566511.23046  20867574.7034                   20867569.4884
 285830419.50847 222771718.84044  22700065.3204                   22700063.0634
 306002204.19947 238508518.43445  20859645.8524                   20859643.6334
 323586862.72746 252565146.89143  23340591.6484                   23340590.8404
 338154650.21147 263737916.13345  21371981.3134                   21371978.9774
 351880321.29347 274232996.99645  22394613.8754                   22394611.4064
 337282757.65246 262977855.26243  22963666.0474                   22963665.2424
 364997392.88746 284467403.83643  23530116.9454                   23530117.4414
 11  7 25  1 33 30.0000000  0  8G02G17G04G27G10G12G09G05
 325230995.69147 253474145.41046  20845017.6564                   20845012.7624
 285782709.77347 222734542.44944  22690986.2974                   22690983.1884
 305967778.68447 238481693.35545  20853095.0234                   20853092.5704
 323547049.34446 252534123.44543  23333014.0314                   23333014.3674
 338013905.83647 263628245.23445  21345197.9694                   21345196.0044
 351704789.76247 274096219.21945  22361210.9304                   22361208.6094
 337251187.49646 262953255.10244  22957658.5864                   22957657.8674
 364797834.23446 284311903.73044  23492141.9144                   23492142.2234
 11  7 25  1 34  0.0000000  0  8G02G17G04G27G10G12G09G05
 325112871.89147 253382100.91846  20822539.3444                   20822534.6334
 285735178.93847 222697505.40644  22681941.3204                   22681938.7854
 305933716.38747 238455151.30545  20846613.1254                   20846610.9534
 323507536.60546 252503334.25844  23325496.5704                   23325495.7194
 337873753.89147 263519035.96145  21318527.8364                   21318526.0434
 351529593.59047 273959702.75045  22327872.3834                   22327869.5594
 337220055.25846 262928996.19543  22951734.7584                   22951733.3204
 364598423.70746 284156519.04744  23454195.9304                   23454194.9574
 11  7 25  1 34 30.0000000  0  8G02G17G04G27G10G12G09G05
 324995158.49247 253290376.22746  20800139.0084                   20800134.7664
 285687825.90647 222660606.95744  22672930.4614                   22672927.9064
 305900013.05547 238428888.94145  20840199.9304                   20840197.3284
 323468320.46546 252472776.21143  23318033.3834                   23318032.9924
 337734195.20347 263410288.96145  21291970.7664                   21291968.9414
 351354733.93047 273823448.49645  22294597.4064                   22294594.8554
 337189355.87946 262905074.52044  22945891.8594                   22945891.5904
 364399162.50846 284001250.71144  23416278.0234                   23416276.6564
 11  7 25  1 35  0.0000000  0  8G02G17G04G27G10G12G09G05
 324877852.59847 253198969.06646  20777816.5394                   20777811.7194
 285640649.22347 222623845.89544  22663953.1884                   22663950.6524
 305866664.41847 238402902.98045  20833853.8914                   20833851.1374
 323429396.20346 252442445.51643  23310627.2894                   23310626.8954
 337595229.90647 263302004.34845  21265526.5784                   21265524.4964
 351180211.79347 273687457.26645  22261386.9844                   22261384.4224
 337159084.30146 262881486.22743  22940131.9064                   22940130.9924
 364200051.91446 283846099.73844  23378387.3284                   23378387.3524
 11  7 25  1 35 30.0000000  0  8G02G17G04G27G10G12G09G05
 324760955.25447 253107880.25446  20755571.6254                   20755566.4024
 285593651.04747 222587223.96544  22655009.4774                   22655007.0704
 305833669.82047 238377192.88745  20827574.6254                   20827572.4964
 323390762.74246 252412341.51243  23303275.5864                   23303274.4224
 337456861.78947 263194185.10245  21239195.9064                   21239193.7234
 351006030.66847 273551731.74245  22228241.5634                   22228238.7504
 337129239.09846 262858230.19144  22934452.6644                   22934451.4064
 364001096.10946 283691069.40644  23340527.2274                   23340526.9104
 11  7 25  1 36  0.0000000  0  8G02G17G04G27G10G12G09G05
 324644469.84847 253017112.44146  20733404.9844                   20733399.9884
 285546835.60247 222550744.42644  22646099.9774                   22646098.0634
 305801030.98047 238351760.00445  20821363.9924                   20821361.6094
 323352421.41846 252382465.13743  23295978.4304                   23295978.2854
 337319096.74647 263086835.75845  21212980.3444                   21212978.0984
 350832197.57847 273416277.41845  22195162.0784                   22195159.9144
 337099820.71946 262835306.70343  22928855.1564                   22928853.7274
 363802301.99247 283536165.05144  23302697.5864                   23302697.3914
 11  7 25  1 36 30.0000000  0  8G02G17G04G27G10G12G09G05
 324528390.25447 252926660.83646  20711316.0164                   20711311.4104
 285500197.75847 222514403.25844  22637225.6024                   22637222.5434
 305768739.69547 238326597.96145  20815219.3834                   20815216.7704
 323314363.89146 252352809.89143  23288736.6724                   23288735.8524
 337181931.37947 262979953.67645  21186878.5634                   21186876.2234
 350658709.19547 273281091.69545  22162148.4224                   22162146.1764
 337070820.11746 262812708.78943  22923336.1484                   22923335.5634
 363603666.94946 283381384.65244  23264898.6024                   23264898.6844
 11  7 25  1 37  0.0000000  0  8G02G17G04G27G10G12G09G05
 324412717.30547 252836526.10246  20689304.1564                   20689299.8204
 285453739.75447 222478202.21144  22628384.7114                   22628383.0274
 305736795.34047 238301706.23045  20809140.5004                   20809137.8984
 323276589.09446 252323374.92643  23281548.4144                   23281547.8244
 337045369.21547 262873541.63345  21160891.5634                   21160889.0124
 350485569.70747 273146177.84045  22129201.3054                   22129198.4344
 337042235.90246 262790435.30943  22917897.2584                   22917896.0704
 363405195.71146 283226731.89544  23227130.8204                   23227130.6214
 11  7 25  1 37 30.0000000  0  8G02G17G04G27G10G12G09G05
 324297450.35547 252746707.72346  20667369.6724                   20667364.8364
 285407462.26247 222442141.81344  22619579.0234                   22619576.7194
 305705195.53547 238277082.98845  20803127.1414                   20803124.8014
 323239094.53946 252294158.32043  23274413.4534                   23274413.1524
 336909412.65647 262767601.50045  21135019.5704                   21135016.9844
 350312781.95747 273011538.08245  22096320.5554                   22096317.7234
 337014064.96946 262768483.90643  22912535.8134                   22912534.6804
 363206890.91446 283072208.82443  23189395.1414                   23189394.1524
 11  7 25  1 38  0.0000000  0  8G02G17G04G27G10G12G09G05
 324182586.38747 252657203.34846  20645511.7734                   20645506.6684
 285361362.69947 222406220.06644  22610806.4304                   22610804.0784
 305673935.34847 238252724.38745  20797178.8134                   20797176.2274
 323201874.71546 252265155.80143  23267330.5634                   23267330.4884
 336774061.25047 262662132.91445  21109263.2894                   21109261.0784
 350140345.40647 272877171.98045  22063507.4454                   22063504.4224
 336986301.06646 262746849.66043  22907253.4144                   22907251.4224
 363008752.74246 282917815.55944  23151690.4924                   23151689.4224
 11  7 25  1 38 30.0000000  0  8G02G17G04G27G10G12G09G05
 324068129.68847 252568016.34046  20623731.5084                   20623726.4414
 285315446.84047 222370441.49244  22602069.3754                   22602066.1954
 305643017.48847 238228632.52745  20791295.0164                   20791293.0514
 323164932.00046 252236369.23443  23260299.9534                   23260300.3594
 336639322.12147 262557141.41845  21083623.3364                   21083621.1134
 349968267.93447 272743085.67245  22030762.0704                   22030759.1764
 336958946.04346 262725534.02343  22902047.4384                   22902046.2584
 362810789.56647 282763558.62944  23114019.2194                   23114018.0824
 11  7 25  1 39  0.0000000  0  8G02G17G04G27G10G12G09G05
 323954073.30547 252479141.25446  20602026.7734                   20602022.1564
 285269709.13746 222334801.69944  22593364.6954                   22593363.2384
 305612433.28947 238204800.66445  20785475.1334                   20785472.6764
 323128257.57846 252207791.68443  23253321.3984                   23253321.7154
 336505190.97347 262452623.68445  21058099.1724                   21058096.8954
 349796546.03147 272609276.43445  21998083.9304                   21998080.9224
 336931990.26246 262704529.45344  22896917.8914                   22896917.4964
 362612997.90246 282609435.40244  23076380.7974                   23076379.9144
 11  7 25  1 39 30.0000000  0  8G02G17G04G27G10G12G09G05
 323840418.73047 252390579.27746  20580398.9304                   20580394.3834
 285224152.42247 222299302.94144  22584696.3754                   22584694.1094
 305582182.85247 238181228.88745  20779718.3754                   20779716.0634
 323091851.19946 252179423.02043  23246393.9694                   23246394.0394
 336371672.10947 262348583.04345  21032691.5314                   21032688.9064
 349625184.48047 272475747.98045  21965475.1804                   21965472.2384
 336905432.83646 262683835.33644  22891864.5554                   22891862.8094
 362415383.37946 282455450.21144  23038775.8524                   23038775.2344
 11  7 25  1 40  0.0000000  0  8G02G17G04G27G10G12G09G05
 323727162.25047 252302327.48846  20558847.3284                   20558842.6094
 285178773.46146 222263942.70344  22576060.2274                   22576058.3244
 305552260.20747 238157912.54745  20774024.9844                   20774021.9694
 323055706.44546 252151258.19543  23239516.0164                   23239515.7234
 336238763.89847 262245018.23445  21007398.9454                   21007397.4964
 349454182.07047 272342499.40245  21932934.3204                   21932931.6254
 336879266.78146 262663446.16044  22886885.5704                   22886884.1484
 362217944.97346 282301602.23443  23001204.9454                   23001203.5554
 11  7 25  1 40 30.0000000  0  8G02G17G04G27G10G12G09G05
 323614306.21147 252214387.73846  20537371.5164                   20537366.7814
 285133576.21547 222228724.04344  22567460.1414                   22567458.1644
 305522666.48847 238134852.49645  20768392.4384                   20768390.7734
 323019823.93446 252123297.71143  23232688.2034                   23232687.6684
 336106471.70347 262141933.44145  20982225.2424                   20982223.1994
 349283544.86747 272209535.39845  21900463.7664                   21900460.5474
 336853491.96546 262643361.87143  22881980.2814                   22881979.8134
 362020689.14847 282147896.44944  22963668.1954                   22963666.6884
 11  7 25  1 41  0.0000000  0  8G02G17G04G27G10G12G09G05
 323501850.83247 252126760.18446  20515972.0554                   20515966.7274
 285088561.77747 222193647.82844  22558893.5634                   22558891.6604
 305493400.08247 238112047.49645  20762823.9454                   20762821.5664
 322984201.76246 252095540.11743  23225908.5554                   23225908.5124
 335974798.30147 262039330.82045  20957168.2894                   20957165.9304
 349113276.39847 272076858.70745  21868062.3444                   21868059.4844
 336828106.18846 262623580.69943  22877149.5634                   22877148.6334
 361823619.93447 281994336.10944  22926167.0394                   22926165.3524
 11  7 25  1 41 30.0000000  0  8G02G17G04G27G10G12G09G05
 324965210.09447 253267040.14546  20794440.1414                   20794434.8134
 286619143.18047 223386308.63744  22850153.6804                   22850151.0394
 307039870.50447 239317089.37545  21057107.5394                   21057105.6414
 324524249.27046 253295577.06343  23518970.2034                   23518969.8634
 337419160.40647 263164807.80545  21232021.9454                   21232019.3324
 350518795.48047 273172068.41445  22135523.8204                   22135521.0234
 338378517.52346 263831693.37944  23172183.1644                   23172182.8674
 363202157.08247 283068521.04344  23188493.3834                   23188492.4654
 11  7 25  1 42  0.0000000  0  8G02G17G04G27G10G12G09G05
 324853540.02747 253180024.52346  20773189.7584                   20773185.0864
 286574482.68047 223351508.22744  22841655.5944                   22841653.2234
 307011237.87547 239294778.23445  21051658.9384                   21051656.5274
 324489126.14846 253268208.29743  23512286.8364                   23512286.5704
 337288716.32047 263063163.09445  21207198.9454                   21207196.2974
 350349258.04747 273039961.38745  22103261.9454                   22103258.7584
 338353885.97746 263812499.94543  23167495.9454                   23167494.5164
 363005455.38346 282915247.12144  23151061.9454                   23151061.3094
 11  7 25  1 42 30.0000000  0  8G02G17G04G27G10G12G09G05
 324742272.65647 253093322.69546  20752016.6484                   20752011.7194
 286530010.92247 223316854.87144  22833193.2114                   22833190.6604
 306982929.98447 239272720.13345  21046272.0704                   21046269.8554
 324454259.53546 253241039.43843  23505652.6564                   23505651.9224
 337158900.76247 262962008.16045  21182495.5864                   21182493.1134
 350180100.99647 272908150.74245  22071072.1254                   22071069.5434
 338329637.50846 263793605.00843  23162881.2194                   23162880.4304
 362808953.19546 282762128.67644  23113668.9304                   23113668.1524
 11  7 25  1 43  0.0000000  0  8G02G17G04G27G10G12G09G05
 324631395.14147 253006924.65646  20730917.2274                   20730912.2154
 286485716.48447 223282339.69944  22824764.0944                   22824761.3244
 306954932.63347 239250904.01245  21040944.1024                   21040942.1914
 324419634.80946 253214059.04743  23499063.9614                   23499063.4344
 337029704.00847 262861335.38745  21157910.1884                   21157907.7384
 350011314.98447 272776629.21945  22038953.0004                   22038950.0084
 338305757.08646 263774996.83643  23158336.8364                   23158335.8594
 362612641.45746 282609158.59044  23076312.3984                   23076311.2194
 11  7 25  1 43 30.0000000  0  8G02G17G04G27G10G12G09G05
 324520912.73447 252920834.48446  20709892.6724                   20709888.3714
 286441605.49647 223247967.49244  22816369.8674                   22816367.6414
 306927248.75047 239229332.12945  21035676.1174                   21035673.8204
 324385254.64846 253187269.22343  23492521.0784                   23492521.1054
 336901133.13747 262761150.32045  21133444.3134                   21133441.7544
 349842908.01647 272645403.05145  22006906.7664                   22006903.2384
 338282246.85546 263756677.11343  23153863.8444                   23153862.8984
 362416528.68047 282456343.54744  23038993.3524                   23038992.3554
 11  7 25  1 44  0.0000000  0  8G02G17G04G27G10G12G09G05
 324410825.45747 252835052.21146  20688943.7894                   20688938.8364
 286397679.38347 223213739.32444  22808010.9064                   22808008.5394
 306899876.85547 239208003.37145  21030468.1484                   21030465.6524
 324351117.58246 253160668.82843  23486025.6414                   23486025.0744
 336773190.82847 262661455.06345  21109097.4924                   21109095.0824
 349674883.68847 272514475.03945  21974931.9614                   21974929.3674
 338259104.16046 263738643.79343  23149459.6564                   23149459.0354
 362220618.59047 282303686.45744  23001712.8524                   23001712.1374
 11  7 25  1 44 30.0000000  0  8G02G17G04G27G10G12G09G05
 324301129.64147 252749574.97746  20668069.2814                   20668064.4844
 286353935.88346 223179653.49644  22799686.8284                   22799684.6024
 306872812.24247 239186914.06345  21025317.3524                   21025314.9064
 324317217.83646 253134253.37943  23479574.1414                   23479573.6604
 336645876.21547 262562248.91845  21084870.6484                   21084867.5824
 349507241.98447 272383845.18045  21943030.8834                   21943028.3674
 338236323.10546 263720892.31643  23145124.1804                   23145123.6334
 362024911.55546 282151187.60544  22964471.1094                   22964469.4384
 11  7 25  1 45  0.0000000  0  8G02G17G04G27G10G12G09G05
 324191818.78147 252664397.69146  20647268.5164                   20647263.2584
 286310369.62147 223145705.74244  22791396.7734                   22791394.4844
 306846046.50447 239166057.62945  21020224.1094                   21020221.5354
 324283546.66046 253108016.01643  23473166.2894                   23473167.8014
 336519184.87547 262463528.43045  21060761.9924                   21060759.2234
 349339978.82447 272253510.29345  21911201.8674                   21911199.0124
 338213894.35246 263703415.29343  23140856.9694                   23140855.7114
 361829404.57446 281998844.62144  22927266.9384                   22927265.6214
 11  7 25  1 45 30.0000000  0  8G02G17G04G27G10G12G09G05
 324082901.50847 252579527.10946  20626542.2584                   20626537.0744
 286266990.82847 223111904.07444  22783142.2274                   22783138.6884
 306819586.86347 239145439.71945  21015188.9224                   21015186.6604
 324250111.11746 253081962.28143  23466804.4774                   23466804.7424
 336393128.40647 262365302.65245  21036773.8754                   21036771.0314
 349173107.13747 272123480.44145  21879446.9844                   21879444.5394
 338191824.10546 263686217.66443  23136656.1884                   23136656.8794
 361634110.23047 281846667.30544  22890104.1644                   22890102.4184
 11  7 25  1 46  0.0000000  0  8G02G17G04G27G10G12G09G05
 323974374.26247 252494960.43846  20605890.1174                   20605884.9454
 286223796.87947 223078246.44144  22774922.4304                   22774919.3404
 306793428.25047 239125056.38345  21010211.2424                   21010208.5394
 324216905.27346 253056087.54743  23460485.0474                   23460486.0204
 336267705.35947 262267570.45345  21012906.5314                   21012904.2734
 349006626.22747 271993755.10245  21847766.9844                   21847764.0594
 338170105.94546 263669294.34443  23132523.6094                   23132524.0314
 361439028.64847 281694655.78144  22852981.0004                   22852979.4774
 11  7 25  1 46 30.0000000  0  8G02G17G04G27G10G12G09G05
 323866234.81347 252410695.94546  20585311.6484                   20585307.0864
 286180786.97346 223044732.25444  22766737.6094                   22766735.6334
 306767566.88747 239104904.66845  21005289.6484                   21005287.5274
 324183925.18446 253030388.72743  23454210.5864                   23454210.1604
 336142916.16447 262170332.17245  20989159.6094                   20989157.3204
 348840537.20747 271864335.12145  21816161.6094                   21816158.7774
 338148734.91846 263652641.54743  23128457.2504                   23128456.7584
 361244161.40246 281542811.28944  22815898.7344                   22815897.1254
 11  7 25  1 47  0.0000000  0  8G02G17G04G27G10G12G09G05
 323758481.39847 252326732.25846  20564807.1724                   20564802.0204
 286137960.71146 223011361.12944  22758588.4064                   22758586.3094
 306741999.63347 239084982.12945  21000425.1644                   21000422.1334
 324151167.26246 253004863.01443  23447976.3914                   23447976.2974
 336018761.59847 262073588.41045  20965533.9534                   20965531.9264
 348674841.57047 271735221.68045  21784630.6954                   21784627.9264
 338127706.91446 263636256.02043  23124456.0944                   23124454.9654
 361049510.44947 281391135.32844  22778857.7114                   22778856.2504
 11  7 25  1 47 30.0000000  0  8G02G17G04G27G10G12G09G05
 323651112.49647 252243068.18046  20544375.5314                   20544370.5904
 286095318.26246 222978133.24644  22750473.4224                   22750471.0514
 306716723.45347 239065286.40645  20995614.5394                   20995612.1914
 324118627.77746 252979507.53943  23441784.0314                   23441783.8284
 335895242.43047 261977339.76645  20942028.7894                   20942026.6994
 348509541.13747 271606416.18845  21753174.7814                   21753171.8164
 338107017.70746 263620134.49643  23120518.8444                   23120517.7894
 360855078.03947 281239629.64844  22741858.4844                   22741856.8324
 11  7 25  1 48  0.0000000  0  8G02G17G04G27G10G12G09G05
 323544126.05147 252159702.13346  20524016.6644                   20524011.7624
 286052857.98047 222945047.31344  22742393.5864                   22742391.5354
 306691734.70747 239045814.66445  20990859.1484                   20990857.4304
 324086302.98446 252954319.27043  23435633.3364                   23435632.5314
 335772358.87547 261881586.37545  20918645.2974                   20918642.8324
 348344636.96547 271477919.45345  21721794.7504                   21721791.5434
 338086662.52346 263604273.24243  23116645.4614                   23116644.8914
 360660865.62147 281088295.40244  22704901.4224                   22704899.1914
 11  7 25  1 48 30.0000000  0  8G02G17G04G27G10G12G09G05
 323437523.49247 252076635.21946  20503730.8524                   20503725.9024
 286010582.89147 222912105.66044  22734349.1564                   22734347.4144
 306667033.39847 239026566.90245  20986158.9144                   20986156.7274
 324054192.28546 252929297.93843  23429522.6724                   23429522.4104
 335650114.68847 261786331.19545  20895381.9844                   20895380.0004
 348180134.52047 271349735.77045  21690490.4924                   21690487.5904
 338066640.63746 263588671.72743  23112835.0704                   23112834.7384
 360466878.75847 280937136.93044  22667986.5234                   22667984.6054
 11  7 25  1 49  0.0000000  0  8G02G17G04G27G10G12G09G05
 323331305.26647 251993867.78546  20483517.9224                   20483513.3524
 285968495.04346 222879309.96144  22726340.4304                   22726337.7774
 306642618.57447 239007542.36345  20981512.3284                   20981510.5704
 324022294.22746 252904442.25043  23423452.3834                   23423453.1054
 335528512.62947 261691576.38345  20872242.4844                   20872240.2664
 348016037.23047 271221867.79345  21659263.8754                   21659260.7424
 338046949.78146 263573328.13743  23109088.5394                   23109087.1174
 360273121.68447 280786157.48444  22631115.8054                   22631113.7544
 11  7 25  1 49 30.0000000  0  8G02G17G04G27G10G12G09G05
 323225467.70347 251911396.96546  20463378.0234                   20463373.0314
 285926592.12946 222846658.35244  22718365.5864                   22718363.6604
 306618485.18047 238988737.12945  20976920.2734                   20976918.1524
 323990603.16446 252879747.94143  23417422.3754                   23417421.9694
 335407551.69947 261597321.16445  20849224.2114                   20849222.4804
 347852344.35247 271094314.92245  21628114.6094                   21628110.8834
 338027583.59446 263558237.55543  23105403.2974                   23105402.0554
 360079594.36747 280635357.08244  22594288.4774                   22594287.0984
 11  7 25  1 50  0.0000000  0  8G02G17G04G27G10G12G09G05
 324695432.03147 253056823.72346  20743103.0394                   20743098.2814
 287460294.62946 224041751.19144  23010219.5634                   23010217.8244
 308170050.39847 240197749.00045  21272173.4534                   21272171.3054
 325534536.14846 254082812.58243  23711222.2734                   23711223.0634
 336862655.85947 262731168.59845  21126121.5164                   21126118.9734
 349264483.01647 272194682.76645  21896835.4924                   21896832.3554
 339583957.81346 264770996.60543  23401571.2974                   23401571.3284
 361461725.14147 281712342.21144  22857299.1334                   22857297.2384
 11  7 25  1 50 30.0000000  0  8G02G17G04G27G10G12G09G05
 324590354.22347 252974944.92246  20723107.1564                   20723102.0274
 287418763.69146 224009389.39144  23002317.0004                   23002314.7274
 308146474.00047 240179377.79345  21267687.2814                   21267684.5904
 325503251.61746 254058434.97743  23705269.1954                   23705269.5704
 336742982.35247 262637916.55545  21103348.6954                   21103345.7854
 349101608.09847 272067767.28145  21865841.2974                   21865837.8914
 339565231.49246 264756404.60543  23398007.0084                   23398007.1294
 361268667.67646 281561907.95344  22820561.0704                   22820559.7704
 11  7 25  1 51  0.0000000  0  8G02G17G04G27G10G12G09G05
 324485656.34847 252893362.16846  20703183.6334                   20703178.7464
 287377420.90246 223977174.23844  22994449.7584                   22994447.9924
 308123173.77347 240161221.79745  21263253.0004                   21263250.8094
 325472167.45346 254034213.52743  23699354.6254                   23699353.7504
 336623956.16047 262545168.91045  21080698.3364                   21080695.5744
 348939147.09847 271941174.32845  21834925.7814                   21834922.5634
 339546821.21546 264742058.86343  23394505.1724                   23394503.4734
 361075850.46147 281411660.87944  22783868.7814                   22783866.9534
 11  7 25  1 51 30.0000000  0  8G02G17G04G27G10G12G09G05
 324381335.20747 252812072.97346  20683332.4304                   20683327.5744
 287336264.59446 223945104.36344  22986617.6334                   22986616.1294
 308100145.46147 240143277.66845  21258871.2274                   21258868.7934
 325441278.69546 254010144.33243  23693476.5084                   23693476.4654
 336505576.30147 262452924.89145  21058171.3834                   21058168.7934
 348777100.42247 271814904.22345  21804089.6564                   21804086.4024
 339528721.23846 264727954.92643  23391061.1724                   23391059.6994
 360883274.33647 281261601.67644  22747222.3834                   22747221.3794
 11  7 25  1 52  0.0000000  0  8G02G17G04G27G10G12G09G05
 324277388.96947 252731075.91846  20663552.5944                   20663546.7584
 287295294.27346 223913179.42644  22978821.6174                   22978819.1374
 308077385.84847 240125542.91045  21254539.9384                   21254538.3164
 325410581.60546 253986224.48043  23687635.5004                   23687634.6294
 336387843.01647 262361184.69145  21035767.4694                   21035765.1094
 348615469.68847 271688958.24245  21773332.3984                   21773328.8284
 339510927.45746 264714089.62143  23387673.9224                   23387673.3714
 360690941.59847 281111732.10544  22710623.2584                   22710621.7304
 11  7 25  1 52 30.0000000  0  8G02G17G04G27G10G12G09G05
 324173817.23847 252650370.68446  20643842.6644                   20643837.9844
 287254510.82846 223881400.13744  22971060.3674                   22971058.3054
 308054893.24247 240108016.19145  21250260.2274                   21250257.7034
 325380073.94946 253962452.23043  23681829.8284                   23681829.9344
 336270758.07847 262269949.70745  21013487.0164                   21013484.2734
 348454257.64847 271563338.52745  21742654.3134                   21742651.4104
 339493436.78546 264700460.45343  23384346.1334                   23384345.4264
 360498855.54747 280962054.77744  22674070.2114                   22674069.1724
 11  7 25  1 53  0.0000000  0  8G02G17G04G27G10G12G09G05
 324070617.11747 252569955.01246  20624204.7424                   20624199.2464
 287213912.54346 223849765.10544  22963334.9534                   22963333.0354
 308032663.15247 240090694.03945  21246029.8754                   21246026.8284
 325349750.80546 253938823.75443  23676060.2114                   23676059.8054
 336154320.65647 262179219.27745  20991329.2424                   20991326.9064
 348293464.36347 271438045.10245  21712055.8524                   21712053.4064
 339476243.62146 264687063.15243  23381073.7424                   23381073.7664
 360307016.91447 280812570.23044  22637565.0314                   22637563.4384
 11  7 25  1 53 30.0000000  0  8G02G17G04G27G10G12G09G05
 323967787.32047 252489827.92646  20604636.5864                   20604631.3634
 287173500.05146 223818274.84044  22955644.5704                   22955643.3794
 308010693.25047 240073574.63745  21241848.2734                   21241846.2194
 325319609.24246 253915336.78543  23670324.1724                   23670323.5864
 336038532.35947 262088994.65245  20969295.9614                   20969293.3484
 348133092.77047 271313080.28145  21681538.6024                   21681535.8524
 339459344.74646 264673895.14843  23377858.9224                   23377858.3634
 360115428.91847 280663280.97744  22601106.8204                   22601105.3794
 11  7 25  1 54  0.0000000  0  8G02G17G04G27G10G12G09G05
 323865332.88347 252409993.31646  20585140.2114                   20585135.0514
 287133279.57046 223786934.18044  22947991.4454                   22947988.9804
 307988986.98447 240056660.64845  21237718.5554                   21237716.0004
 325289652.10546 253891993.47343  23664623.4454                   23664623.0904
 335923399.84847 261999281.03945  20947387.1724                   20947384.2304
 347973150.64547 271188450.09845  21651102.8444                   21651099.5084
 339442742.15246 264660958.05944  23374699.1024                   23374698.2624
 359924099.78147 280514193.41444  22564697.2424                   22564695.7854
 11  7 25  1 54 30.0000000  0  8G02G17G04G27G10G12G09G05
 323763240.59047 252330440.90246  20565712.6954                   20565707.4184
 287093239.01246 223755733.75044  22940371.3914                   22940368.9964
 307967529.86347 240039940.78145  21233635.2814                   21233632.6334
 325259864.06346 253868781.95743  23658954.9614                   23658954.3404
 335808911.89147 261910069.68845  20925600.0474                   20925598.1094
 347813627.89547 271064146.69945  21620746.4534                   21620743.1914
 339426419.89546 264648239.41043  23371592.8984                   23371593.2704
 359733020.18847 280365300.31644  22528336.6724                   22528334.6294
 11  7 25  1 55  0.0000000  0  8G02G17G04G27G10G12G09G05
 323661511.82847 252251171.75846  20546354.4454                   20546349.3874
 287053381.30947 223724675.80544  22932787.1484                   22932784.9804
 307946321.96547 240023415.13745  21229599.6094                   21229597.3594
 325230244.84446 253845701.93843  23653318.9844                   23653318.4804
 335695072.03947 261821363.34045  20903937.6804                   20903935.5664
 347654529.63347 270940174.06345  21590471.1564                   21590468.3244
 339410377.18446 264635738.57043  23368540.2894                   23368539.9304
 359542195.62547 280216605.94144  22492024.4064                   22492022.7304
 11  7 25  1 55 30.0000000  0  8G02G17G04G27G10G12G09G05
 323560152.82047 252172190.73446  20527066.2734                   20527060.9654
 287013714.03547 223693766.23444  22925238.9384                   22925237.0354
 307925368.35247 240007087.64145  21225611.5634                   21225609.5514
 325200799.14846 253822757.14543  23647715.0314                   23647716.0594
 335581889.00047 261733168.78545  20882399.8284                   20882397.1804
 347495865.59447 270816539.78145  21560278.1094                   21560274.9224
 339394617.82046 264623458.52343  23365541.1804                   23365541.3984
 359351636.27347 280068118.21944  22455761.7504                   22455759.9574
 11  7 25  1 56  0.0000000  0  8G02G17G04G27G10G12G09G05
 323459157.10247 252093492.79746  20507847.8134                   20507841.8954
 286974232.46546 223663001.38344  22917725.7504                   22917723.2624
 307904661.20347 239990952.17245  21221671.7664                   21221669.5004
 325171518.39546 253799940.90243  23642142.7734                   23642143.9924
 335469358.15247 261645482.45345  20860985.5704                   20860982.8484
 347337632.67647 270693241.43445  21530167.6724                   21530164.5124
 339379132.63346 264611392.12143  23362594.3054                   23362594.4344
 359161339.41047 279919835.03544  22419548.6644                   22419547.2894
 11  7 25  1 56 30.0000000  0  8G02G17G04G27G10G12G09G05
 323358523.10547 252015076.72346  20488697.2344                   20488691.7304
 286934936.04346 223632380.78544  22910247.4454                   22910245.1994
 307884197.73047 239975006.59445  21217777.6884                   21217775.5314
 325142399.16846 253777250.52043  23636601.5704                   23636602.7934
 335357479.90647 261558304.63745  20839696.0944                   20839692.8674
 347179832.67647 270570280.44145  21500138.8134                   21500136.0944
 339363917.29346 264599536.00843  23359699.8674                   23359699.3674
 358971307.20347 279771758.07844  22383387.2584                   22383385.3484
 11  7 25  1 57  0.0000000  0  8G02G17G04G27G10G12G09G05
 323258254.74647 251936945.57046  20469616.8914                   20469611.4104
 286895830.52346 223601908.97344  22902806.2424                   22902803.6094
 307863980.56347 239959252.93445  21213930.6254                   21213928.0864
 325113443.83246 253754687.80143  23631091.7814                   23631092.1414
 335246260.16047 261471639.93845  20818531.3524                   20818528.5044
 347022472.69947 270447662.29345  21470194.6414                   21470191.3674
 339348973.62146 264587891.57043  23356856.1174                   23356856.0594
 358781547.85247 279623893.71544  22347277.0164                   22347275.0434
 11  7 25  1 57 30.0000000  0  8G02G17G04G27G10G12G09G05
 323158350.09847 251859097.82846  20450605.5474                   20450600.4494
 286856915.31647 223571585.44544  22895401.0234                   22895399.3284
 307844006.85247 239943688.98845  21210129.3984                   21210127.1214
 325084648.69146 253732249.91443  23625613.0784                   23625613.6094
 335135699.41047 261385488.74645  20797492.6254                   20797489.6294
 346865554.13347 270325388.10945  21440333.8984                   21440330.9884
 339334297.04746 264576455.27743  23354062.6094                   23354063.1684
 358592063.12947 279476243.36744  22311219.0784                   22311217.2234
 11  7 25  1 58  0.0000000  0  8G02G17G04G27G10G12G09G05
 323058808.51247 251781532.98446  20431663.7424                   20431658.3484
 286818190.94947 223541410.62144  22888031.8364                   22888029.7734
 307824274.49647 239928313.10945  21206374.9224                   21206371.4144
 325056010.67646 253709934.48043  23620163.1804                   23620163.5204
 335025798.68447 261299851.84445  20776578.7734                   20776576.0354
 346709079.73047 270203460.02345  21410558.1024                   21410554.2974
 339319884.20146 264565224.46443  23351320.3364                   23351319.7274
 358402856.21547 279328809.47345  22275214.5004                   22275213.0744
 11  7 25  1 58 30.0000000  0  8G02G17G04G27G10G12G09G05
 324535049.66847 252931850.81346  20712582.8054                   20712577.6764
 288355076.80546 224738984.03144  23180491.0704                   23180489.1414
 309380199.28947 241140722.03145  21502457.5394                   21502455.0354
 326602945.62946 254915338.24243  23914534.8594                   23914536.0664
 336491980.05947 262442330.88345  21055583.9144                   21055581.2814
 348128474.47747 271309481.92245  21680659.1724                   21680656.3984
 340881150.00446 265781795.18043  23648419.3984                   23648418.7584
 359789354.04347 280409197.45344  22539056.1334                   22539054.3134
 11  7 25  1 59  0.0000000  0  9G02G17G04G27G10G12G25G09G05
 324436228.52047 252854847.35946  20693777.5314                   20693772.4064
 288316733.27746 224709105.98044  23173194.5554                   23173191.8164
 309360940.21547 241125714.94145  21498792.3594                   21498790.1334
 326574611.32046 254893259.44142  23909143.2034                   23909143.9454
 336383399.86747 262357722.98445  21034921.9144                   21034918.9734
 347972892.93047 271188249.55945  21651053.7344                   21651050.2814
 379620703.54716                  24492784.836
 340867252.31346 265770965.77743  23645774.7274                   23645774.1604
 359600709.05147 280262201.43845  22503158.0314                   22503156.4344
 11  7 25  1 59 30.0000000  0  9G02G17G04G27G10G12G25G09G05
 324337763.87147 252778121.69946  20675040.3524                   20675035.4104
 288278578.32046 224679374.84043  23165934.6564                   23165931.7034
 309341912.05147 241110887.78145  21495171.3284                   21495169.3284
 326546421.96146 254871293.64843  23903779.5944                   23903779.5354
 336275478.70347 262273628.61345  21014385.1094                   21014382.5664
 347817758.81347 271067365.82445  21621532.4064                   21621529.2034
 379427056.06646 295703748.08643  24455934.8284                   24455935.2504
 340853604.15246 265760330.81643  23643177.3594                   23643177.2114
 359412346.82846 280115425.74245  22467313.2814                   22467311.8204
 11  7 25  2  0  0.0000000  0  9G02G17G04G27G10G12G25G09G05
 324239652.21147 252701671.07846  20656370.5704                   20656365.1724
 288240610.35547 224649789.41044  23158709.3674                   23158706.6844
 309323110.74247 241096237.39545  21491593.3754                   21491591.5204
 326518373.37546 254849437.52743  23898442.0474                   23898442.8444
 336168215.69547 262190047.09445  20993973.6884                   20993971.1604
 347663072.44947 270946831.00445  21592095.7034                   21592093.6484
 379233590.97346 295552995.91442  24419119.9614                   24419120.3204
 340840200.28146 265749886.21543  23640626.4774                   23640627.1524
 359224268.47747 279968871.27344  22431523.3444                   22431521.3984
 11  7 25  2  0 30.0000000  0  9G02G17G04G27G10G12G25G09G05
 324141891.28947 252625493.77046  20637767.1174                   20637761.8324
 288202828.45746 224620349.00044  23151519.9224                   23151517.1374
 309304532.72347 241081761.00845  21488058.3914                   21488056.2384
 326490460.93046 254827687.48043  23893130.4924                   23893131.3634
 336061610.33647 262106978.02045  20973687.0234                   20973684.3134
 347508834.92647 270826645.92645  21562745.8754                   21562742.8364
 379040309.30146 295402386.69943  24382339.6564                   24382339.5554
 340827035.59046 265739627.91843  23638121.7114                   23638121.2274
 359036475.54747 279822539.16445  22395788.3984                   22395785.7504
 11  7 25  2  1  0.0000000  0  9G02G17G04G27G10G12G25G09G05
 324044476.38747 252549586.08246  20619229.4844                   20619224.1954
 288165229.21946 224591050.93044  23144364.2274                   23144362.0204
 309286171.88347 241067453.86745  21484564.5864                   21484562.4844
 326462677.83246 254806038.25443  23887842.7424                   23887843.5984
 335955659.26647 262024418.77045  20953525.5314                   20953522.6684
 347355044.70747 270706809.38345  21533480.7344                   21533477.8014
 378847209.62546 295251919.28943  24345594.4454                   24345594.4654
 340814102.99246 265729550.53943  23635660.6174                   23635660.0904
 358848966.82447 279676428.56345  22360105.7194                   22360104.0044
 11  7 25  2  1 30.0000000  0  9G02G17G04G27G10G12G25G09G05
 323947408.03147 252473948.43046  20600758.0634                   20600752.8324
 288127814.79346 224561896.83643  23137244.5634                   23137242.5164
 309268027.82447 241053315.62945  21481112.1174                   21481109.9384
 326435023.10246 254784489.02343  23882580.9454                   23882581.7274
 335850364.90647 261942371.26245  20933488.5314                   20933486.2114
 347201705.50847 270587324.28545  21504300.9384                   21504298.1334
 378654296.16046 295101597.05143  24308884.0084                   24308884.6884
 340801400.54746 265719652.44543  23633243.6024                   23633242.5554
 358661746.92647 279530543.02344  22324479.5704                   22324477.3874
 11  7 25  2  2  0.0000000  0  9G02G17G04G27G10G12G25G09G05
 323850686.92247 252398581.35546  20582352.6644                   20582347.3674
 288090587.03146 224532888.18444  23130160.9694                   23130158.4064
 309250099.76247 241039345.71145  21477699.7974                   21477698.2234
 326407495.37946 254763038.84443  23877342.4614                   23877343.4804
 335745729.91047 261860837.52745  20913576.8444                   20913573.8634
 347048821.40647 270468193.80545  21475208.5554                   21475205.8834
 378461573.11746 294951423.14143  24272210.0634                   24272210.9304
 340788926.38746 265709932.26243  23630869.9454                   23630869.2114
 358474820.34447 279384886.02045  22288908.8754                   22288906.3204
 11  7 25  2  2 30.0000000  0  9G02G17G04G27G10G12G25G09G05
 323754307.68047 252323480.66846  20564012.1024                   20564007.1094
 288053542.31346 224504022.17243  23123111.7504                   23123109.0164
 309232381.60547 241025539.37545  21474329.0004                   21474325.8754
 326380087.52746 254741682.00043  23872127.3134                   23872128.9534
 335641750.78147 261779814.84845  20893790.4694                   20893787.2664
 346896390.77747 270349416.69945  21446201.5554                   21446198.8714
 378269038.69146 294801396.30543  24235571.4144                   24235572.4574
 340776672.83246 265700383.93443  23628538.4144                   23628537.8594
 358288185.88347 279239456.66445  22253392.4614                   22253391.1054
 11  7 25  2  3  0.0000000  0  9G02G17G04G27G10G12G25G09G05
 323658273.09047 252248648.53146  20545737.0004                   20545732.4654
 288016684.74246 224475302.00844  23116097.5004                   23116095.1884
 309214874.97747 241011897.86345  21470997.3204                   21470995.2034
 326352800.78546 254720419.55543  23866934.8444                   23866936.1054
 335538431.96147 261699306.70345  20874130.0164                   20874126.9024
 346744419.31647 270230997.39545  21417282.8134                   21417279.6214
 378076699.25046 294651521.45743  24198971.2344                   24198971.5394
 340764640.28946 265691007.85943  23626248.8984                   23626248.1844
 358101850.21547 279094260.11745  22217934.6564                   22217932.5394
 11  7 25  2  3 30.0000000  0  9G02G17G04G27G10G12G25G09G05
 323562581.93048 252174083.98846  20527528.0084                   20527522.9344
 287980014.51246 224446727.81644  23109119.0084                   23109116.6214
 309197577.37147 240998419.21945  21467704.9144                   21467703.1954
 326325632.15246 254699249.14542  23861764.5004                   23861765.4574
 335435774.03947 261619313.54345  20854594.2344                   20854591.9064
 346592909.67247 270112937.93445  21388451.6724                   21388448.4884
 377884557.00846 294501800.26643  24162407.3754                   24162408.0164
 340752824.99246 265681801.05543  23623999.8914                   23623999.6764
 357915815.83647 278949298.33645  22182532.8754                   22182530.8634
 11  7 25  2  4  0.0000000  0  9G02G17G04G27G10G12G25G09G05
 323467234.45347 252099787.26646  20509384.2504                   20509378.8444
 287943533.99646 224418301.41443  23102176.8984                   23102175.2154
 309180488.31647 240985103.07845  21464453.4774                   21464451.5394
 326298580.14145 254678169.59842  23856616.0394                   23856617.7974
 335333778.90247 261539836.84045  20835185.3204                   20835182.6994
 346441864.86347 269995240.71945  21359708.5944                   21359705.3134
 377692616.07446 294352235.99643  24125881.8134                   24125883.0634
 340741224.88746 265672761.91843  23621793.2504                   23621792.8364
 357730086.84447 278804574.53945  22147189.3364                   22147188.3794
 11  7 25  2  4 30.0000000  0  9G02G17G04G27G10G12G25G09G05
 323372229.89547 252025757.74246  20491305.2344                   20491299.9924
 287907243.40246 224390023.03544  23095271.0164                   23095269.2114
 309163605.77347 240971947.86745  21461240.7734                   21461238.5744
 326271641.99245 254657178.74642  23851491.0864                   23851491.6524
 335232447.65647 261460877.44145  20815902.8984                   20815899.6374
 346291287.44147 269877907.68045  21331054.6414                   21331051.6254
 377500879.14846 294202830.67643  24089394.6954                   24089396.7544
 340729836.72346 265663887.91443  23619626.1174                   23619626.0554
 357544667.01647 278660091.64145  22111905.7114                   22111903.7584
 11  7 25  2  5  0.0000000  0  9G02G17G04G27G10G12G25G09G05
 323277570.79747 251951997.41846  20473292.6094                   20473287.0984
 287871146.59446 224361895.65644  23088403.1884                   23088400.9144
 309146931.25847 240958954.75445  21458067.4924                   21458065.3754
 326244818.70745 254636277.39142  23846385.8054                   23846387.9614
 335131784.28147 261382438.46945  20796747.0864                   20796744.2664
 346141183.33647 269760943.48445  21302489.6484                   21302487.8094
 377309352.27746 294053589.04743  24052948.9384                   24052950.1214
 340718660.84446 265655179.36743  23617499.8204                   23617498.7814
 357359562.63347 278515854.53145  22076681.2424                   22076679.2704
 11  7 25  2  5 30.0000000  0  9G02G17G04G27G10G12G25G09G05
 323183250.21547 251878500.86746  20455343.1174                   20455338.1484
 287835238.09846 224333915.02043  23081569.8364                   23081567.1524
 309130456.67647 240946117.43445  21454933.0704                   21454930.4144
 326218101.41445 254615458.62142  23841301.6334                   23841304.1094
 335031783.43047 261304515.74645  20777717.2344                   20777714.3914
 345991549.14547 269644345.43845  21274016.5554                   21274013.0634
 377118032.14546 293904508.53543  24016541.5704                   24016543.0594
 340707687.72746 265646628.77043  23615411.3984                   23615410.7114
 357174770.25847 278371860.55945  22041516.4844                   22041514.5164
 11  7 25  2  6  0.0000000  0  9G02G17G04G27G10G12G25G09G05
 323089266.63347 251805266.91846  20437459.0394                   20437454.1564
 287799518.21146 224306081.34043  23074771.7194                   23074770.1684
 309114179.79747 240933434.15645  21451835.4224                   21451833.3594
 326191487.17645 254594720.15242  23836238.6334                   23836239.7114
 334932445.73047 261227109.77345  20758814.2974                   20758811.0904
 345842386.75447 269528115.05945  21245631.2274                   21245628.3634
 376926921.09046 293755590.91843  23980174.3134                   23980175.3484
 340696913.69546 265638233.34443  23613361.1334                   23613360.6604
 356990292.81347 278228111.97745  22006411.1174                   22006409.6454
 11  7 25  2  6 30.0000000  0  9G02G17G04G27G10G12G25G09G05
 322995627.30147 251732301.21546  20419639.9774                   20419635.5274
 287763995.83646 224278401.58643  23068012.3834                   23068010.3634
 309098106.68847 240920909.66845  21448776.6644                   21448774.1524
 326164981.27045 254574066.13742  23831192.7584                   23831195.1484
 334833779.52747 261150227.04345  20740038.3524                   20740035.3524
 345693706.43847 269412260.30545  21217338.2734                   21217335.6844
 376736029.88346 293606844.64143  23943848.6094                   23943850.1914
 340686343.36746 265629996.59043  23611349.3204                   23611349.7974
 356806141.23447 278084617.29345  21971369.0784                   21971366.4024
 11  7 25  2  7  0.0000000  0  9G02G17G04G27G10G12G25G09G05
 324477747.04347 252887199.72346  20701678.0944                   20701672.8754
 289304084.78546 225478470.89144  23361082.1174                   23361079.8524
 310657648.50047 242136137.07045  21745547.6094                   21745545.4024
 327713994.53545 255781089.34042  24125962.2974                   24125963.2384
 336311201.08247 262301464.64845  21021182.5004                   21021179.5164
 347120928.14547 270524381.16045  21488929.9844                   21488926.6094
 378120780.00846 294685870.81643  24207358.0164                   24207359.3484
 342251386.36346 266849510.55143  23909167.2034                   23909167.0824
 358197737.02047 279168977.71945  22236180.5314                   22236178.2194
 11  7 25  2  7 30.0000000  0  9G02G17G04G27G10G12G25G09G05
 324384785.75847 252814762.36746  20683987.7584                   20683982.8914
 289268950.61346 225451093.63744  23354396.4384                   23354393.8164
 310641969.42247 242123919.62144  21742563.8674                   21742561.4734
 327687689.83246 255760592.07043  24120956.6254                   24120957.8164
 336213872.21547 262225624.00045  21002661.0084                   21002658.6804
 346973211.51247 270409277.34845  21460820.2424                   21460817.0234
 377930328.68046 294537467.29343  24171116.5004                   24171117.2814
 342241206.07446 266841577.75043  23907230.4844                   23907230.2814
 358014238.63747 279025992.04745  22201261.8754                   22201259.8954
 11  7 25  2  8  0.0000000  0  9G02G17G04G27G10G12G25G09G05
 324292158.83647 252742585.56346  20666361.3674                   20666356.7704
 289234008.73446 225423866.15644  23347747.6724                   23347744.8794
 310626481.37147 242111850.98845  21739616.9454                   21739614.6524
 327661478.56646 255740167.57042  24115967.8834                   24115969.9144
 336117209.72747 262150302.60545  20984266.8834                   20984264.6214
 346825976.92647 270294549.14845  21432801.9384                   21432799.1844
 377740098.39146 294389235.99243  24134916.4064                   24134917.5354
 342231212.71146 266833790.63743  23905328.6334                   23905328.5084
 357831068.18847 278883261.87545  22166405.7194                   22166402.8984
 11  7 25  2  8 30.0000000  0  9G02G17G04G27G10G12G25G09G05
 324199868.62547 252670671.12946  20648799.3834                   20648794.1524
 289199262.21146 225396790.92244  23341134.6644                   23341132.0664
 310611185.44547 242099932.06345  21736706.0784                   21736703.8984
 327635361.02746 255719816.19943  24110998.4064                   24111000.0594
 336021217.27347 262075503.32045  20966000.1414                   20965997.8094
 346679229.92247 270180200.86345  21404876.9844                   21404874.3364
 377550094.76646 294241181.30943  24098760.0864                   24098761.5594
 342221405.67246 266826148.68443  23903462.3054                   23903462.8554
 357648231.52047 278740791.82845  22131612.6884                   22131610.7114
 11  7 25  2  9  0.0000000  0  9G02G17G04G27G10G12G25G09G05
 324107910.64147 252599015.57446  20631300.4454                   20631294.9534
 289164708.31346 225369865.83644  23334559.6254                   23334557.1764
 310596076.47347 242088158.81645  21733831.3134                   21733828.3204
 327609331.41046 255699533.27743  24106045.4844                   24106046.7814
 335925891.79747 262001223.75845  20947860.5314                   20947857.6914
 346532969.41847 270066231.69945  21377044.4144                   21377041.7384
 377360317.14146 294093302.71543  24062646.0784                   24062647.5594
 342211778.44946 266818646.87943  23901630.6804                   23901631.0554
 357465728.46147 278598581.73445  22096884.0784                   22096881.2894
 11  7 25  2  9 30.0000000  0  9G02G17G04G27G10G12G25G09G05
 324016285.88347 252527619.68046  20613865.0554                   20613860.0784
 289130349.60946 225343092.83644  23328020.8054                   23328018.4574
 310581154.46547 242076531.26644  21730991.2814                   21730989.1134
 327583388.92646 255679318.28143  24101109.4534                   24101109.6334
 335831236.09047 261927466.09445  20929848.1094                   20929845.3554
 346387199.98847 269952645.15645  21349305.3754                   21349302.0204
 377170770.27346 293945603.94543  24026576.8594                   24026578.3134
 342202330.02046 266811284.40243  23899832.4064                   23899832.8204
 357283563.77747 278456635.28145  22062218.7344                   22062216.3984
 11  7 25  2 10  0.0000000  0  9G02G17G04G27G10G12G25G09G05
 323924992.84847 252456482.27046  20596492.4384                   20596487.3284
 289096186.47346 225316472.22744  23321520.8524                   23321517.5554
 310566417.33647 242065047.75845  21728187.1094                   21728185.4344
 327557530.60946 255659168.87943  24096187.8594                   24096188.4694
 335737250.22347 261854230.37545  20911963.3284                   20911960.4024
 346241923.10947 269839442.43045  21321660.5704                   21321657.4384
 376981456.61346 293798086.85943  23990552.6414                   23990552.6994
 342193056.66846 266804058.36343  23898067.8984                   23898068.2114
 357101740.26247 278314954.70345  22027618.6024                   22027616.7894
 11  7 25  2 10 30.0000000  0  9G02G17G04G27G10G12G25G09G05
 323834032.89147 252385604.40646  20579183.2344                   20579178.3484
 289062221.33246 225290005.90644  23315057.1644                   23315054.6804
 310551864.89147 242053708.18445  21725417.8524                   21725416.0354
 327531755.82846 255639084.54343  24091282.9694                   24091284.2934
 335643936.14147 261781518.13745  20894205.7424                   20894203.2544
 346097142.93447 269726626.75445  21294109.2664                   21294106.3714
 376792380.69547 293650755.04743  23954572.1804                   23954572.8134
 342183956.82046 266796967.47743  23896337.1884                   23896336.3634
 356920262.77347 278173543.72345  21993085.0634                   21993082.6954
 11  7 25  2 11  0.0000000  0  9G02G17G04G27G10G12G25G09G05
 323743402.94947 252314983.70746  20561936.7814                   20561931.6484
 289028452.36346 225263692.42244  23308629.7344                   23308628.0864
 310537493.67247 242042509.81644  21722683.1094                   21722680.7504
 327506059.89546 255619061.66443  24086393.6804                   24086395.0744
 335551292.46947 261709328.28545  20876576.2734                   20876573.6134
 345952860.51247 269614198.92245  21266653.3364                   21266650.3754
 376603543.43846 293503609.11343  23918637.7344                   23918638.0744
 342175025.29346 266790007.78943  23894637.5864                   23894637.2704
 356739132.40247 278032403.23845  21958616.9384                   21958614.4304
 11  7 25  2 11 30.0000000  0  9G02G17G04G27G10G12G25G09G05
 323653104.44947 252244621.27046  20544753.7114                   20544748.1844
 288994882.97746 225237534.44943  23302242.3984                   23302240.1684
 310523303.88747 242031452.81344  21719983.0314                   21719980.5084
 327480442.62146 255599100.07043  24081519.1644                   24081520.2424
 335459322.08247 261637663.07845  20859074.6334                   20859072.2154
 345809079.85247 269502162.07045  21239293.3054                   21239289.8134
 376414949.94146 293356653.14843  23882748.9614                   23882749.8954
 342166261.25446 266783178.58643  23892969.4224                   23892969.3554
 356558354.68447 277891537.56645  21924215.8834                   21924213.3794
 11  7 25  2 12  0.0000000  0  9G02G17G04G27G10G12G25G09G05
 323563134.78947 252174515.07446  20527633.3364                   20527627.3794
 288961512.04346 225211531.13343  23295891.5234                   23295889.4654
 310509292.39847 242020534.73445  21717316.9454                   21717314.6914
 327454899.88746 255579196.57042  24076658.7424                   24076659.3054
 335368023.98847 261566521.71545  20841701.9844                   20841698.9494
 345665801.83247 269390516.89545  21212028.2114                   21212025.2114
 376226601.44946 293209888.08643  23846907.9844                   23846908.1884
 342157660.25846 266776476.44543  23891333.1564                   23891333.0554
 356377930.82047 277750947.60545  21889883.0394                   21889879.7464
 11  7 25  2 12 30.0000000  0  9G02G17G04G27G10G12G25G09G05
 323473486.82047 252104659.55946  20510574.5944                   20510569.1134
 288928333.80946 225185677.98443  23289577.8834                   23289576.1054
 310495451.12947 242009749.31344  21714682.8674                   21714680.6844
 327429422.75445 255559344.14542  24071810.9694                   24071811.3674
 335277391.76247 261495899.23045  20824455.0634                   20824451.4574
 345523022.46147 269279260.27045  21184857.8594                   21184854.8794
 376038494.39546 293063311.13343  23811112.6094                   23811112.7074
 342149212.53546 266769893.75443  23889725.2584                   23889724.9264
 356197857.28947 277610630.61745  21855615.6174                   21855613.1294
 11  7 25  2 13  0.0000000  0  9G02G17G04G27G10G12G25G09G05
 323384167.80947 252035060.37146  20493576.3754                   20493571.3634
 288895356.97746 225159981.71943  23283303.3364                   23283300.5744
 310481786.32447 241999101.41044  21712082.5394                   21712080.1334
 327404016.84845 255539547.21142  24066975.0394                   24066976.5234
 335187434.56347 261425802.72345  20807336.9144                   20807333.5634
 345380752.25447 269168400.39545  21157785.1414                   21157781.9144
 375850639.79746 292916930.94143  23775364.1334                   23775365.3754
 342140922.87546 266763434.24243  23888148.1724                   23888148.1094
 356018145.38347 277470595.45745  21821417.9144                   21821415.0434
 11  7 25  2 13 30.0000000  0  9G02G17G04G27G10G12G25G09G05
 323295175.06647 251965715.42246  20476642.1564                   20476636.5944
 288862580.23846 225134441.44543  23277066.8204                   23277063.3914
 310468294.39847 241988588.20344  21709515.3914                   21709513.0314
 327378677.71945 255519802.41842  24062153.6024                   24062155.6604
 335098150.02347 261356230.37145  20790345.6644                   20790343.4104
 345238991.37547 269057937.40245  21130808.7424                   21130805.4184
 375663038.47746 292770748.08243  23739665.2114                   23739666.1994
 342132785.97346 266757093.71543  23886599.1484                   23886599.2074
 355838796.31347 277330842.98845  21787288.8204                   21787285.1484
 11  7 25  2 14  0.0000000  0  9G02G17G04G27G10G12G25G09G05
 323206504.91847 251896621.83646  20459768.8674                   20459763.0634
 288830001.53146 225109055.46143  23270866.2814                   23270863.2934
 310454971.12947 241978206.43844  21706979.7974                   21706977.0164
 327353400.29345 255500105.63342  24057343.4224                   24057346.5234
 335009536.25847 261287180.70345  20773483.6804                   20773481.0594
 345097739.65247 268947871.14145  21103929.4614                   21103925.7344
 375475690.90246 292624762.94543  23704014.4384                   23704014.8714
 342124796.37546 266750868.01243  23885079.2974                   23885078.7894
 355659810.28947 277191373.43045  21753228.3754                   21753225.5864
 11  7 25  2 14 30.0000000  0  9G02G17G04G27G10G12G25G09G05
 323118159.54747 251827781.31646  20442957.0634                   20442951.6374
 288797624.71546 225083826.78944  23264705.4224                   23264703.0124
 310441818.08247 241967957.30144  21704476.9224                   21704474.5274
 327328185.28545 255480457.54742  24052545.1484                   24052548.8404
 334921596.78547 261218656.46545  20756749.4304                   20756746.3014
 344957002.60247 268838205.93045  21077148.2814                   21077144.6374
 375288603.14546 292478980.31343  23668412.9454                   23668412.8914
 342116954.34846 266744757.28543  23883586.8524                   23883586.7974
 355481193.83247 277052191.85545  21719239.3134                   21719236.2464
 11  7 25  2 15  0.0000000  0  9G02G17G04G27G10G12G25G09G05
 323030131.21947 251759187.85246  20426205.8914                   20426200.3714
 288765443.62846 225058750.61644  23258581.5474                   23258579.5784
 310428826.37147 241957833.89844  21702004.8134                   21702002.2504
 327303022.99645 255460850.50042  24047757.3594                   24047760.8984
 334834324.70347 261150652.24645  20740142.2974                   20740138.8364
 344816775.52747 268728938.10545  21050463.6884                   21050460.3284
 375101771.06346 292333396.87543  23632858.8284                   23632860.1484
 342109249.53546 266738753.47743  23882121.1884                   23882120.7194
 355302943.18047 276913295.30545  21685318.5394                   21685316.4734
 11  7 25  2 15 30.0000000  0  9G02G17G04G27G10G12G25G09G05
 324517845.55947 252918445.81646  20709308.7274                   20709303.2464
 290308883.35946 226261430.93844  23552288.2974                   23552286.5004
 311991418.48847 243175438.16044  21999355.8364                   21999353.4184
 328853335.50045 256668886.13742  24342771.3834                   24342775.8324
 336323146.81647 262310773.39845  21023455.3834                   21023452.2274
 346252488.93847 269847675.84845  21323670.7034                   21323667.0904
 376490627.30546 293415622.54343  23897150.6414                   23897150.9884
 343677102.95746 267960457.38343  24180473.4384                   24180473.1914
 356700490.43447 278002293.22345  21951263.2424                   21951260.7544
 11  7 25  2 16  0.0000000  0  9G02G17G04G27G10G12G25G09G05
 324430454.65247 252850349.04346  20692678.3284                   20692673.1644
 290277101.13346 226236665.57043  23546240.8204                   23546238.3914
 311978750.48847 243165567.00844  21996945.6644                   21996943.2154
 328828277.10545 256649359.90642  24338003.6724                   24338006.4924
 336237216.24247 262243814.52045  21007103.4224                   21007100.8094
 346113294.27047 269739212.49645  21297182.9144                   21297179.8674
 376304320.94146 293270448.77343  23861696.5234                   23861697.7234
 343669669.22746 267954664.77743  24179058.0704                   24179058.3874
 356522985.41047 277863977.68445  21917485.8054                   21917482.6484
 11  7 25  2 16 30.0000000  0  9G02G17G04G27G10G12G25G09G05
 324343382.10547 252782500.33246  20676108.5554                   20676103.3874
 290245520.24246 226212057.07444  23540230.6884                   23540228.2854
 311966242.75847 243155820.74644  21994564.9844                   21994563.2034
 328803267.91845 256629872.22342  24333244.9304                   24333247.3524
 336151957.91847 262177379.47345  20990878.9844                   20990876.5744
 345974620.25047 269631154.82845  21270794.0944                   21270790.5784
 376118282.76246 293125484.01243  23826294.7664                   23826295.8094
 343662367.11745 267948974.71543  24177668.7894                   24177669.8054
 356345858.76247 277725956.98445  21883778.6804                   21883777.0044
 11  7 25  2 17  0.0000000  0  9G02G17G04G27G10G12G25G09G05
 324256624.73447 252714897.21146  20659599.7194                   20659594.4454
 290214139.12946 226187604.22743  23534258.6954                   23534257.0434
 311953891.50447 243146196.40644  21992214.8594                   21992212.1914
 328778303.34445 256610419.19942  24328493.8984                   24328496.8444
 336067369.62947 262111466.53545  20974782.7734                   20974779.7584
 345836466.70747 269523502.72745  21244504.5394                   21244501.2814
 375932513.49246 292980728.78943  23790944.9064                   23790945.0434
 343655191.33646 267943383.12543  24176303.5704                   24176304.3634
 356169111.28547 277588231.76645  21850144.5784                   21850142.3244
 11  7 25  2 17 30.0000000  0  8G02G17G04G10G12G25G09G05
 324170181.73047 252647539.04746  20643149.6024                   20643144.3164
 290182958.21146 226163307.41043  23528325.4844                   23528323.0514
 311941695.37947 243136692.93844  21989893.9304                   21989891.6724
 335983451.38347 262046075.71145  20958814.1024                   20958810.9494
 345698836.05547 269416258.08245  21218314.1094                   21218310.7304
 375747016.02346 292836185.38743  23755645.8834                   23755646.3134
 343648138.99646 267937887.68443  24174961.6644                   24174962.2194
 355992746.07847 277450804.38745  21816583.2114                   21816581.2234
 11  7 25  2 18  0.0000000  0  8G02G17G04G10G12G25G09G05
 324084053.48847 252580426.15646  20626760.3594                   20626755.3524
 290151979.57846 226139168.22743  23522431.0634                   23522427.3674
 311929653.94547 243127310.03544  21987602.0084                   21987599.9734
 335900204.75847 261981208.22745  20942972.0004                   20942969.4804
 345561732.09447 269309423.84045  21192224.1724                   21192221.0594
 375561794.71546 292691857.17643  23720398.7664                   23720399.9184
 343641208.29746 267932487.05943  24173642.4844                   24173643.8244
 355816767.38747 277313678.18845  21783095.7344                   21783093.1374
 11  7 25  2 18 30.0000000  0  8G02G17G04G10G12G25G09G05
 323998241.42647 252513559.64146  20610430.9224                   20610425.3484
 290121206.01246 226115188.84843  23516574.8984                   23516572.0044
 311917767.55947 243118047.92244  21985340.2114                   21985338.0124
 335817631.64547 261916865.57445  20927258.9844                   20927256.0704
 345425158.58647 269203002.93845  21166234.9384                   21166231.6414
 375376854.38346 292547747.91843  23685205.7504                   23685206.3284
 343634398.15246 267927180.35943  24172346.9774                   24172348.1414
 355641180.43047 277176857.25445  21749683.1724                   21749680.5354
 11  7 25  2 19  0.0000000  0  8G02G17G04G10G12G25G09G05
 323912742.89547 252446937.43846  20594160.9384                   20594155.6994
 290090636.54346 226091368.46143  23510757.5634                   23510754.7464
 311906033.24647 243108904.32844  21983107.0634                   21983104.7034
 335735730.91047 261853046.83645  20911673.5704                   20911671.2664
 345289116.39847 269096996.06645  21140347.4224                   21140343.1804
 375192196.50047 292403858.77043  23650066.7274                   23650067.4144
 343627703.99246 267921964.10542  24171074.0704                   24171073.8594
 355465986.55147 277040342.61345  21716344.4614                   21716341.8524
 11  7 25  2 19 30.0000000  0  8G02G17G04G10G12G25G09G05
 323827563.09848 252380563.59446  20577951.4454                   20577946.6254
 290060277.57446 226067712.09443  23504980.1954                   23504978.5744
 311894455.29747 243099882.57444  21980904.3284                   21980902.0084
 335654508.32847 261789756.52345  20896217.6484                   20896214.5234
 345153613.89547 268991409.71945  21114561.5554                   21114558.4184
 375007829.84846 292260196.57043  23614982.9304                   23614983.6484
 343621128.77746 267916840.42643  24169822.4614                   24169823.4104
 355291194.57047 276904141.14545  21683082.5554                   21683080.2974
 11  7 25  2 20  0.0000000  0  8G02G17G04G10G12G25G09G05
 323742701.77047 252314437.89846  20561803.2974                   20561798.1024
 290030130.65246 226044221.00043  23499242.2814                   23499242.0744
 311883032.84047 243090981.99644  21978730.8674                   21978728.6454
 335573964.69147 261726995.25845  20880890.3204                   20880887.1954
 345018653.96147 268886246.17245  21088879.7584                   21088876.4104
 374823758.11346 292116764.20743  23579954.8204                   23579955.7344
 343614670.21146 267911807.69943  24168593.0004                   24168593.5744
 355116808.21947 276768255.73045  21649898.4064                   21649895.7734
 11  7 25  2 20 30.0000000  0  8G02G17G04G10G12G25G09G05
 323658155.53548 252248557.72346  20545714.6254                   20545709.3484
 290000193.66846 226020893.50843  23493545.9844                   23493544.7344
 311871761.83647 243082199.41444  21976585.6174                   21976583.8284
 335494097.50447 261664761.09845  20865691.9924                   20865689.4924
 344884235.74647 268781504.73445  21063300.5004                   21063297.3054
 374639981.66046 291973561.88343  23544983.0634                   23544983.7384
 343608322.77046 267906861.59843  24167385.8054                   24167386.1764
 354942827.86747 276632686.68445  21616790.6564                   21616788.0164
 11  7 25  2 21  0.0000000  0  8G02G17G04G10G12G25G09G05
 323573918.84848 252182918.76646  20529685.0164                   20529679.5274
 289970462.71546 225997726.55943  23487888.5004                   23487886.9494
 311860636.32847 243073530.19944  21974468.6024                   21974466.6724
 335414901.91847 261603050.27045  20850621.6484                   20850619.2074
 344750357.02047 268677183.69145  21037824.6724                   21037820.5044
 374456498.87546 291830588.40644  23510067.0164                   23510068.5044
 343602078.72346 267901996.02743  24166197.1414                   24166198.1644
 354769251.93447 276497432.75845  21583759.8834                   21583757.7344
 11  7 25  2 21 30.0000000  0  8G02G17G04G10G12G25G09G05
 323489991.56347 252117520.89146  20513713.3754                   20513708.2774
 289940939.05546 225974721.15643  23482271.9224                   23482268.6564
 311849655.28947 243064973.55944  21972379.1954                   21972376.8914
 335336378.58647 261541863.27045  20835679.5164                   20835677.0514
 344617020.71547 268573285.32445  21012451.5084                   21012447.9534
 374273313.21946 291687846.49243  23475208.3134                   23475209.7424
 343595935.53546 267897209.05943  24165027.9304                   24165029.1684
 354596084.05147 276362496.79745  21550807.2504                   21550804.6844
 11  7 25  2 22  0.0000000  0  8G02G17G04G10G12G25G09G05
 323406371.38347 252052362.32046  20497801.8054                   20497796.2154
 289911621.81646 225951876.55943  23476691.9144                   23476689.3404
 311838815.78947 243056527.19944  21970316.1804                   21970314.1094
 335258526.14847 261481199.03145  20820865.1094                   20820861.6684
 344484227.14147 268469809.85545  20987181.3984                   20987178.4614
 374090426.39846 291545337.40643  23440406.0314                   23440407.4534
 343589888.82046 267892497.24643  24163878.2894                   24163878.2544
 354423325.87147 276227880.09445  21517932.2664                   21517930.2384
 11  7 25  2 22 30.0000000  0  8G02G17G04G10G12G25G09G05
 323323053.54347 251987439.34446  20481946.8444                   20481941.6994
 289882507.83646 225929190.33643  23471151.2894                   23471149.6334
 311828112.66847 243048187.14544  21968279.7814                   21968277.4844
 335181340.46147 261421054.36745  20806176.2974                   20806174.1134
 344351974.69147 268366756.04345  20962014.5944                   20962011.2704
 373907837.29346 291403060.32843  23405659.7504                   23405661.4534
 343583931.95746 267887855.47343  24162743.8984                   24162744.1334
 354250976.21147 276093581.71145  21485135.8984                   21485132.7894
 11  7 25  2 23  0.0000000  0  8G02G17G04G10G12G25G09G05
 323240042.13347 251922755.14546  20466150.1804                   20466144.8284
 289853601.95346 225906666.26243  23465651.2814                   23465649.2234
 311817548.41847 243039955.27044  21966269.5634                   21966266.7384
 335104826.10247 261361432.80545  20791616.7194                   20791613.5634
 344220269.87547 268264128.96145  20936951.9534                   20936948.2234
 373725553.42246 291261021.09443  23370972.7274                   23370973.4534
 343578066.17246 267883284.64843  24161629.0004                   24161628.7304
 354079042.58647 275959607.51245  21452417.7664                   21452415.0434
 11  7 25  2 23 30.0000000  0  8G02G17G04G10G12G25G09G05
 323157335.00047 251858308.03946  20450411.4224                   20450406.3834
 289824904.37146 225884304.52343  23460190.7034                   23460187.9224
 311807121.50447 243031830.43844  21964285.1414                   21964282.8594
 335028982.04347 261302333.55545  20777183.9924                   20777180.7544
 344089114.37547 268161929.91045  20911993.9224                   20911990.4694
 373543577.11346 291119221.48443  23336343.4144                   23336344.5704
 343572287.77346 267878781.91043  24160528.6804                   24160529.4574
 353907527.39147 275825959.35545  21419778.9384                   21419776.1994
 11  7 25  2 24  0.0000000  0  8G02G17G04G10G12G25G09G05
 323074933.64147 251794099.20746  20434730.9534                   20434725.7074
 289796417.94946 225862107.32843  23454769.5554                   23454766.8284
 311796832.33247 243023812.91044  21962327.1094                   21962325.4064
 334953810.18047 261243758.10245  20762878.8834                   20762876.3634
 343958512.31347 268060162.12145  20887141.3674                   20887138.0124
 373361913.43446 290977665.48043  23301774.3134                   23301774.6764
 343566595.84446 267874346.63343  24159444.5944                   24159446.0434
 353736435.71147 275692641.20345  21387221.5554                   21387218.8134
 11  7 25  2 24 30.0000000  0  8G02G17G04G10G12G25G09G05
 324568257.53147 252957728.22346  20718900.9454                   20718895.9264
 291343561.74246 227067673.93443  23749181.4454                   23749178.7074
 313362097.63347 244243500.14544  22260187.4454                   22260185.4344
 336454730.48047 262413306.42645  21048494.3134                   21048491.8874
 345403888.16447 269186429.05545  21162186.7584                   21162183.7194
 374755989.05147 292063958.26643  23567057.9924                   23567058.5474
 345136405.48846 269097574.84043  24458170.6564                   24458170.8164
 355141193.68047 276787257.85245  21654537.7424                   21654535.4304
 11  7 25  2 25  0.0000000  0  8G02G17G04G10G12G25G09G05
 324486457.42647 252893987.90246  20703334.8444                   20703329.6214
 291315491.05146 227045800.65644  23743839.9534                   23743837.0824
 313352072.05547 244235688.00444  22258279.6174                   22258276.9064
 336380894.93847 262355772.25445  21034444.1024                   21034441.8634
 345274391.22347 269085522.39545  21137544.5944                   21137540.9654
 374574951.88346 291922890.44943  23532607.5164                   23532608.3284
 345130870.27345 269093261.63342  24457116.5394                   24457117.6174
 354970949.69947 276654600.24645  21622141.7504                   21622139.0004
 11  7 25  2 25 30.0000000  0  8G02G17G04G10G12G25G09G05
 324404951.87147 252830477.09846  20687824.6884                   20687819.7814
 291287624.27346 227024086.30144  23738536.2274                   23738534.0124
 313342171.39547 244227973.19144  22256395.2274                   22256393.4924
 336307721.82847 262298754.25845  21020519.8914                   21020516.8634
 345145445.01247 268985044.87145  21113006.4144                   21113003.1604
 374394227.48446 291782066.30143  23498216.1564                   23498217.1994
 345125404.35246 269089002.43442  24456075.7894                   24456078.5164
 354801128.80947 276522272.32845  21589825.7034                   21589823.1024
 11  7 25  2 26  0.0000000  0  8G02G17G04G10G12G25G09G05
 324323740.55147 252767195.55946  20672371.4224                   20672366.1024
 291259962.87146 227002531.99243  23733272.8834                   23733270.3284
 313332394.36747 244220354.71944  22254534.9694                   22254533.0044
 336235211.79347 262242252.93445  21006721.9304                   21006718.6374
 345017052.07847 268884998.45345  21088574.6724                   21088570.8794
 374213819.35246 291641488.59043  23463886.2274                   23463886.5234
 345120005.06645 269084795.10942  24455049.6804                   24455051.1954
 354631735.23447 276390277.39845  21557591.1804                   21557588.4574
 11  7 25  2 26 30.0000000  0  8G02G17G04G10G12G25G09G05
 324242822.53547 252704142.57046  20656972.4844                   20656967.7504
 291232507.21546 226981137.99243  23728048.5784                   23728046.4574
 313322739.99647 244212831.82444  22252697.8914                   22252695.5434
 336163364.29747 262186267.89845  20993049.6884                   20993046.8674
 344889214.48447 268785384.77745  21064248.0704                   21064244.0314
 374033730.40646 291501159.60943  23429616.3284                   23429616.6564
 345114669.39145 269080637.40242  24454033.4774                   24454036.1604
 354462771.40247 276258617.30945  21525438.2974                   21525435.8204
 11  7 25  2 27  0.0000000  0  8G02G17G04G10G12G25G09G05
 324162196.10547 252641316.80946  20641629.8524                   20641625.0084
 291205256.84846 226959903.94544  23722862.2424                   23722860.8674
 313313205.87947 244205402.65644  22250883.0394                   22250880.8524
 336092178.12147 262130798.19545  20979503.3284                   20979500.2504
 344761933.36747 268686204.71546  21040026.9534                   21040023.3914
 373853962.84846 291361081.04743  23395407.4384                   23395407.6524
 345109393.71145                  24453031.0784
 354294239.09447 276127293.46945  21493367.7194                   21493364.4494
 11  7 25  2 27 30.0000000  0  8G02G17G04G10G12G25G09G05
 324081858.84447 252578716.37146  20626342.1484                   20626337.2274
 291178211.00046 226938829.28943  23717715.1804                   23717713.9884
 313303789.15647 244198064.96144  22249091.8444                   22249089.3324
 336021651.61747 262075842.49645  20966082.3364                   20966079.7304
 344635208.85547 268587458.37945  21015912.0084                   21015908.3754
 373674518.09446 291221254.00443  23361260.1954                   23361260.4884
 345104173.629 5                  24452036.320
 354126139.80947 275996307.05545  21461379.7894                   21461377.1174
 11  7 25  2 28  0.0000000  0  8G02G17G04G10G12G25G09G05
 324001809.71147 252516340.44546  20611109.3284                   20611104.5354
 291151369.80146 226917914.06343  23712608.0084                   23712606.2304
 313294488.34847 244190817.55544  22247321.5394                   22247319.4304
 335951784.02747 262021400.24645  20952787.1804                   20952784.0234
 344509042.86347 268489147.24245  20991903.1254                   20991899.9494
 373495398.84446 291081680.59443  23327175.3524                   23327175.5434
 345099005.918 5                  24451053.438
 353958476.08247 275865660.04745  21429474.3674                   21429471.7304
 11  7 25  2 28 30.0000000  0  8G02G17G04G10G12G25G09G05
 323922048.62947 252454188.98046  20595931.6564                   20595926.4614
 291124734.81346 226897159.53943  23707539.6884                   23707537.5944
 313285302.65247 244183659.87944  22245573.4614                   22245571.6254
 335882575.52047 261967471.55945  20939617.2274                   20939614.2114
 344383438.49247 268391273.73445  20968001.3364                   20967998.2584
 373316608.82846 290942363.74643  23293152.6804                   23293153.0204
 345093888.602 5                  24450079.867
 353791251.71547 275735355.39845  21397652.2194                   21397649.5664
 11  7 25  2 29  0.0000000  0  8G02G17G04G10G12G25G09G05
 323842575.59047 252392261.95346  20580807.8364                   20580803.1334
 291098307.53546 226876566.87143  23702510.3914                   23702508.1764
 313276231.98847 244176591.82044  22243847.3364                   22243845.3364
 335814026.51647 261914056.75845  20926573.1334                   20926569.8834
 344258397.96547 268293839.58246  20944207.6094                   20944203.6414
 373138152.11746 290803306.61344  23259193.3444                   23259194.3284
 345088819.65645 269075406.28952  24449115.2584                   24449118.0084
 353624470.52047 275605396.07045  21365915.3834                   21365911.9384
 11  7 25  2 29 30.0000000  0  8G02G17G04G10G12G25G09G05
 323763387.59847 252330557.04746  20565739.4454                   20565734.2584
 291072086.08646 226856134.59043  23697520.1644                   23697518.5944
 313267272.29347 244169610.24244  22242143.0314                   22242140.3674
 335746134.24247 261861153.70345  20913652.9224                   20913650.2664
 344133920.78147 268196844.39545  20920519.4694                   20920516.5394
 372960029.06646 290664509.42243  23225297.8364                   23225298.8054
 345083793.56645 269071489.80542  24448159.3054                   24448161.5474
 353458132.52047 275475782.08645  21334261.5004                   21334259.0434
 11  7 25  2 30  0.0000000  0  8G02G17G04G10G12G25G09G05
 323684485.09447 252269074.59846  20550724.2814                   20550719.1024
 291046072.61745 226835864.34443  23692570.5634                   23692567.9024
 313258423.88347 244162715.38744  22240458.3524                   22240456.6884
 335678899.76247 261808763.22745  20900858.8284                   20900855.9024
 344010010.60947 268100291.03546  20896940.8204                   20896937.4024
 372782244.25846 290525975.81644  23191466.6414                   23191466.6174
 345078809.28945 269067605.84442  24447210.1954                   24447212.5434
 353292242.35547 275346517.08245  21302694.2194                   21302691.1134
 11  7 25  2 30 30.0000000  0  7G02G17G04G10G12G25G05
 323605866.83647 252207813.65246  20535764.2664                   20535758.3364
 291020267.00846 226815756.08643  23687659.5474                   23687657.7274
 313249684.89547 244155905.78144  22238795.5474                   22238793.2154
 335612321.97747 261756884.45745  20888189.5234                   20888186.6024
 343886668.50447 268004180.32445  20873469.3594                   20873465.7424
 372604800.02346 290387707.57444  23157699.8054                   23157700.3914
 353126802.05147 275217602.59845  21271211.4144                   21271208.7034
 11  7 25  2 31  0.0000000  0  7G02G17G04G10G12G25G05
 323527530.84047 252146772.62146  20520857.2584                   20520851.6294
 290994668.79746 226795809.44142  23682789.0784                   23682786.2934
 313241053.16047 244149179.76644  22237153.0864                   22237150.5664
 335546399.28147 261705516.15245  20875645.0784                   20875641.8094
 343763895.45747 267908513.02746  20850106.1484                   20850102.4734
 372427698.44946 290249706.36744  23123998.0084                   23123999.4454
 352961813.59847 275089040.19945  21239815.3364                   21239812.6374
 11  7 25  2 31 30.0000000  0  7G02G17G04G10G12G25G05
 323449474.35947 252085949.41046  20506003.8524                   20505998.5664
 290969276.62546 226776023.33643  23677956.8134                   23677954.4304
 313232525.44947 244142534.79344  22235530.3444                   22235528.1684
 335481128.94147 261654656.16845  20863224.4694                   20863220.8244
 343641691.34447 267813289.06346  20826851.4384                   20826848.1524
 372250940.53947 290111972.92244  23090362.7034                   23090363.5164
 352797277.85547 274960830.58245  21208505.0864                   21208502.1804
 11  7 25  2 32  0.0000000  0  7G02G17G04G10G12G25G05
 323371700.27347 252025346.24246  20491203.5474                   20491198.5314
 290944094.60245 226756400.99243  23673164.2424                   23673162.0824
 313224104.11747 244135972.71544  22233928.5784                   22233926.0864
 335416514.37147 261604307.16045  20850928.4924                   20850925.1884
 343520061.55147 267718512.62946  20803706.5394                   20803703.1484
 372074532.89147 289974512.44144  23056793.3984                   23056793.8204
 352633200.90247 274832978.44945  21177282.0474                   21177279.6374
 11  7 25  2 32 30.0000000  0  7G02G17G04G10G12G25G05
 323294212.10947 251964965.87946  20476458.0234                   20476452.7734
 290919127.61746 226736946.15243  23668414.2504                   23668411.2194
 313215792.13347 244129495.86744  22232346.2734                   22232344.1914
 335352559.09447 261554471.88745  20838758.0234                   20838755.5274
 343399012.10947 267624188.41446  20780671.2504                   20780668.1994
 371898482.87147 289837330.63344  23023292.2894                   23023292.5124
 352469590.20747 274705489.64545  21146148.3284                   21146145.0474
 11  7 25  2 33  0.0000000  0  7G02G17G04G10G12G25G05
 324792430.38747 253132408.71546  20761559.3524                   20761553.8594
 292469796.06346 227945259.26243  23963496.3524                   23963493.6134
 314783007.56647 245350702.69544  22530577.8134                   22530575.5594
 336864683.12947 262732750.35945  21126505.6644                   21126503.0434
 344853967.48447 268757919.90645  21057540.0474                   21057537.0354
 373298218.03546 290928033.41044  23289652.5944                   23289653.6764
 353881872.75447 275805969.59045  21414896.4614                   21414893.5704
 11  7 25  2 33 30.0000000  0  7G02G17G04G10G12G25G05
 324715505.77047 253072467.46946  20746921.2274                   20746916.1414
 292445255.28546 227926136.60243  23958825.8444                   23958823.9804
 314774905.26647 245344389.21944  22529035.5554                   22529033.1294
 336802038.41847 262683936.31345  21114585.1954                   21114582.2154
 344734078.39847 268664499.86745  21034724.9454                   21034722.6294
 373122886.44547 290791411.47344  23256288.4694                   23256289.0554
 353719197.31347 275679209.55145  21383940.2114                   21383937.3094
 11  7 25  2 34  0.0000000  0  7G02G17G04G10G12G25G05
 324638860.30947 253012743.74646  20732335.8134                   20732330.5744
 292420926.93846 227907179.43043  23954196.5634                   23954193.8754
 314766904.27747 245338154.71144  22527512.9454                   22527511.0044
 336740046.64547 262635631.05145  21102787.7664                   21102785.4184
 344614771.26247 268571533.28145  21012022.6174                   21012018.9964
 372947917.07046 290655071.76244  23222992.7034                   23222993.4304
 353556991.78147 275552815.67245  21353073.8674                   21353071.1024
 11  7 25  2 34 30.0000000  0  7G02G17G04G10G12G25G05
 324562490.58247 252953234.87946  20717803.0634                   20717797.9884
 292396809.31846 227888386.48743  23949607.9304                   23949605.0274
 314759001.20747 245331996.48444  22526008.3284                   22526006.7974
 336678704.60947 262587832.07445  21091114.7814                   21091112.4804
 344496044.49247 268479018.94945  20989429.6804                   20989426.2154
 372773310.45347 290519014.75844  23189765.6414                   23189766.0944
 353395256.35247 275426788.10245  21322296.2504                   21322293.1294
 11  7 25  2 35  0.0000000  0  7G02G17G04G10G12G25G05
 324486395.29747 252893939.85546  20703322.8444                   20703317.6994
 292372902.07846 227869757.50844  23945058.4844                   23945055.3674
 314751194.39147 245325913.26644  22524523.5864                   22524521.2624
 336618011.04747 262540538.39145  21079566.5234                   21079562.8204
 344377899.37947 268386957.84845  20966947.5864                   20966943.5274
 372599069.11346 290383242.39544  23156608.8914                   23156609.5394
 353233993.47747 275301128.76645  21291608.9224                   21291606.2114
 11  7 25  2 35 30.0000000  0  7G02G17G04G10G12G25G05
 324410571.48847 252834856.38746  20688894.4144                   20688888.6604
 292349203.58646 227851291.16443  23940548.3524                   23940545.7464
 314743480.46947 245319902.40244  22523056.2194                   22523053.4414
 336557962.61747 262493747.41845  21068139.2664                   21068135.2344
 344260335.61347 268295349.74245  20944575.8594                   20944572.6054
 372425193.71147 290247755.18444  23123521.3834                   23123521.8874
 353073203.66447 275175838.05145  21261012.1954                   21261008.8794
 11  7 25  2 36  0.0000000  0  7G02G17G04G10G12G25G05
 324335017.35547 252775983.06346  20674516.8284                   20674511.3054
 292325713.59046 227832987.26643  23936077.6724                   23936075.8794
 314735857.09047 245313962.11744  22521604.9304                   22521602.5824
 336498557.78547 262447457.94545  21056834.6414                   21056831.0514
 344143353.89147 268204195.18445  20922314.8984                   20922311.2974
 372251686.17246 290112554.64544  23090503.5314                   23090504.6254
 352912888.51647 275050917.19545  21230504.6334                   21230502.2624
 11  7 25  2 36 30.0000000  0  7G02G17G04G10G12G25G05
 324259729.76647 252717317.43046  20660189.5314                   20660184.5274
 292302430.06646 227814844.25043  23931647.6644                   23931645.1914
 314728320.80147 245308089.68844  22520171.3134                   22520168.5594
 336439793.36747 262401667.50045  21045651.8364                   21045648.7234
 344026953.56647 268113493.66045  20900164.8284                   20900161.1604
 372078547.05546 289977641.18044  23057556.1484                   23057556.5744
 352753047.92247 274926366.12545  21200088.4694                   21200084.9494
 11  7 25  2 37  0.0000000  0  7G02G17G04G10G12G25G05
 324184709.34047 252658859.97346  20645913.5314                   20645908.6294
 292279355.17246 227796863.82843  23927257.0634                   23927254.4614
 314720872.15647 245302285.57044  22518753.2664                   22518751.6684
 336381670.25847 262356376.77745  21034591.2034                   21034588.6294
 343911137.52347 268023247.41846  20878125.0314                   20878121.6804
 371905780.94946 289843018.35244  23024680.7664                   23024680.3094
 352593686.51247 274802188.45345  21169762.6024                   21169759.7074
 11  7 25  2 37 30.0000000  0  7G02G17G04G10G12G25G05
 324109954.02347 252600609.09846  20631688.3834                   20631682.9104
 292256487.89146 227779045.16843  23922905.1484                   23922902.5824
 314713508.39846 245296547.59844  22517351.8134                   22517350.1604
 336324185.97747 262311583.84045  21023652.9694                   21023649.8874
 343795905.94947 267933456.60545  20856197.6954                   20856194.2194
 371733389.40646 289708687.41044  22991874.9694                   22991875.5864
 352434805.74647 274678385.28945  21139529.0394                   21139525.4064
 11  7 25  2 38  0.0000000  0  7G02G17G04G10G12G25G05
 324035464.97347 252542565.70346  20617513.4844                   20617508.0474
 292233830.71146 227761390.24243  23918593.1254                   23918590.4414
 314706230.53947 245290876.52043  22515967.7344                   22515964.9264
 336267341.43447 262267289.39145  21012835.6564                   21012832.8714
 343681262.70747 267844124.23045  20834381.8284                   20834378.4344
 371561377.44546 289574652.21944  22959142.7194                   22959141.7704
 352276410.13747 274554960.18845  21109386.6724                   21109383.6254
 11  7 25  2 38 30.0000000  0  7G02G17G04G10G12G25G05
 323961236.86747 252484725.62546  20603388.5784                   20603383.2424
 292211379.87546 227743896.10543  23914321.5634                   23914319.1884
 314699033.25447 245285268.24643  22514597.5004                   22514595.7194
 336211131.52747 262223489.46545  21002139.6334                   21002136.3674
 343567204.97747 267755248.09846  20812676.8984                   20812673.3794
 371389743.60247 289440911.67644  22926481.8204                   22926481.6374
 352118497.61347 274431911.51645  21079336.9224                   21079334.5634
 11  7 25  2 39  0.0000000  0  7G02G17G04G10G12G25G05
 323887271.56347 252427090.36346  20589313.3054                   20589307.9024
 292189138.25046 227726564.94943  23910089.0314                   23910087.1134
 314691917.63747 245279723.59844  22513243.2584                   22513241.2624
 336155557.44147 262180184.99645  20991563.9384                   20991560.7464
 343453736.18847 267666830.88745  20791084.8524                   20791081.1134
 371218493.09847 289307469.81644  22893894.2664                   22893893.5044
 351961073.23847 274309243.21145  21049380.5314                   21049376.9494
 11  7 25  2 39 30.0000000  0  7G02G17G04G10G12G25G05
 323813563.09047 252369655.20346  20575286.8594                   20575281.5084
 292167101.14845 227709393.17643  23905894.3594                   23905892.5824
 314684877.56347 245274237.82044  22511904.0234                   22511901.3284
 336100613.22747 262137371.32845  20981108.4304                   20981104.6684
 343340853.19147 267578870.12546  20769603.3524                   20769600.4024
 371047623.83247 289174325.01244  22861378.5554                   22861377.9344
 351804134.65247 274186953.44945  21019515.2894                   21019512.4104
 11  7 25  2 40  0.0000000  0  7G02G17G04G10G12G25G05
 323740115.11747 252312423.04346  20561310.2114                   20561305.0204
 292145273.63745 227692384.75443  23901741.2424                   23901739.5044
 314677916.54747 245268813.66043  22510579.7894                   22510576.8954
 336046302.48847 262095051.28545  20970772.7114                   20970769.7154
 343228561.80147 267491370.35546  20748235.3984                   20748231.8834
 370877143.23447 289041483.09444  22828936.4224                   22828936.3954
 351647688.99647 274065047.76645  20989745.0864                   20989741.7274
 11  7 25  2 40 30.0000000  0  7G02G17G04G10G12G25G05
 323666924.98447 252255391.79746  20547382.5314                   20547377.5664
 292123654.31345 227675538.53943  23897627.5394                   23897625.1994
 314671031.58247 245263448.76643  22509269.1334                   22509266.7034
 335992622.31347 262053222.57845  20960557.8204                   20960555.0634
 343116862.06347 267404331.62546  20726979.6884                   20726976.2974
 370707052.49647 288908944.93444  22796569.3914                   22796568.9104
 351491736.80147 273943526.61745  20960068.4534                   20960065.3594
 11  7 25  2 41  0.0000000  0  7G02G17G04G10G12G25G05
 323593991.52747 252198560.55146  20533503.6884                   20533498.4654
 292102243.11345 227658854.47343  23893553.8674                   23893550.7894
 314664221.41446 245258142.15643  22507972.8524                   22507970.2194
 335939571.14147 262011884.02345  20950462.7344                   20950459.8364
 343005754.43447 267317754.27046  20705836.9144                   20705833.1214
 370537354.09847 288776712.48444  22764276.7584                   22764276.6334
 351336280.12947 273822391.58645  20930485.7344                   20930483.1414
 11  7 25  2 41 30.0000000  0  7G02G17G04G10G12G25G05
 323521311.17648 252141926.54346  20519673.0084                   20519667.7704
 292081037.81346 227642330.86743  23889517.8444                   23889515.3284
 314657482.07846 245252890.73044  22506690.5634                   22506688.0514
 335887145.21547 261971032.66045  20940486.6644                   20940483.3524
 342895238.02047 267231637.59846  20684806.3204                   20684802.1374
 370368048.17247 288644785.85544  22732058.9144                   22732059.3164
 351181318.87147 273701642.59445  20900998.1484                   20900993.8444
 11  7 25  2 42  0.0000000  0  7G02G17G04G10G12G25G05
 325024306.19947 253313091.51646  20805683.7814                   20805678.0664
 293635460.53946 228853569.35243  24185314.3364                   24185312.2734
 316226233.62947 246475294.55544  22805214.4614                   22805211.8014
 337410765.81647 263158269.50445  21230422.1414                   21230419.0784
 344360738.31647 268373585.90245  20963681.5554                   20963677.5634
 371774564.00046 289740772.25844  22999709.7734                   22999709.7504
 352602281.33647 274808886.11345  21171398.3834                   21171394.7504
 11  7 25  2 42 30.0000000  0  7G02G17G04G10G12G25G05
 324952129.20747 253256849.72746  20791949.2584                   20791943.4694
 293614668.15246 228837367.52743  24181358.6024                   24181356.5164
 316219632.42246 246470150.75843  22803957.9224                   22803955.7504
 337359586.53147 263118389.53545  21220682.8134                   21220679.8794
 344251407.42247 268288393.00045  20942876.5864                   20942873.1054
 371606051.26647 289609463.68444  22967642.3204                   22967643.2464
 352448317.66447 274688914.45345  21142099.2034                   21142096.2504
 11  7 25  2 43  0.0000000  0  7G02G17G04G10G12G25G05
 324880207.05147 253200806.50046  20778262.6024                   20778257.6994
 293594086.85546 228821330.17243  24177441.7344                   24177439.9304
 316213103.17647 246465063.02044  22802715.8054                   22802712.9534
 337309033.15647 263078997.31345  21211062.7344                   21211059.8204
 344142675.96947 268203667.21945  20922185.8444                   20922182.1994
 371437943.78147 289478470.90644  22935653.0634                   22935652.5904
 352294860.90647 274569337.78545  21112897.6094                   21112894.4774
 11  7 25  2 43 30.0000000  0  7G02G17G04G10G12G25G05
 324808533.04347 253144956.65646  20764623.6884                   20764618.2154
 293573711.57045 228805453.35242  24173564.3984                   24173561.4264
 316206638.86346 246460025.87144  22801485.8524                   22801483.0044
 337259098.69947 263040087.36345  21201560.6414                   21201557.5394
 344034539.26247 268119404.86746  20901607.5864                   20901604.3874
 371270238.67247 289347791.62944  22903739.7974                   22903739.8094
 352141907.71947 274450153.51246  21083791.5704                   21083788.7894
 11  7 25  2 44  0.0000000  0  7G02G17G04G10G12G25G05
 324737107.69947 253089300.56345  20751031.3914                   20751026.0514
 293553543.77345 228789738.17642  24169725.9694                   24169724.6414
 316200239.92647 246455039.70344  22800267.3054                   22800265.5864
 337209783.34047 263001659.82045  21192176.3054                   21192173.0474
 343926999.71147 268035607.82446  20881143.5554                   20881139.9734
 371102940.06647 289217429.12944  22871903.6334                   22871903.8834
 351989461.68047 274331364.44145  21054782.0864                   21054779.0594
 11  7 25  2 44 30.0000000  0  7G02G17G04G10G12G25G05
 324665931.91847 253033838.93446  20737486.9694                   20737481.9304
 293533585.75445 228774186.46542  24165928.5634                   24165926.9844
 316193907.02047 246450104.97744  22799062.3134                   22799059.9964
 337161087.17247 262963714.78145  21182909.3054                   21182906.7234
 343820060.43447 267952278.53546  20860793.6414                   20860790.4734
 370936052.41846 289087386.85544  22840146.2894                   22840146.3594
 351837527.04747 274212973.86346  21025869.6724                   21025866.6954
 11  7 25  2 45  0.0000000  0  7G02G17G04G10G12G25G05
 324595000.64547 252978567.83646  20723989.6414                   20723984.4384
 293513833.25045 228758794.93042  24162169.7974                   24162167.8914
 316187634.97346 246445217.68043  22797868.8284                   22797866.8364
 337113004.94947 262926248.12545  21173759.7974                   21173757.0904
 343713718.31347 267869414.57045  20840557.1174                   20840553.8714
 370769574.43847 288957663.78544  22808466.5394                   22808466.5314
 351686101.92247 274094980.27745  20997054.5704                   20997051.5044
 11  7 25  2 45 30.0000000  0  7G02G17G04G10G12G25G05
 324524316.18047 252923489.05146  20710538.7114                   20710533.3834
 293494290.01645 228743566.40242  24158450.5164                   24158449.4104
 316181425.57447 246440379.19543  22796687.8204                   22796684.8094
 337065538.23447 262889261.09445  21164727.2344                   21164724.1914
 343607977.52347 267787019.15646  20820435.5864                   20820432.2234
 370603511.95747 288828264.50444  22776865.6884                   22776865.9224
 351535191.33247 273977387.64845  20968337.5554                   20968333.9144
 11  7 25  2 46  0.0000000  0  7G02G17G04G10G12G25G05
 324453874.96947 252868599.81345  20697134.1024                   20697128.3444
 293474953.39545 228728498.85942  24154770.3984                   24154770.3794
 316175275.07846 246435586.55943  22795516.8754                   22795513.7584
 337018683.02747 262852750.57845  21155810.6174                   21155807.5354
 343502836.44147 267705091.06346  20800427.9384                   20800424.1094
 370437864.80947 288699188.84044  22745344.6094                   22745344.0634
 351384794.94547 273860195.69545  20939717.3984                   20939714.8524
 11  7 25  2 46 30.0000000  0  7G02G17G04G10G12G25G05
 324383673.17647 252813897.12945  20683775.5084                   20683769.6054
 293455821.43845 228713590.90642  24151130.5554                   24151129.0044
 316169180.15247 246430837.27343  22794357.3444                   22794354.0274
 336972435.10947 262816713.23445  21147010.1804                   21147006.9024
 343398293.68047 267623629.18845  20780534.4534                   20780530.4574
 370272633.31647 288570437.06644  22713902.0164                   22713901.7504
 351234912.30147 273743404.06345  20911196.5004                   20911193.0124
 11  7 25  2 47  0.0000000  0  7G02G17G04G10G12G25G05
 324313711.37548 252759381.44546  20670462.1804                   20670456.4734
 293436895.12545 228698843.12143  24147529.0004                   24147527.1414
 316163140.66446 246426131.16843  22793208.0234                   22793205.8794
 336926794.21947 262781148.91445  21138325.1414                   21138321.9534
 343294351.82847 267542635.55145  20760754.7814                   20760750.8404
 370107821.38747 288442012.23044  22682539.2344                   22682539.0204
 351085546.82447 273627015.41445  20882772.6174                   20882769.8244
 11  7 25  2 47 30.0000000  0  7G02G17G04G10G12G25G05
 324243986.40247 252705050.32046  20657193.4454                   20657188.2774
 293418172.87945 228684254.31342  24143966.1334                   24143964.6134
 316157153.50046 246421465.83243  22792068.9844                   22792066.3014
 336881756.75447 262746054.79345  21129754.6414                   21129751.4414
 343191009.32847 267462108.94945  20741089.0704                   20741085.2974
 369943429.65647 288313914.81344  22651256.4924                   22651256.1454
 350936698.65647 273511029.87145  20854447.4144                   20854444.5434
 11  7 25  2 48  0.0000000  0  7G02G17G04G10G12G25G05
 324174500.55147 252650905.51646  20643970.7584                   20643965.6484
 293399657.79345 228669826.94942  24140444.2114                   24140441.4454
 316151220.70746 246416842.88744  22790939.7814                   22790937.1804
 336837324.21147 262711432.04345  21121299.1334                   21121296.1414
 343088270.00447 267382052.35545  20721538.2894                   20721534.9344
 369779463.82847 288186149.26244  22620054.9384                   22620054.4454
 350788372.91447 273395451.41845  20826222.3204                   20826219.2974
 11  7 25  2 48 30.0000000  0  6G02G04G10G12G25G05
 324105251.77747 252596945.44546  20630793.9224                   20630788.1524
 316145340.08646 246412260.59044  22789820.7194                   22789818.9694
 336793494.10547 262677278.72345  21112958.8834                   21112955.5474
 342986133.79747 267302465.71545  20702103.0234                   20702098.7584
 369615925.32047 288058716.71144  22588934.5084                   22588934.0904
 350640570.72347 273280280.92245  20798096.2274                   20798093.4654
 11  7 25  2 49  0.0000000  0  6G02G04G10G12G25G05
 324036235.24647 252543166.35246  20617659.8204                   20617654.3554
 316139506.71946 246407715.11343  22788710.6174                   22788708.8594
 336750260.69547 262643590.37145  21104732.1334                   21104728.9614
 342884597.96947 267223346.91045  20682780.8754                   20682777.3484
 369452813.12147 287931616.35944  22557894.6254                   22557894.7974
 350493290.32047 273165516.99245  20770069.4614                   20770066.7344
 11  7 25  2 49 30.0000000  0  6G02G04G10G12G25G05
 323967453.71547 252489570.37946  20604571.5554                   20604565.7934
 316133723.28546 246403208.53543  22787610.1174                   22787607.9064
 336707626.21947 262610368.71945  21096618.3284                   21096615.5514
 342783667.03147 267144699.43446  20663574.3914                   20663570.9344
 369290133.37147 287804852.98444  22526937.7344                   22526938.0124
 350346537.23447 273051163.98045  20742144.0554                   20742140.6214
 11  7 25  2 50  0.0000000  0  6G02G04G10G12G25G05
 323898910.83247 252436160.36346  20591527.9064                   20591522.4654
 316127993.34046 246398743.63343  22786519.6954                   22786516.9574
 336665593.50847 262577615.95745  21088620.1094                   21088616.6914
 342683346.27747 267066527.42646  20644484.0234                   20644480.3054
 369127893.34047 287678432.23444  22496065.0634                   22496064.5704
 350200317.97747 272937226.94546  20714318.7034                   20714316.0864
 11  7 25  2 50 30.0000000  0  6G02G04G10G12G25G05
 323830607.39847 252382936.91445  20578530.0554                   20578525.0164
 316122317.41046 246394320.82443  22785439.6414                   22785437.2274
 336624162.68847 262545332.22345  21080736.2194                   21080733.1134
 342583638.46547 266988833.04346  20625510.3054                   20625506.8634
 368966097.38347 287552357.51644  22465275.8364                   22465275.7154
 350054636.96547 272823709.30946  20686596.8204                   20686593.8204
 11  7 25  2 51  0.0000000  0  6G02G04G10G12G25G05
 325337963.49247 253557500.12146  20865370.2894                   20865365.4184
 317692113.59446 247617538.63344  23084161.9064                   23084159.7584
 338158752.09447 263741116.16845  21372759.1484                   21372755.6724
 344059966.32047 268139218.39146  20906446.3284                   20906442.5704
 370380172.18447 288654234.05544  22734364.9064                   22734364.8484
 351484919.23047 273938215.00846  20958770.9144                   20958767.5944
 11  7 25  2 51 30.0000000  0  6G02G04G10G12G25G05
 325270129.30547 253504642.32446  20852462.0704                   20852456.1024
 317686535.97346 247613192.45343  23083100.6334                   23083098.6644
 338118512.80147 263709760.89545  21365101.6724                   21365098.2814
 343961479.39147 268062475.34445  20887704.4534                   20887700.5354
 370219264.99247 288528851.89844  22703745.9224                   22703745.7464
 351340312.70747 273825534.62945  20931252.5234                   20931249.2194
 11  7 25  2 52  0.0000000  0  6G02G04G10G12G25G05
 325202526.00047 253451964.44146  20839597.5634                   20839592.0744
 317681003.56646 247608881.46543  23082047.9924                   23082045.4184
 338078864.67247 263678866.27045  21357556.1724                   21357553.7304
 343863601.67247 267986207.01246  20869079.0704                   20869075.7154
 370058803.90647 288403817.34044  22673210.5634                   22673210.4184
 351196243.83247 273713273.21146  20903837.4454                   20903833.4774
 11  7 25  2 52 30.0000000  0  6G02G04G10G12G25G05
 325135150.83647 253399464.32846  20826776.2344                   20826771.1604
 317675513.64146 247604603.60243  23081002.7814                   23081000.1054
 338039803.75847 263648429.18845  21350123.2034                   21350120.6564
 343766332.28547 267910412.69546  20850569.8134                   20850565.7194
 369898789.55147 288279130.90244  22642761.1024                   22642760.8484
 351052712.97347 273601431.00845  20876523.7664                   20876520.8634
 11  7 25  2 53  0.0000000  0  6G02G04G10G12G25G05
 325068001.50447 253347140.18045  20813998.1094                   20813993.1174
 317670063.83646 247600356.99243  23079966.1724                   23079963.8914
 338001326.73847 263618447.09845  21342801.6334                   21342798.4534
 343669670.09047 267835091.52046  20832175.0474                   20832171.3164
 369739222.92247 288154793.32445  22612396.1954                   22612396.4694
 350909720.76247 273490008.54346  20849313.3204                   20849310.1374
 11  7 25  2 53 30.0000000  0  6G02G04G10G12G25G05
 325001074.37947 253294989.18846  20801262.8364                   20801256.7734
 317664650.38346 247596138.69943  23078935.3594                   23078932.9574
 337963429.47747 263588916.77045  21335590.1484                   21335587.2974
 343573613.71547 267760242.40246  20813896.1484                   20813892.5744
 369580104.12947 288030804.70745  22582116.7894                   22582116.7384
 350767266.14847 273379004.97346  20822205.5704                   20822201.8674
 11  7 25  2 54  0.0000000  0  6G02G04G10G12G25G05
 324934373.05947 253243014.16045  20788569.5784                   20788564.1024
 317659277.04746 247591951.69943  23077913.3054                   23077910.6914
 337926114.53147 263559840.20345  21328488.9144                   21328486.1564
 343478167.88347 267685869.03946  20795733.8524                   20795729.6094
 369421440.14147 287907170.51244  22551924.5554                   22551924.4964
 350625355.86347 273268425.56646  20795200.7274                   20795197.1844
 11  7 25  2 54 30.0000000  0  6G02G04G10G12G25G05
 324867891.57847 253191210.41845  20775918.8284                   20775913.2734
 317653937.63346 247587791.09443  23076897.3444                   23076895.4534
 337889375.12547 263531212.11345  21321498.6094                   21321495.5314
 343383328.16847 267611967.98446  20777686.4064                   20777682.2814
 369263228.52747 287783888.79345  22521817.9924                   22521817.3444
 350483986.60247 273158267.72346  20768299.1094                   20768295.7584
 11  7 25  2 55  0.0000000  0  6G02G04G10G12G25G05
 324801630.88747 253139578.73045  20763309.4694                   20763304.1994
 317648632.81646 247583657.50043  23075887.4844                   23075885.1804
 337853210.67247 263503032.04345  21314615.5944                   21314613.0744
 343289096.98047 267538541.10246  20759754.5704                   20759750.8094
 369105473.24247 287660962.64545  22491798.7194                   22491797.3554
 350343161.61747 273048534.00446  20741500.6334                   20741497.5944
 11  7 25  2 55 30.0000000  0  6G02G04G10G12G25G05
 324735587.87147 253088116.65246  20750741.6024                   20750736.7664
 317643359.50446 247579548.38743  23074884.2664                   23074881.5824
 337817617.16847 263475296.85245  21307843.0314                   21307839.9414
 343195472.43047 267465586.91446  20741938.6414                   20741934.5824
 368948174.60247 287538392.31645  22461865.0164                   22461864.3484
 350202880.29347 272939223.91046  20714806.6644                   20714803.0984
 11  7 25  2 56  0.0000000  0  6G02G04G10G12G25G05
 324669757.07047 253036819.93045  20738214.4844                   20738209.0124
 317638112.54746 247575459.84043  23073885.7194                   23073883.2584
 337782588.17647 263448001.53945  21301177.1724                   21301173.8204
 343102450.59047 267393102.37946  20724237.2034                   20724232.6884
 368791330.84047 287416176.43445  22432018.9064                   22432017.6374
 350063140.28547 272830335.63346  20688214.7424                   20688211.4024
 11  7 25  2 56 30.0000000  0  6G02G04G10G12G25G05
 324604138.47347 252985688.57846  20725727.9844                   20725722.6334
 317632891.82846 247571391.69943  23072892.6954                   23072890.4494
 337748123.28547 263421145.80145  21294619.5004                   21294615.4734
 343010033.23047 267321088.86746  20706650.7344                   20706646.6054
 368634945.41447 287294317.69944  22402259.6174                   22402258.9884
 349923944.39547 272721871.33646  20661726.8524                   20661723.5124
 11  7 25  2 57  0.0000000  0  6G02G04G10G12G25G05
 324538730.13347 252934721.06346  20713281.3914                   20713276.0124
 317627695.27746 247567342.43043  23071903.6024                   23071901.3554
 337714219.25447 263394727.09445  21288167.1724                   21288163.4964
 342918219.46147 267249545.68046  20689179.1804                   20689175.2344
 368479019.50847 287172817.05945  22372587.4144                   22372586.8634
 349785293.29347 272613831.54746  20635342.2194                   20635339.1524
 11  7 25  2 57 30.0000000  0  6G02G04G10G12G25G05
 324473531.44947 252883916.91845  20700874.2894                   20700868.7774
 317622522.23846 247563311.47743  23070919.7344                   23070916.9774
 337680874.14847 263368743.90245  21281821.4224                   21281818.2814
 342827010.04747 267178473.42646  20671822.5944                   20671818.4024
 368323555.84447 287051676.59845  22343003.5004                   22343003.4064
 349647188.61747 272506217.54746  20609061.7114                   20609058.3874
 11  7 25  2 58  0.0000000  0  6G02G04G10G12G25G05
 324408543.58247 252833277.05145  20688507.4774                   20688501.6764
 317617373.85946 247559299.71943  23069939.4844                   23069937.0434
 337648087.99247 263343196.26645  21275582.8984                   21275579.0044
 342736407.64847 267107874.17246  20654581.3984                   20654577.8364
 368168558.93047 286930899.82445  22313508.9534                   22313508.0514
 349509634.35547 272399032.44946  20582885.7194                   20582882.8554
 11  7 25  2 58 30.0000000  0  6G02G04G10G12G25G05
 324343761.13747 252782797.25046  20676179.9774                   20676174.4414
 317612244.78146 247555303.05543  23068963.5004                   23068961.4964
 337615854.49647 263318079.26645  21269448.5864                   21269445.6644
 342646407.91047 267037744.50446  20637454.7114                   20637451.1564
 368014026.70347 286810485.17644  22284102.2114                   22284101.9024
 349372627.56647 272292273.93446  20556814.5944                   20556810.9694
 11  7 25  2 59  0.0000000  0  6G02G04G10G12G25G05
 324279181.28547 252732475.32045  20663890.5554                   20663885.2734
 317607132.31646 247551319.27743  23067990.2194                   23067988.2664
 337584169.59847 263293389.74245  21263419.0704                   21263416.4454
 342557009.91447 266968083.73846  20620443.2194                   20620438.8834
 367859959.70347 286690433.03144  22254784.0394                   22254783.4804
 349236168.16847 272185941.95746  20530846.8914                   20530844.0434
 11  7 25  2 59 30.0000000  0  7G02G29G04G10G12G25G05
 325790224.71147 253909911.78545  20951432.2194   20951427.3094   24510322.430
 319177454.88346 248774947.21943  23366813.6414                   23366810.7424
 339128451.75447 264496726.49245  21557285.5004                   21557282.8754
 344043635.34447 268126493.16846  20903338.2504                   20903334.7894
 369281784.58247 287798348.60544  22525348.2114
                                  22525347.4964
 350675681.44947 273307640.65646  20804777.5234                   20804773.5904
 11  7 25  3  0  0.0000000  0  7G02G29G04G10G12G25G05
 325726048.17647 253859904.10245                  20939220.4454   20939214.6254
 390505184.55145 304338111.59042  24478050.5864                   24478049.6294
 319172373.47746 248770987.68843  23365846.0314                   23365843.7424
 339097858.75847 264472887.78945  21551465.0164                   21551461.5394
 343955441.02347 268057770.33645  20886556.1334                   20886551.7584
 369128655.77747 287679027.50845  22496209.1254                   22496208.2234
 350540322.20747 273202165.94946  20779019.2974                   20779015.7074
 11  7 25  3  0 30.0000000  0  7G02G29G04G10G12G25G05
 325662072.77347 253810053.15645                  20927045.8524   20927040.7304
 390335556.91446 304205934.28942  24445770.9454                   24445770.9734
 319167307.25046 248767039.96543  23364882.2504                   23364880.2344
 339067808.90247 264449472.32444  21545747.0864                   21545742.9494
 343867849.70347 267989517.36746  20869887.5554                   20869883.9104
 368976000.31647 287560075.28145  22467159.4144                   22467158.5904
 350405515.98447 273097122.16046  20753366.6094                   20753363.0554
 11  7 25  3  1  0.0000000  0  7G02G29G04G10G12G25G05
 325598290.25447 253760352.52045                  20914909.0164   20914902.8794
 390165883.99646 304073721.67642  24413483.2664                   24413483.1134
 319162247.92646 248763097.60543  23363919.2894                   23363917.5664
 339038293.43847 264426473.28545  21540129.5234                   21540127.1954
 343780854.77347 267921729.11746  20853332.8754                   20853329.3444
 368823813.36347 287441488.12545  22438199.0554                   22438198.5784
 350271257.02347 272992504.82446  20727817.6334                   20727814.5044
 11  7 25  3  1 30.0000000  0  7G02G29G04G10G12G25G05
 325534701.37547 253710802.76646                  20902808.0704   20902802.3134
 389996168.21146 303941475.68042  24381187.4694                   24381188.0434
 319157196.12146 248759161.14543  23362958.2584                   23362956.8094
 339009311.66447 264403890.08645  21534613.8444                   21534611.7074
 343694457.91447 267854406.89146  20836892.4534                   20836888.7774
 368672098.65647 287323268.94145  22409328.9064                   22409327.8914
 350137548.49247 272888316.38746  20702374.1334                   20702370.5784
 11  7 25  3  2  0.0000000  0  7G02G29G04G10G12G25G05
 325471298.27747 253661397.77045                  20890743.2194   20890737.9494
 389826403.20346 303809191.32842  24348883.1564                   24348882.4064
 319152144.39146 248755224.72743  23361996.5004                   23361994.3794
 338980854.28147 264381715.48845  21529199.4064                   21529196.1414
 343608652.58247 267787545.60546  20820564.1334                   20820560.0664
 368520851.71147 287205414.24245  22380547.2974                   22380546.7704
 350004385.03147 272784552.68046  20677033.7114                   20677030.0314
 11  7 25  3  2 30.0000000  0  7G02G29G04G10G12G25G05
 325408086.16047 253612141.57446                  20878714.0944   20878708.8954
 389656595.85546 303676874.04742  24316570.0394                   24316569.6334
 319147097.48446 248751292.08243  23361035.7814                   23361034.0124
 338952925.32447 264359952.66045  21523884.8524                   21523881.7234
 343523444.49247 267721149.69546  20804348.8914                   20804345.3754
 368370080.84847 287087930.51245  22351857.0474                   22351856.0824
 349871774.07047 272681219.47746  20651798.5474                   20651795.3284
 11  7 25  3  3  0.0000000  0  7G02G29G04G10G12G25G05
 325345061.53547 253563031.49245                  20866720.8444   20866715.2704
 389486744.38746 303544522.35943  24284247.5554                   24284247.8054
 319142052.33646 248747360.80143  23360075.8834                   23360074.0984
 338925520.23447 264338598.03945  21518669.6254                   21518666.5514
 343438831.44147 267655217.44546  20788248.4534                   20788244.1024
 368219785.75847 286970817.50445  22323256.0004                   22323255.6764
 349739714.77347 272578316.14546  20626668.6174                   20626665.5394
 11  7 25  3  3 30.0000000  0  7G02G29G04G10G12G25G05
 325282224.50447 253514067.58645                  20854762.9534   20854757.9064
 389316850.64546 303412137.76243  24251917.6564                   24251917.2774
 319137009.07446 248743430.94943  23359116.5704                   23359114.4414
 338898637.69947 264317650.62545  21513553.6724                   21513551.1484
 343354814.51647 267589749.71946  20772260.1334                   20772256.4104
 368069969.69947 286854077.77045  22294747.5634                   22294746.9344
 349608209.03947 272475844.17646  20601643.7584                   20601640.7034
 11  7 25  3  4  0.0000000  0  7G02G29G04G10G12G25G05
 325219574.14847 253465249.12945                  20842841.3914   20842836.1684
 389146915.53146 303279720.90643  24219580.9064                   24219578.7894
 319131966.57446 248739501.72743  23358157.2424                   23358154.1644
 338872275.08647 264297108.33244  21508537.6884                   21508534.7384
 343271393.69547 267524746.48446  20756386.0394                   20756381.7544
 367920634.77747 286737712.96145  22266329.1254                   22266329.0004
 349477258.36347 272373804.71946  20576725.0554                   20576721.3164
 11  7 25  3  4 30.0000000  0  7G02G29G04G10G12G25G05
 325157116.27047 253416580.64545                  20830956.2894   20830950.8244
 388976946.73846 303147277.78543  24187235.9924                   24187235.2504
 319126931.14546 248735578.03943  23357198.8204                   23357196.1604
 338846437.31347 264276974.99644  21503620.7734                   21503617.9304
 343188575.95747 267460213.19546  20740625.9144                   20740622.1604
 367771790.06347 286621730.10945  22238006.0704                   22238005.5354
 349346871.23447 272272204.38346  20551912.6724                   20551909.1884
 11  7 25  3  5  0.0000000  0  7G02G29G04G10G12G25G05
 325094841.63747 253368054.96945                  20819105.2814   20819099.8754
 388806935.94146 303014801.97343  24154883.8754                   24154883.6564
 319121893.18446 248731652.32843  23356239.7194                   23356237.8134
 338821113.12147 264257241.87544  21498801.3524                   21498798.7734
 343106352.84448 267396143.23446  20724979.8984                   20724976.0044
 367623429.05547 286506124.16845  22209773.4224                   22209772.4924
 349217040.18047 272171037.35246  20527207.0234                   20527203.5004
 11  7 25  3  5 30.0000000  0  7G02G29G04G10G12G25G05
 325032755.41447 253319676.10245                  20807290.9224   20807285.3364
 388636890.43046 302882299.07843  24122525.5704                   24122524.5434
 319116857.90246 248727728.69543  23355282.4924                   23355280.0864
 338796306.39547 264237911.95744  21494080.9774                   21494078.2034
 343024729.94147 267332540.98846  20709446.3364                   20709443.4064
 367475560.09047 286390901.62945  22181634.2814                   22181634.0904
 349087772.27347 272070309.13746  20502607.3364                   20502604.5274
 11  7 25  3  6  0.0000000  0  7G02G29G04G10G12G25G05
 324970855.64547 253271442.53145                  20795511.5234   20795506.2274
 388466809.96546 302749768.94943  24090159.8364                   24090158.9224
 319111823.53146 248723805.85243  23354324.3364                   23354322.2664
 338772013.80147 264218982.68844  21489457.8674                   21489454.7974
 342943706.25847 267269405.66046  20694029.0474                   20694025.2154
 367328184.12147 286276063.25045  22153589.9224                   22153589.3014
 348959067.82447 271970019.97346  20478116.1334                   20478112.7584
 11  7 25  3  6 30.0000000  0  7G02G29G04G10G12G25G05
 324909139.37547 253223351.93845                  20783767.4614   20783762.0704
 388296693.84846 302617211.06343  24057788.0864                   24057787.0744
 319106787.58646 248719881.75843  23353365.1094                   23353362.8594
 338748231.16047 264200450.77044  21484932.8834                   21484929.8984
 342863280.10947 267206735.94546  20678724.3524                   20678720.7854
 367181301.67647 286161609.40245  22125639.3674                   22125638.7154
 348830926.50847 271870169.63746  20453731.4924                   20453728.0514
 11  7 25  3  7  0.0000000  0  7G02G29G04G10G12G25G05
 324847604.99647 253175403.09445                  20772057.8524   20772052.4454
 388126541.97746 302484625.27343  24025408.8054                   24025408.2114
 319101748.33646 248715955.06343  23352408.0394                   23352404.3054
 338724955.31647 264182313.75844  21480503.0634                   21480500.3204
 342783450.39547 267144530.98046  20663533.1884                   20663529.3554
 367034913.98847 286047541.10545  22097782.9064                   22097781.8914
 348703348.70347 271770758.39146  20429454.2114                   20429451.5354
 11  7 25  3  7 30.0000000  0  7G02G29G04G10G12G25G05
 324786252.76247 253127596.15645                  20760382.8594   20760377.4844
 387956356.27046 302352013.15643  23993022.5634                   23993022.6024
 319096705.97346 248712025.96543  23351446.8134                   23351444.8634
 338702184.62547 264164570.36744  21476171.0164                   21476167.0274
 342704217.83647 267082791.33646  20648455.7734                   20648451.8404
 366889024.00047 285933860.60945  22070020.6174                   22070019.8244
 348576336.31647 271671787.71546  20405284.8444                   20405281.3284
 11  7 25  3  8  0.0000000  0  7G02G29G04G10G12G25G05
 324725084.98447 253079932.96145                  20748743.3444   20748737.8324
 387786140.55546 302219377.67643  23960632.8284                   23960631.4344
 319091662.80946 248708096.20343  23350487.1024                   23350485.0704
 338679920.17247 264147221.44544  21471933.2504                   21471930.0474
 342625585.69947 267021519.54346  20633492.6254                   20633489.0634
 366743637.07847 285820572.11745  22042354.0784                   22042353.7814
 348449893.65647 271573260.99646  20381223.1804                   20381220.4344
 11  7 25  3  8 30.0000000  0  7G02G29G04G10G12G25G05
 326239522.10947 254260013.84445                  21036931.4384   21036925.4924
 389191320.83246 303314323.48443  24228029.5634                   24228028.6024
 320662037.78546 249931765.00043  23649319.6254                   23649317.3554
 340233579.56347 265357865.15244  21767585.7814                   21767581.5474
 344122975.53547 268188316.83246  20918436.3444                   20918432.0274
 368174179.51647 286935280.52045  22314577.8284                   22314576.7664
 349899445.73447 272702782.12946  20657063.7504                   20657060.9304
 11  7 25  3  9  0.0000000  0  7G02G29G04G10G12G25G05
 326178714.58247 254212631.36345                  21025359.7894   21025353.5944
 389021042.37945 303181639.14143  24195626.0084                   24195625.6214
 320656985.10246 249927827.84043  23648357.8914                   23648355.9454
 340212314.47747 265341294.96944  21763538.8204                   21763535.4844
 344045537.23447 268127975.30945  20903700.1414                   20903696.1454
 368029799.09047 286822776.32445  22287102.8284                   22287102.4304
 349774140.18847 272605141.46546  20633219.1334                   20633215.9264
 11  7 25  3  9 30.0000000  0  7G02G29G04G10G12G25G05
 326118084.06647 254165386.82445                  21013822.7664   21013816.7774
 388850731.65246 303048929.68043  24163217.2974                   24163216.3094
 320651924.43846 249923884.44943  23647395.3674                   23647392.8834
 340191543.68847 265325109.94544  21759585.7584                   21759582.6454
 343968694.17247 268068097.60246  20889077.5164                   20889073.6094
 367885922.98847 286710665.10545  22259724.1334                   22259723.6414
 349649403.34447 272507943.96146  20609482.8754                   20609478.7464
 11  7 25  3 10  0.0000000  0  7G02G29G04G10G12G25G05
 326057629.57847 254118279.45345                  21002318.1174   21002312.3014
 388680390.01646 302916196.08243  24130802.2974                   24130801.2734
 320646855.54346 249919934.70743  23646431.1804                   23646428.7974
 340171264.73447 265309308.19544  21755727.2664                   21755723.4064
 343892445.34847 268008682.94546  20874567.5234                   20874563.6414
 367742553.37947 286598948.54745  22232441.5784                   22232440.7384
 349525235.98847 272411190.21146  20585854.1334                   20585850.8244
 11  7 25  3 10 30.0000000  0  7G02G29G04G10G12G25G05
 325997351.47347 254071309.51246                  20990847.1254   20990842.4454
 388510019.52746 302783440.03543  24098380.8594                   24098380.8874
 320641778.66046 249915978.68843  23645464.5314                   23645463.1054
 340151476.18847 265293888.56644  21751961.5784                   21751957.6954
 343816791.95347 267949732.25046  20860171.0474                   20860167.9494
 367599693.46147 286487629.16845  22205256.1094                   22205255.4924
 349401640.50847 272314882.07446  20562334.6564                   20562330.9614
 11  7 25  3 11  0.0000000  0  7G02G29G04G10G12G25G05
 325937250.93447 254024477.94545                  20979410.5084   20979405.3094
 388339622.92646 302650663.64143  24065955.2664                   24065954.8164
 320636694.76246 249912017.24643  23644497.5784                   23644495.0474
 340132177.60547 265278850.73044  21748288.8914                   21748285.6884
 343741735.53547 267891246.73446  20845889.0314                   20845885.0634
 367457347.10947 286376709.96945  22178168.5314                   22178168.0474
 349278619.51647 272219021.57846  20538924.9774                   20538921.3634
 11  7 25  3 11 30.0000000  0  7G02G29G04G10G12G25G05
 325877327.50047 253977784.37545                  20968007.4304   20968002.2464
 388169201.19146 302517867.66043  24033526.1954                   24033524.3954
 320631603.54346 249908050.02043  23643527.7974                   23643526.4304
 340113366.77347 265264192.95344  21744709.1484                   21744705.4924
 343667276.38347 267833226.62146  20831719.7194                   20831716.1414
 367315516.44947 286266192.61745  22151178.8984                   22151177.9304
 349156173.95747 272123609.48846  20515624.1484                   20515620.7034
 11  7 25  3 12  0.0000000  0  7G02G29G04G10G12G25G05
 325817576.92247 253931225.49245                  20956636.4774   20956631.4384
 387998752.39146 302385050.55943  24001089.8284                   24001088.4574
 320626501.06646 249904074.05943  23642557.4924                   23642555.8714
 340095038.02747 265249910.82444  21741221.6254                   21741218.6414
 343593410.48847 267775668.77746  20817663.3594                   20817659.6294
 367174200.35247 286156076.21945  22124287.9144                   22124287.2584
 349034302.47347 272028644.72346  20492432.3204                   20492429.1994
 11  7 25  3 12 30.0000000  0  7G02G29G04G10G12G25G05
 325757999.80147 253884801.77045                  20945300.3524   20945294.1724
 387828278.77746 302252214.15643  23968650.2114                   23968649.2114
 320621387.97346 249900089.81643  23641584.2974                   23641581.9804
 340077190.28947 265236003.51244  21737825.0234                   21737822.4964
 343520138.52747 267718573.74246  20803720.2504                   20803716.4454
 367033401.91047 286046363.19945  22097495.0634                   22097494.0944
 348913007.07847 271934128.85946  20469350.8984                   20469347.2074
 11  7 25  3 13  0.0000000  0  7G02G29G04G10G12G25G05
 325698594.89847 253838512.24645                  20933995.7344   20933990.3634
 387657780.92246 302119358.81643  23936205.6484                   23936203.7894
 320616263.41446 249896096.62943  23640609.9774                   23640607.0394
 340059820.55947 265222468.65244  21734520.5314                   21734516.6484
 343447460.10947 267661941.20745  20789890.0784                   20789886.2274
 366893122.78147 285937054.83245  22070800.0084                   22070799.8714
 348792288.05547 271840062.10946  20446378.3284                   20446375.2234
 11  7 25  3 13 30.0000000  0  7G02G29G04G10G12G25G05
 325639360.05147 253792355.23445                  20922723.8674   20922717.9104
 387487258.54746 301986484.32443  23903756.0394                   23903754.2304
 320611125.18446 249892092.77043  23639631.9144                   23639629.4884
 340042924.83647 265209303.16444  21731303.9384                   21731301.4654
 343375373.36347 267605769.74246  20776171.2194                   20776168.6174
 366753363.59047 285828151.62145  22044204.4224                   22044204.1334
 348672145.14547 271746444.28146  20423516.2974                   20423512.8284
 11  7 25  3 14  0.0000000  0  7G02G29G04G10G12G25G05
 325580301.36347 253746335.49245                  20911485.5554   20911479.9024
 387316719.44546 301853596.80143  23871303.9694                   23871301.3444
 320605979.49646 249888083.18443  23638652.4614                   23638650.2814
 340026507.53947 265196510.46944  21728180.3444                   21728177.2274
 343303884.75847 267550064.33246  20762568.7504                   20762565.0124
 366614132.83647 285719660.17645  22017710.1804                   22017709.1994
 348552585.71147 271653281.11746  20400765.0314                   20400761.4144
 11  7 25  3 14 30.0000000  0  7G02G29G04G10G12G25G05
 325521415.29347 253700450.24645                  20900279.5784   20900274.3714
 387146161.64846 301720694.72343  23838847.4304                   23838845.3754
 320600823.18846 249884065.26643  23637670.2504                   23637668.5354
 340010563.51647 265184086.57044  21725146.3524                   21725143.0234
 343232990.78947 267494822.28146  20749078.3754                   20749073.8834
 366475429.92647 285611580.03545  21991315.6804                   21991314.9144
 348433608.21147 271560571.40246  20378124.1024                   20378120.9024
 11  7 25  3 15  0.0000000  0  7G02G29G04G10G12G25G05
 325462700.00447 253654698.09045                  20889106.4064   20889100.9804
 386975585.37946 301587778.24243  23806387.3754                   23806386.0784
 320595654.35246 249880037.57042  23636687.3054                   23636685.2774
 339995088.93847 265172028.46144  21722201.8984                   21722198.8594
 343162690.08647 267440042.52046  20735699.9304                   20735696.2504
 366337255.61747 285503911.77745  21965021.5084                   21965021.4924
 348315212.82847 271468315.28946  20355594.2974                   20355590.4574
 11  7 25  3 15 30.0000000  0  7G02G29G04G10G12G25G05
 325404153.93447 253609077.78545                  20877965.9064   20877960.4144
 386804990.91046 301454847.54743  23773924.7034                   23773922.7894
 320590471.32046 249875998.86742  23635701.6414                   23635699.1644
 339980080.49247 265160333.57044  21719345.8674                   21719342.6994
 343092981.51647 267385724.16446  20722434.6094                   20722431.1484
 366199610.68047 285396656.01245  21938829.1484                   21938828.2624
 348197398.94947 271376512.29346  20333174.9614                   20333171.0664
 11  7 25  3 16  0.0000000  0  7G02G29G04G10G12G25G05
 325345772.59447 253563585.84845                  20866855.8204   20866850.4884
 386634375.94146 301321900.89143  23741457.1174                   23741456.2774
 320585270.32846 249871946.09843  23634711.7424                   23634709.6334
 339965532.27047 265148997.30944  21716577.0554                   21716574.2624
 343023860.37547 267331863.54346  20709281.4924                   20709277.9104
 366062493.60547 285289811.57845  21912736.3364                   21912735.6644
 348080164.05547 271285160.46146  20310866.0234                   20310862.5474
 11  7 25  3 16 30.0000000  0  7G02G29G04G10G12G25G05
 325287563.48847 253518228.11345                  20855779.1414   20855774.0434
 386463749.62546 301188945.40643  23708988.4614                   23708986.7584
 320580058.80546 249867885.18842  23633719.4694                   23633717.8204
 339951449.94947 265138024.07444  21713896.9224                   21713894.3954
 342955334.41847 267278466.71145  20696241.4534                   20696237.5784
 365925914.37547 285183386.22745  21886746.6254                   21886745.6804
 347963516.75847 271194266.48846  20288668.5004                   20288665.5864
 11  7 25  3 17  0.0000000  0  7G02G29G04G10G12G25G05
 325229519.66847 253472999.16045                  20844733.4384   20844728.0744
 386293106.48046 301055976.82443  23676515.3054                   23676514.4024
 320574830.13346 249863810.89542  23632724.7974                   23632723.0944
 339937824.82447 265127407.09044  21711304.7344                   21711301.3484
 342887396.85547 267225528.35545  20683313.0704                   20683309.7464
 365789868.51647 285077376.48845  21860857.8594                   21860856.5434
 347847451.88747 271103826.37146  20266581.9454                   20266579.1054
 11  7 25  3 17 30.0000000  0  7G02G29G04G10G12G25G05
 326747062.62147 254655500.18045                  21133512.6024   21133506.4104
 387697873.52346 302150600.57043  23943833.8674                   23943832.6844
 322145003.82046 251087322.91043  23931519.2034                   23931516.8554
 341500074.37547 266344744.39844  22008591.2664                   22008587.3754
 344395469.95347 268400650.25845  20970290.2424                   20970286.5514
 367229782.48847 286199387.39845  22134864.5474                   22134863.5274
 349307394.15247 272241443.73846  20544399.8284                   20544395.9964
 11  7 25  3 18  0.0000000  0  7G02G29G04G10G12G25G05
 326689350.13747 254610529.41445                  21122530.3134   21122524.5744
 387527203.64846 302017611.14843  23911356.7734                   23911355.5824
 322139741.66846 251083222.55542  23930517.3444                   23930515.0784
 341487357.96147 266334835.51244  22006171.2114                   22006167.9924
 344328710.87147 268348630.19945  20957586.2974                   20957582.5554
 367094811.57047 286094215.27345  22109180.0554                   22109179.1914
 349192499.30147 272151915.29746  20522536.3754                   20522532.8484
 11  7 25  3 18 30.0000000  0  7G02G29G04G10G12G25G05
 326631804.35547 254565688.54345                  21111579.7274   21111573.7974
 387356523.99246 301884614.09043  23878876.7894                   23878875.8984
 322134464.28946 251079110.26643  23929513.7734                   23929511.3444
 341475094.13747 266325279.28544  22003837.5704                   22003834.7504
 344262541.68047 268297069.79745  20944994.4924                   20944990.6724
 366960382.91847 285989465.68445  22083599.0634                   22083598.0204
 349078192.34847 272062844.97746  20500784.1724                   20500781.0234
 11  7 25  3 19  0.0000000  0  7G02G29G04G10G12G25G05
 326574421.71947 254520974.80945                  21100659.9224   21100654.1724
 387185833.00046 301751608.22343  23846395.8204                   23846395.2304
 322129168.08246 251074983.36343  23928505.9304                   23928503.6764
 341463277.66047 266316071.64544  22001588.3984                   22001585.7194
 344196958.99647 268245966.41845  20932514.9774                   20932510.8054
 366826495.53947 285885137.86745  22058121.3134                   22058120.5704
 348964471.61347 271974231.44946  20479143.8594                   20479140.4064
 11  7 25  3 19 30.0000000  0  7G02G29G04G10G12G25G05
 326517201.19147 254476387.38745                  21089771.8594   21089765.9264
 387015131.25046 301618593.96943  23813912.5784                   23813910.8714
 322123852.21946 251070841.11343  23927494.0084                   23927491.4144
 341451905.74247 266307210.39544  21999423.8754                   21999421.2234
 344131961.74647 268195319.21945  20920146.3204                   20920142.1644
 366693150.73847 285781232.83645  22032746.7344                   22032745.5784
 348851337.12947 271886074.73446  20457615.4694                   20457611.6374
 11  7 25  3 20  0.0000000  0  7G02G29G04G10G12G25G05
 326460143.71147 254431927.01645                  21078913.5944   21078908.5904
 386844421.76246 301485573.69543  23781427.4694                   23781426.0864
 322118518.01646 251066684.60543  23926479.0474                   23926476.9454
 341440977.41047 266298694.80144  21997344.8594                   21997341.6454
 344067551.10547 268145129.11745  20907888.8914                   20907885.3204
 366560351.83647 285677753.18045  22007475.6414                   22007474.9574
 348738791.00047 271798376.46946  20436198.2194                   20436194.7624
 11  7 25  3 20 30.0000000  0  7G02G29G04G10G12G25G05
 326403248.00847 254387592.69545                  21068087.0634   21068081.4884
 386673705.32446 301352547.97743  23748941.6024                   23748939.2424
 322113164.39546 251062512.96143  23925459.6094                   23925458.5394
 341430489.27747 266290522.22344  21995349.1024                   21995346.1214
 344003725.42247 268095394.82845  20895743.3754                   20895740.1844
 366428100.01647 285574699.82445  21982309.0234                   21982308.0514
 348626833.37547 271711136.78146  20414893.4694                   20414889.9494
 11  7 25  3 21  0.0000000  0  7G02G29G04G10G12G25G05
 326346509.50447 254343380.87145                  21057290.0004   21057284.3954
 386502978.67246 301219514.31643  23716453.2114                   23716450.7274
 322107786.45346 251058322.36343  23924437.0234                   23924435.0204
 341420434.59047 266282687.39844  21993436.0314                   21993433.0784
 343940479.71547 268046112.46145  20883708.3524                   20883704.6054
 366296392.68847 285472070.74245  21957246.1484                   21957244.9804
 348515460.90647 271624353.06646  20393700.0084                   20393696.6374
 11  7 25  3 21 30.0000000  0  7G02G29G04G10G12G25G05
 326289933.16047 254299295.40645                  21046523.7814   21046517.9384
 386332248.78146 301086478.14543  23683963.3204                   23683961.5744
 322102389.71546 251054117.12943  23923410.2344                   23923407.7274
 341410816.82047 266275193.03544  21991605.4534                   21991602.8054
 343877819.34447 267997286.18845  20871784.6334                   20871780.6094
 366165237.30147 285369871.76645  21932288.0004                   21932287.0124
 348404679.59847 271538029.99246  20372619.1334                   20372615.9264
 11  7 25  3 22  0.0000000  0  7G02G29G04G10G12G25G05
 326233516.32047 254255334.23445                  21035787.7194   21035782.0204
 386161515.12946 300953439.02743  23651474.0634                   23651471.7154
 322096971.98045 251049895.53543  23922378.6724                   23922377.5234
 341401631.37547 266268035.53944  21989857.5004                   21989854.7274
 343815741.30947 267948913.70745  20859971.7114                   20859967.6684
 366034633.75447 285268102.78545  21907435.1644                   21907433.6954
 348294488.23447 271452166.61346  20351650.0784                   20351647.1374
 11  7 25  3 22 30.0000000  0  7G02G29G04G10G12G25G05
 326177254.69947 254211494.00845                  21025081.6094   21025076.1994
 385990775.20346 300820395.02743  23618983.5234                   23618981.8324
 322091528.99246 251045654.26243  23921342.2424                   23921340.6914
 341392871.72747 266261209.82844  21988190.8134                   21988187.9494
 343754240.85247 267900991.27045  20848267.8754                   20848264.2814
 365904579.84847 285166762.10545  21882686.3204                   21882685.4224
 348184883.73447 271366760.54346  20330792.8674                   20330789.5864
 11  7 25  3 23  0.0000000  0  7G02G29G04G10G12G25G05
 326121146.48047 254167773.32845                  21014405.0164   21014399.3134
 385820029.40246 300687346.44543  23586491.9304                   23586488.9184
 322086059.00845 251041391.93443  23920300.1564                   23920300.2034
 341384534.39847 266254713.21544  21986604.4064                   21986601.0984
 343693316.19547 267853517.50845  20836674.7664                   20836671.4344
 365775076.05147 285065850.08645  21858042.5704                   21858041.8634
 348075865.49647 271281811.27746  20310047.6804                   20310044.1094
 11  7 25  3 23 30.0000000  0  7G02G29G04G10G12G25G05
 326065191.13747 254124171.77345                  21003756.6564   21003751.2384
 385649278.71146 300554294.06343  23553998.9144                   23553996.6524
 322080561.76646 251037108.36343  23919256.0704                   23919254.0514
 341376616.17647 266248543.16844  21985097.3054                   21985094.6414
 343632966.60247 267806491.85945  20825190.1804                   20825186.2624
 365646123.91047 284965367.94145  21833504.3204                   21833503.1914
 347967433.67647 271197318.96546  20289413.6174                   20289410.0474
 11  7 25  3 24  0.0000000  0  7G02G29G04G10G12G25G05
 326009389.56647 254080690.02345                  20993137.3594   20993132.4184
 385478525.83646 300421239.98843  23521504.9304                   23521502.8674
 322075038.42645 251032804.45343  23918204.3674                   23918203.5664
 341369116.64147 266242699.37544  21983670.2344                   21983667.7704
 343573192.77347 267759914.85245  20813815.0474                   20813811.9264
 365517726.53547 284865318.08245  21809070.6414                   21809069.8134
 347859590.44947 271113285.31646  20268891.9774                   20268888.5004
 11  7 25  3 24 30.0000000  0  7G02G29G04G10G12G25G05
 325953742.97747 254037329.06345                  20982548.7114   20982543.3244
 385307773.75046 300288186.49243  23489011.5004                   23489010.2234
 322069490.25846 251028481.20343  23917149.4694                   23917147.2114
 341362034.54747 266237180.85544  21982322.1954                   21982319.9844
 343513994.93847 267713786.67245  20802550.5164                   20802547.3324
 365389887.14547 284765703.03145  21784743.5554                   21784742.6024
 347752337.89547 271029711.92246  20248482.3524                   20248478.3834
 11  7 25  3 25  0.0000000  0  7G02G29G04G10G12G25G05
 325898251.06647 253994088.62545                  20971989.0234   20971983.6294
 385137024.52346 300155135.29343  23456519.0634                   23456517.7734
 322063917.35246 251024138.72742  23916090.0004                   23916086.4224
 341355367.82447 266231986.00844  21981054.0634                   21981051.6414
 343455372.94947 267668107.19945  20791395.4694                   20791391.6454
 365262607.89847 284666524.43445  21760523.3054                   21760522.1914
 347645677.07847 270946599.62546  20228184.9924                   20228181.8794
 11  7 25  3 25 30.0000000  0  7G02G29G04G10G12G25G05
 325842911.84447 253950967.15645                  20961458.2344   20961452.6684
 384966277.64146 300022085.92643  23424027.6884                   23424025.2424
 322058317.98446 251019775.61343  23915023.2034                   23915021.0864
 341349112.35547 266227111.60544  21979863.5944                   21979860.8054
 343397324.50847 267622874.65245  20780349.2894                   20780345.4734
 365135888.77347 284567782.29345  21736409.4844                   21736408.3364
 347539606.64847 270863947.35946  20208000.8754                   20207997.4104
 11  7 25  3 26  0.0000000  0  7G02G29G04G10G12G25G05
 325787722.70747 253907962.63345                  20950955.8134   20950950.7624
 384795532.68846 299889038.08643  23391535.8754                   23391533.4844
 322052689.58646 251015389.86742  23913951.8054                   23913950.6134
 341343263.40647 266222553.98844  21978750.8524                   21978747.4694
 343339846.36347 267578086.48845  20769411.2584                   20769407.7734
 365009729.22347 284469476.20345  21712402.0314                   21712400.8594
 347434125.09048 270781753.96946  20187928.9694                   20187925.5164
 11  7 25  3 26 30.0000000  0  7G02G29G04G10G12G25G05
 327308107.27347 255092677.88345                  21240275.7584   21240270.0594
 386200219.14146 300983599.06643  23658838.1254                   23658836.3754
 323622454.40646 252238583.16043  24212669.0704                   24212667.0784
 342913240.91447 267445913.09044  22277507.3284                   22277505.1454
 344858361.50047 268761345.03545  21058375.1484                   21058371.6914
 366459557.18047 285599212.30545  21988294.6414                   21988293.6094
 348904658.65247 271927624.29746  20467761.0944                   20467757.8244
 11  7 25  3 27  0.0000000  0  7G02G29G04G10G12G25G05
 327253217.77747 255049906.85545                  21229830.6804   21229825.0704
 386029483.00046 300850558.03544  23626348.2664                   23626346.5044
 323616767.90246 252234152.16443  24211586.9224                   24211584.8164
 342908198.05947 267441983.60544  22276547.3444                   22276544.6524
 344802021.78547 268717443.97745  21047654.1254                   21047650.5984
 366334522.03547 285501782.35545  21964501.5394                   21964500.7234
 348800356.80947 271846350.15646  20447913.7734                   20447910.1884
 11  7 25  3 27 30.0000000  0  7G02G29G04G10G12G25G05
 327198479.01647 255007253.28945                  21219413.9614   21219408.7074
 385858755.04346 300717523.40243  23593859.8364                   23593858.0514
 323611053.93046 252229699.75842  24210499.1644                   24210497.7734
 342903556.55547 267438366.87144  22275664.3834                   22275661.7384
 344746251.66047 268673986.73445  21037041.7194                   21037037.8484
 366210053.19947 285404793.68445  21940815.5474                   21940814.9184
 348696647.13347 271765537.44546  20428178.6174                   20428175.2344
 11  7 25  3 28  0.0000000  0  7G02G29G04G10G12G25G05
 327143889.91847 254964716.33645                  21209025.6804   21209020.6844
 385688036.12946 300584495.82044  23561373.2424                   23561371.4144
 323605311.37946 252225225.06642  24209406.2974                   24209404.4654
 342899312.58647 267435059.88344  22274857.2814                   22274853.6644
 344691049.38747 268630971.97745  21026537.2814                   21026533.3754
 366086151.35247 285308246.83245  21917238.1254                   21917236.8554
 348593529.03547 271685185.70346  20408555.4224                   20408552.0514
 11  7 25  3 28 30.0000000  0  7G02G29G04G10G12G25G05
 327089451.21147 254922296.59045                  21198666.8594   21198661.1454
 385517328.84446 300451477.27043  23528888.3364                   23528886.3324
 323599541.18846 252220728.87143  24208308.5084                   24208306.6764
 342895464.64847 267432061.50444  22274124.3204                   22274121.4304
 344636415.27347 268588399.95745  21016140.4454                   21016136.9384
 365962819.30947 285212143.97345  21893768.5554                   21893767.9614
 348491004.47347 271605296.45746  20389045.4924                   20389041.9494
 11  7 25  3 29  0.0000000  0  7G02G29G04G10G12G25G05
 327035157.89147 254879990.10245                  21188335.1414   21188329.8834
 385346630.41046 300318465.59444  23496405.6254                   23496403.0984
 323593738.94146 252216207.62542  24207203.7584                   24207202.3874
 342892006.09846 267429366.53144  22273466.3984                   22273463.4344
 344582343.98447 268546266.47745  21005851.0314                   21005846.9454
 365840054.07047 285116482.77745  21870407.0784                   21870406.3204
 348389069.12947 271525866.34046  20369648.3284                   20369644.4104
 11  7 25  3 29 30.0000000  0  7G02G29G04G10G12G25G05
 326981011.86747 254837798.40245                  21178031.0554   21178025.9494
 385175944.24246 300185463.48843  23463925.5554                   23463922.9224
 323587906.22746 252211662.70342  24206093.9924                   24206092.3284
 342888936.32046 267426974.50044  22272882.7664                   22272879.1174
 344528835.99247 268504571.95745  20995668.6094                   20995665.0944
 365717859.12547 285021265.96945  21847154.1094                   21847153.9344
 348287725.46547 271446897.27346  20350362.9844                   20350359.7304
 11  7 25  3 30  0.0000000  0  7G02G29G04G10G12G25G05
 326927011.60547 254795720.28145                  21167755.6484   21167749.6054
 385005271.12546 300052471.53143  23431446.6174                   23431444.3404
 323582042.53946 252207093.59042  24204978.6254                   24204976.1294
 342886252.15646 267424882.96144  22272371.2584                   22272368.3284
 344475889.54747 268463314.99246  20985593.5164                   20985589.9264
 365596235.19147 284926494.09445  21824009.9534                   21824008.8364
 348186972.89547 271368388.80546  20331190.5944                   20331186.9414
 11  7 25  3 30 30.0000000  0  7G02G29G04G10G12G25G05
 326873157.75847 254753756.26645                  21157507.2894   21157502.0274
 384834613.42246 299919491.57043  23398971.6414                   23398969.3794
 323576148.15246 252202500.58243  24203855.9774                   24203854.4304
 342883951.52346 267423090.25844  22271933.3524                   22271930.2934
 344423504.59447 268422495.55545  20975625.0704                   20975621.7074
 365475184.32847 284832168.77745  21800974.4844                   21800973.6724
 348086812.47348 271290341.73846  20312130.1564                   20312126.8134
 11  7 25  3 31  0.0000000  0  7G02G29G04G10G12G25G05
 326819445.94947 254711902.90645                  21147285.9774   21147281.4734
 384663968.28146 299786521.39543  23366498.5864                   23366496.1764
 323570218.91046 252197880.46542  24202727.1414                   24202726.4804
 342882027.74646 267421591.22344  22271567.3984                   22271564.5004
 344371675.97347 268382109.62545  20965762.3834                   20965758.9454
 365354703.92247 284738287.95745  21778047.6954                   21778047.5164
 347987240.06347 271212752.86746  20293181.9694                   20293179.4064
 11  7 25  3 31 30.0000000  0  7G02G29G04G10G12G25G05
 326765879.00847 254670162.44545                  21137092.8444   21137087.6454
 384493340.99246 299653565.12943  23334028.9224                   23334026.7544
 323564257.85945 252193235.44142  24201592.8914                   24201592.5664
 342880482.03147 267420386.78544  22271274.0004                   22271270.2154
 344320405.65647 268342158.73446  20956005.8364                   20956001.8834
 365234798.59447 284644855.25445  21755230.5944                   21755229.5474
 347888259.52047 271135625.19146  20274346.9614                   20274343.8324
 11  7 25  3 32  0.0000000  0  7G02G29G04G10G12G25G05
 326712457.47747 254628535.29345                  21126927.3134   21126921.5864
 384322733.73846 299520624.48043  23301564.0704                   23301561.4224
 323558265.88345 252188566.36342  24200453.3204                   24200452.2074
 342879312.27747 267419475.30144  22271051.2664                   22271047.7544
 344269693.43847 268302642.72745  20946355.8134                   20946351.7814
 365115470.77347 284551872.56645  21732523.4694                   21732522.2584
 347789871.81348 271058959.46946  20255624.6884                   20255621.1604
 11  7 25  3 32 30.0000000  0  7G02G29G04G10G12G25G05
 326659183.55947 254587023.15645                  21116789.4384   21116783.9384
 384152151.03546 299387702.95743  23269102.4614                   23269100.9694
 323552245.49646 252183875.14542  24199308.4384                   24199306.3444
 342878518.69946 267418856.93844  22270900.1024                   22270896.9804
 344219540.97747 268263562.87946  20936811.9694                   20936807.8054
 364996724.40647 284459342.95345  21709926.9924                   21709925.6454
 347692079.74247 270982757.88346  20237015.2504                   20237011.4774
 11  7 25  3 33  0.0000000  0  7G02G29G04G10G12G25G05
 326606054.97347 254545624.27045                  21106679.7974   21106674.2504
 383981592.48846 299254800.23443  23236646.4224                   23236644.3634
 323546194.81646 252179160.30942  24198157.1334                   24198155.1844
 342878096.85546 267418528.21944  22270819.7114                   22270816.8754
 344169945.07047 268224916.72745  20927373.6254                   20927369.9804
 364878558.74247 284367265.83645  21687440.3594                   21687439.2424
 347594881.84447 270907019.27346  20218518.9454                   20218515.3594
 11  7 25  3 33 30.0000000  0  7G02G29G04G10G12G25G05
 326553068.59847 254504336.19545                  21096596.5944   21096590.9734
 383811056.95346 299121915.43843  23204195.1174                   23204192.4224
 323540110.86345 252174419.60942  24196998.5394                   24196997.2344
 342878041.30146 267418484.92644  22270809.3284                   22270806.5234
 344120901.44147 268186700.90645  20918041.2664                   20918037.9144
 364760972.28147 284275640.04345  21665064.8364                   21665063.4574
 347498275.18847 270831741.37546  20200135.2424                   20200132.1564
 11  7 25  3 34  0.0000000  0  7G02G29G04G10G12G25G05
 326500228.74247 254463162.28945                  21086540.7894   21086536.1024
 383640550.45346 298989053.28943  23171748.4694                   23171746.8444
 323533997.74645 252169656.09042  24195835.0784                   24195834.4104
 342878353.91446 267418728.52344  22270869.1644                   22270865.7034
 344072413.71947 268148918.27045  20908814.5704                   20908810.5904
 364643970.71947 284184470.02345  21642800.0704                   21642799.2464
 347402264.25047 270756927.67646  20181865.8204                   20181861.6414
 11  7 25  3 34 30.0000000  0  7G02G29G04G10G12G25G05
 326447530.63747 254422098.84445                  21076512.8054   21076507.7194
 383470070.37946 298856211.72343  23139307.6334                   23139305.2974
 323527851.67245 252164866.89542  24194666.1254                   24194665.5084
 342879027.93846 267419253.72744  22270996.4614                   22270994.0084
 344024476.14847 268111564.32045  20899692.0474                   20899688.0784
 364527551.26247 284093753.57845  21620646.4844                   21620645.5474
 347306845.07847 270682575.09446  20163707.3914                   20163704.0164
 11  7 25  3 35  0.0000000  0  7G02G29G04G10G12G25G05
 326394976.05947 254381147.22345                  21066512.8444   21066507.1294
 383299620.45746 298723393.65244  23106872.3134                   23106869.7584
 323521674.06346 252160053.16842  24193491.1254                   24193489.9574
 342880062.84046 267420060.14144  22271193.2974                   22271191.0274
 343977089.28547 268074639.49245  20890674.4454                   20890671.1024
 364411716.94947 284003493.08645  21598603.3444                   21598602.3794
 347212019.39547 270608684.97346  20145662.8674                   20145659.2344
 11  7 25  3 35 30.0000000  0  7G02G29G04G10G12G25G05
 327917992.18847 255567913.03945                  21356332.8754   21356327.0474
 384704633.50846 299818209.07844  23374237.1564                   23374234.8164
 325090891.14146 253382819.74643  24492102.0554                   24492101.1134
 344456881.75046 268648750.19544  22571252.8364                   22571248.9184
 345505679.53547 269265748.77045  21181555.7034                   21181551.6844
 365871898.65247 285141297.03145  21876466.5394                   21876465.3324
 348693216.25447 271762864.34446  20427524.9224                   20427521.4224
 11  7 25  3 36  0.0000000  0  6G02G29G10G12G25G05
 327865731.44547 255527190.39145                  21346387.5004   21346382.3714
 384534256.30946 299685447.69144  23341815.0704                   23341813.4654
 344458638.40647 268650119.02344  22571587.3284                   22571583.9384
 345459398.33647 269229685.50845  21172748.9144                   21172744.9024
 365757246.04347 285051957.35545  21854649.1024                   21854648.6454
 348599585.75447 271689905.53146  20409707.6724                   20409704.6294
 11  7 25  3 36 30.0000000  0  6G02G29G10G12G25G05
 327813612.48447 255486578.22345                  21336469.9144   21336464.4384
 384363913.28546 299552712.89544  23309399.6094                   23309397.8834
 344460747.32047 268651762.32444  22571988.5394                   22571985.0234
 345413663.22347 269194047.74245  21164045.5864                   21164042.1174
 365643181.30547 284963075.75045  21832943.7344                   21832942.3404
 348506547.93847 271617408.55946  20392003.3444                   20391999.9414
 11  7 25  3 37  0.0000000  0  6G02G29G10G12G25G05
 327761636.42647 255446077.41045                  21326579.4144   21326573.2894
 384193607.49646 299420007.14844  23276992.0164                   23276988.8284
 344463207.20346 268653679.11343  22572455.7584                   22572453.3444
 345368474.11747 269158835.45345  21155446.6254                   21155442.6214
 365529706.87947 284874654.12545  21811350.2664                   21811348.7304
 348414104.46547 271545374.69946  20374412.0164                   20374408.1334
 11  7 25  3 37 30.0000000  0  6G02G29G10G12G25G05
 327709805.97347 255405690.03945                  21316716.4454   21316710.5354
 384023343.87546 299287334.23444  23244591.6174                   23244589.3874
 344466018.59046 268655869.76644  22572990.6644                   22572987.8054
 345323832.83247 269124050.02045  21146951.7424                   21146947.9144
 365416826.95747 284786695.77045  21789869.3364                   21789868.5124
 348322258.01247 271473806.04346  20356933.9924                   20356930.7814
 11  7 25  3 38  0.0000000  0  6G02G29G10G12G25G05
 327658124.34847 255365418.64545                  21306881.5004   21306876.3914
 383853127.52746 299154698.17244  23212200.6414                   23212198.3054
 344469182.41846 268658335.07443  22573592.7194                   22573590.3444
 345279741.48047 269089693.11345  21138561.5474                   21138557.6254
 365304546.23847 284699204.31345  21768503.3594                   21768502.1884
 348231012.24247 271402705.45346  20339570.4144                   20339566.9574
 11  7 25  3 38 30.0000000  0  6G02G29G10G12G25G05
 327606587.71547 255325260.23845                  21297074.4064   21297069.0554
 383682956.56646 299022097.50044  23179818.4144                   23179815.8524
 344472692.60947 268661070.28144  22574261.0314                   22574258.0864
 345236195.09847 269055760.87145  21130274.3674                   21130271.0314
 365192862.10947 284612177.73445  21747250.4224                   21747249.4064
 348140363.37147 271332069.99246  20322320.3914                   20322317.0084
 11  7 25  3 39  0.0000000  0  6G02G29G10G12G25G05
 327555197.77747 255285216.14145                  21287295.1414   21287289.8164
 383512834.68046 298889535.05944  23147444.9384                   23147442.8634
 344476548.06347 268664074.53544  22574994.3914                   22574992.1644
 345193194.16847 269022253.64845  21122092.2504                   21122088.1024
 365081777.57847 284525618.37545  21726111.7274                   21726110.7424
 348050312.93847 271261900.83246  20305184.7274                   20305181.2154
 11  7 25  3 39 30.0000000  0  6G02G29G10G12G25G05
 327503955.34847 255245286.98045                  21277543.9694   21277538.8054
 383342764.73446 298757013.08644  23115081.3284                   23115078.9774
 344480747.62546 268667346.91043  22575793.5704                   22575791.1094
 345150737.93047 268989170.85545  21114012.5944                   21114009.3754
 364971294.62548 284439527.77345  21705087.7114                   21705086.6414
 347960862.15647 271192198.94546  20288163.5314                   20288159.6254
 11  7 25  3 40  0.0000000  0  6G02G29G10G12G25G05
 327452858.17647 255205471.02045                  21267820.8754   21267815.7704
 383172746.48046 298624531.36344  23082727.7814                   23082725.7074
 344485286.77346 268670883.89144  22576657.8054                   22576655.2464
 345108823.41847 268956510.18845  21106036.9224                   21106032.7464
 364861412.37147 284353905.24645  21684177.5944                   21684176.5864
 347872008.77747 271122962.56646  20271254.5704                   20271250.7814
 11  7 25  3 40 30.0000000  0  6G02G29G10G12G25G05
 327401905.55147 255165767.68045                  21258124.5164   21258119.4304
 383002780.89546 298492090.71144  23050384.4384                   23050382.3554
 344490162.15246 268674682.87543  22577585.7114                   22577582.5274
 345067448.00047 268924269.61345  21098163.0864                   21098159.2934
 364752131.09047 284268751.01245  21663381.8054                   21663381.0904
 347783751.93847 271054191.01646  20254459.4534                   20254456.1374
 11  7 25  3 41  0.0000000  0  6G02G29G10G12G25G05
 327351092.96947 255126173.46145                  21248455.7344   21248450.1134
 382832865.50046 298359689.16444  23018049.9064                   23018048.2624
 344495366.89846 268678738.52744  22578575.9064                   22578572.7504
 345026605.98047 268892444.65245  21090390.9384                   21090387.2894
 364643447.32447 284184062.38745  21642700.0784                   21642698.9534
 347696087.14547 270985880.81646  20237777.8754                   20237774.1844
 11  7 25  3 41 30.0000000  0  6G02G29G10G12G25G05
 327300422.04747 255086689.64145                  21238812.9454   21238807.4224
 382663004.18646 298227329.77044  22985726.5474                   22985725.2854
 344500900.47746 268683050.39543  22579628.7344                   22579626.4654
 344986298.09047 268861035.91045  21082720.6484                   21082717.0274
 364535363.96147 284099841.59445  21622132.2894                   21622132.0234
 347609016.13747 270918033.28146  20221208.4454                   20221205.1524
 11  7 25  3 42  0.0000000  0  6G02G29G10G12G25G05
 327249890.22347 255047314.19145                  21229197.2344   21229191.7154
 382493196.20346 298095011.93844  22953414.0084                   22953411.2584
 344506757.84446 268687614.57043  22580743.7034                   22580740.5124
 344946520.24247 268830040.18045  21075151.3674                   21075147.9414
 364427879.36347 284016087.37145  21601678.7894                   21601678.0044
 347522535.66048 270850645.91846  20204752.2194                   20204748.4144
